[[{"header":{"parameterUnit":"m.s-1","parameterCategory":1,"la1":30.6,"la2":29.2853,"lo1":-89.7004,"lo2":-87.6739,"dy":0.0162,"dx":0.0183,"nx":112,"ny":82,"refTime":"2026-04-25T00:00:00:Z","depth":0,"parameterNumber":2,"parameterNumberName":"U-component_of_WINDS"},"data":[0.0,0.0,0.0,0.0,0.0,0.0,0.0,0.0,0.0,0.0,0.0,0.0,0.0,0.0,0.0,0.0,0.0,0.0,0.0,0.0,0.0,0.0,0.0,0.0,0.0,0.0,0.0,0.0,0.0,0.0,0.0,0.0,0.0,0.0,0.0,0.0,0.0,0.0,0.0,0.0,0.0,0.0,0.0,0.0,0.0,0.0,0.0,0.0,0.0,0.0,0.0,0.0,0.0,0.0,0.0,0.0,0.0,0.0,0.0,0.0,0.0,0.0,0.0,0.0,0.0,0.0,0.0,0.0,0.0,0.0,0.0,0.0,0.0,0.0,0.0,0.0,0.0,0.0,0.0,0.0,0.0,0.0,0.0,0.0,0.0,0.0,0.0,0.0,0.0,0.0,0.0,0.6295,0.761,0.8264,0.7983,0.7824,0.7369,0.6522,0.0,0.0,0.0,0.0,0.0,0.0,0.0,0.0,0.0,0.0,0.0,0.0,0.0,0.0,0.0,0.0,0.0,0.0,0.0,0.0,0.0,0.0,0.0,0.0,0.0,0.0,0.0,0.0,0.0,0.0,0.0,0.0,0.0,0.0,0.0,0.0,0.0,0.0,0.0,0.0,0.0,0.0,0.0,0.0,0.0,0.0,0.0,0.0,0.0,0.0,0.0,0.0,0.0,0.0,0.0,0.0,0.0,0.0,0.0,0.0,0.0,0.0,0.0,0.0,0.0,0.0,0.0,0.0,0.0,0.0,0.0,0.0,0.0,0.0,0.0,0.0,0.0,0.0,0.0,0.0,0.0,0.0,0.0,0.0,0.0,0.0,0.0,0.0,0.0,0.0,0.0,0.0,0.0,0.0,0.0,0.0,0.0,0.0,0.0,0.0,0.0,0.0,0.0,0.0,0.4463,0.6602,0.7672,0.8098,0.778,0.7528,0.6959,0.5979,0.0,0.0,0.0,0.0,0.0,0.0,0.0,0.0,0.0,0.0,0.0,0.0,0.0,0.0,0.0,0.0,0.0,0.0,0.0,0.0,0.0,0.0,0.0,0.0,0.0,0.0,0.0,0.0,0.0,0.0,0.0,0.0,0.0,0.0,0.0,0.0,0.0,0.0,0.0,0.0,0.0,0.0,0.0,0.0,0.0,0.0,0.0,0.0,0.0,0.0,0.0,0.0,0.0,0.0,0.0,0.0,0.0,0.0,0.0,0.0,0.0,0.0,0.0,0.0,0.0,0.0,0.0,0.0,0.0,0.0,0.0,0.0,0.0,0.0,0.0,0.0,0.0,0.0,0.0,0.0,0.0,0.0,0.0,0.0,0.0,0.0,0.0,0.0,0.0,0.0,0.0,0.0,0.0,0.0,0.0,0.0,0.0,0.0,0.0,0.0,0.0,0.0,0.0,0.3743,0.4798,0.5972,0.6957,0.7456,0.7223,0.7061,0.6704,0.6049,0.5293,0.0,0.0,0.0,0.0,0.0,0.0,0.0,0.0,0.0,0.0,0.0,0.0,0.0,0.0,0.0,0.0,0.0,0.0,0.0,0.0,0.0,0.0,0.0,0.0,0.0,0.0,0.0,0.0,0.0,0.0,0.0,0.0,0.0,0.0,0.0,0.0,0.0,0.0,0.0,0.0,0.0,0.0,0.0,0.0,0.0,0.0,0.0,0.0,0.0,0.0,0.0,0.0,0.0,0.0,0.0,0.0,0.0,0.0,0.0,0.0,0.0,0.0,0.0,0.0,0.0,0.0,0.0,0.0,0.0,0.0,0.0,0.0,0.0,0.0,0.0,0.0,0.0,0.0,0.0,0.0,0.0,0.0,0.0,0.0,0.0,0.0,0.0,0.0,0.0,0.0,0.0,0.0,0.0,0.0,0.0,0.0,0.0,0.0,0.0,0.0,0.0,0.0,0.4072,0.4926,0.5349,0.6217,0.6687,0.6602,0.6511,0.6341,0.5985,0.5118,0.0,0.0,0.0,0.0,0.0,0.0,0.0,0.0,0.0,0.0,0.0,0.0,0.0,0.0,0.0,0.0,0.0,0.0,0.0,0.0,0.0,0.0,0.0,0.0,0.0,0.0,0.0,0.0,0.0,0.0,0.0,0.0,0.0,0.0,0.0,0.0,0.0,0.0,0.0,0.0,0.0,0.0,0.0,0.0,0.0,0.0,0.0,0.0,0.0,0.0,0.0,0.0,0.0,0.0,0.0,0.0,0.0,0.0,0.0,0.0,0.0,0.0,0.0,0.0,0.0,0.0,0.0,0.0,0.0,0.0,0.0,0.0,0.0,0.0,0.0,0.0,0.0,0.0,0.0,0.0,0.0,0.0,0.0,0.0,0.0,0.0,0.0,0.0,0.0,0.0,0.0,0.0,0.0,0.0,0.0,0.0,0.0,0.0,0.0,0.0,0.0,0.0,0.3657,0.4408,0.5294,0.5755,0.5981,0.5956,0.59,0.5688,0.5281,0.4679,0.0,0.0,0.0,0.0,0.0,0.0,0.0,0.0,0.0,0.0,0.0,0.0,0.0,0.0,0.0,0.0,0.0,0.0,0.0,0.0,0.0,0.0,0.0,0.0,0.0,0.0,0.0,0.0,0.0,0.0,0.0,0.0,0.0,0.0,0.0,0.0,0.0,0.0,0.0,0.0,0.0,0.0,0.0,0.0,0.0,0.0,0.0,0.0,0.0,0.0,0.0,0.0,0.0,0.0,0.0,0.0,0.0,0.0,0.0,0.0,0.0,0.0,0.0,0.0,0.0,0.0,0.0,0.0,0.0,0.0,0.0,0.0,0.0,0.0,0.0,0.0,0.0,0.0,0.0,0.0,0.0,0.0,0.0,0.0,0.0,0.0,0.0,0.0,0.0,0.0,0.0,0.0,0.0,0.0,0.0,0.0,0.0,0.0,0.0,0.0,0.0,0.0,0.3617,0.4259,0.0,0.5341,0.5629,0.589,0.5455,0.5223,0.5314,0.0,0.0,0.0,0.0,0.0,0.0,0.0,0.0,0.0,0.0,0.0,0.0,0.0,0.0,0.0,0.0,0.0,0.0,0.0,0.0,0.0,0.0,0.0,0.0,0.0,0.0,0.0,0.0,0.0,0.0,0.0,0.0,0.0,0.0,0.0,0.0,0.0,0.0,0.0,0.0,0.0,0.0,0.0,0.0,0.0,0.0,0.0,0.0,0.0,0.0,0.0,0.0,0.0,0.0,0.0,0.0,0.0,0.0,0.0,0.0,0.0,0.0,0.0,0.0,0.0,0.0,0.0,0.0,0.0,0.0,0.0,0.0,0.0,0.0,0.0,0.0,0.0,0.0,0.0,0.0,0.0,0.0,0.0,0.0,0.0,0.0,0.0,0.0,0.0,0.0,0.0,0.0,0.0,0.0,0.0,0.0,0.0,0.0,0.0,0.0,0.0,0.0,0.3046,0.3586,0.4126,0.0,0.5157,0.5363,0.5528,0.5094,0.4884,0.5077,0.0,0.0,0.0,0.0,0.0,0.0,0.0,0.0,0.0,0.0,0.0,0.0,0.0,0.0,0.0,0.0,0.0,0.0,0.0,0.0,0.0,0.0,0.0,0.0,0.0,0.0,0.0,0.0,0.0,0.0,0.0,0.0,0.0,0.0,0.0,0.0,0.0,0.0,0.0,0.0,0.0,0.0,0.0,0.0,0.0,0.0,0.0,0.0,0.0,0.0,0.0,0.0,0.0,0.0,0.0,0.0,0.0,0.0,0.0,0.0,0.0,0.0,0.0,0.0,0.0,0.0,0.0,0.0,0.0,0.0,0.0,0.0,0.0,0.0,0.0,0.0,0.0,0.0,0.0,0.0,0.0,0.0,0.0,0.0,0.0,0.0,0.0,0.0,0.0,0.0,0.0,0.0,0.0,0.0,0.0,0.0,0.0,0.0,0.0,0.0,0.0,0.0,0.322,0.3499,0.3963,0.5179,0.5309,0.5164,0.4834,0.4808,0.4675,0.0,0.0,0.0,0.0,0.0,0.0,0.0,0.0,0.0,0.0,0.0,0.0,0.0,0.0,0.0,0.0,0.0,0.0,0.0,0.0,0.0,0.0,0.0,0.0,0.0,0.0,0.0,0.0,0.0,0.0,0.0,0.0,0.0,0.0,0.0,0.0,0.0,0.0,0.0,0.0,0.0,0.0,0.0,0.0,0.0,0.0,0.0,0.0,0.0,0.0,0.0,0.0,0.0,0.0,0.0,0.0,0.0,0.0,0.0,0.0,0.0,0.0,0.0,0.0,0.0,0.0,0.0,0.0,0.0,0.0,0.0,0.0,0.0,0.0,0.0,0.0,0.0,0.0,0.0,0.0,0.0,0.0,0.0,0.0,0.0,0.0,0.0,0.0,0.0,0.0,0.0,0.0,0.0,0.0,0.0,0.0,0.0,0.0,0.0,0.0,0.0,0.0,0.0,0.3226,0.3499,0.3963,0.5179,0.5309,0.5275,0.5157,0.4774,0.4414,0.414,0.0,0.0,0.0,0.0,0.0,0.0,0.0,0.0,0.0,0.0,0.0,0.0,0.0,0.0,0.0,0.0,0.0,0.0,0.0,0.0,0.0,0.0,0.0,0.0,0.0,0.0,0.0,0.0,0.0,0.0,0.0,0.0,0.0,0.0,0.0,0.0,0.0,0.0,0.0,0.0,0.0,0.0,0.0,0.0,0.0,0.0,0.0,0.0,0.0,0.0,0.0,0.0,0.0,0.0,0.0,0.0,0.0,0.0,0.0,0.0,0.0,0.0,0.0,0.0,0.0,0.0,0.0,0.0,0.0,0.0,0.0,0.0,0.0,0.0,0.0,0.0,0.0,0.0,0.0,0.0,0.0,0.0,0.0,0.0,0.0,0.0,0.0,0.0,0.0,0.0,0.0,0.0,0.0,0.0,0.0,0.0,0.0,0.0,0.0,0.0,0.0,0.0,0.2602,0.3215,0.3963,0.5179,0.5309,0.523,0.511,0.4676,0.4218,0.3814,0.0,0.0,0.0,0.0,0.0,0.0,0.0,0.0,0.0,0.0,0.0,0.0,0.0,0.0,0.0,0.0,0.0,0.0,0.0,0.0,0.0,0.0,0.0,0.0,0.0,0.0,0.0,0.0,0.0,0.0,0.0,0.0,0.0,0.0,0.0,0.0,0.0,0.0,0.0,0.0,0.0,0.0,0.0,0.0,0.0,0.0,0.0,0.0,0.0,0.0,0.0,0.0,0.0,0.0,0.0,0.0,0.0,0.0,0.0,0.0,0.0,0.0,0.0,0.0,0.0,0.0,0.0,0.0,0.0,0.0,0.0,0.0,0.0,0.0,0.0,0.0,0.0,0.0,0.0,0.0,0.0,0.0,0.0,0.0,0.0,0.0,0.0,0.0,0.0,0.0,0.0,0.0,0.0,0.0,0.0,0.0,0.0,0.0,0.0,0.0,0.0,0.0,0.1807,0.2851,0.3963,0.5179,0.5309,0.517,0.4867,0.4562,0.4153,0.3542,0.0,0.0,0.0,0.0,0.0,0.0,0.0,0.0,0.0,0.0,0.0,0.0,0.0,0.0,0.0,0.0,0.0,0.0,0.0,0.0,0.0,0.0,0.0,0.0,0.0,0.0,0.0,0.0,0.0,0.0,0.0,0.0,0.0,0.0,0.0,0.0,0.0,0.0,0.0,0.0,0.0,0.0,0.0,0.0,0.0,0.0,0.0,0.0,0.0,0.0,0.0,0.0,0.0,0.0,0.0,0.0,0.0,0.0,0.0,0.0,0.2124,0.0,0.0,0.0,0.0,0.0,0.0,0.0,0.0,0.0,0.0,0.0,0.0,0.0,0.0,0.0,0.0,0.0,0.0,0.0,0.0,0.0,0.0,0.0,0.0,0.0,0.0,0.0,0.0,0.0,0.0,0.0,0.0,0.0,0.0,0.0,0.0,0.0,0.0,0.0,0.0,0.0,0.2886,0.3355,0.3963,0.5179,0.5309,0.5289,0.519,0.4709,0.4132,0.3535,0.2755,0.0,0.0,0.0,0.0,0.0,0.0,0.0,0.0,0.0,0.0,0.0,0.0,0.0,0.0,0.0,0.0,0.0,0.0,0.0,0.0,0.0,0.0,0.0,0.0,0.0,0.0,0.0,0.0,0.0,0.0,0.0,0.0,0.0,0.0,0.0,0.0,0.0,0.0,0.0,0.0,0.0,0.0,0.0,0.0,0.0,0.0,0.0,0.0,0.0,0.0,0.0,0.0,0.0,0.0,0.0,0.0,0.0,0.0,0.0,0.0,0.2437,0.0,0.0,0.0,0.0,0.0,0.0,0.0,0.0,0.0,0.0,0.0,0.0,0.0,0.0,0.0,0.0,0.0,0.0,0.0,0.0,0.0,0.0,0.0,0.0,0.0,0.0,0.0,0.0,0.0,0.0,0.0,0.0,0.0,0.0,0.0,0.0,0.0,0.0,0.0,0.0,0.3255,0.3579,0.4077,0.5168,0.5309,0.5309,0.5309,0.487,0.4269,0.3532,0.2966,0.0,0.0,0.0,0.0,0.0,0.0,0.0,0.0,0.0,0.0,0.0,0.0,0.0,0.0,0.0,0.0,0.0,0.0,0.0,0.0,0.0,0.0,0.0,0.0,0.0,0.0,0.0,0.0,0.0,0.0,0.0,0.0,0.0,0.0,0.0,0.0,0.0,0.0,0.0,0.0,0.0,0.0,0.0,0.0,0.0,0.0,0.0,0.0,0.0,0.0,0.0,0.0,0.0,0.2746,0.2744,0.2754,0.2921,0.2986,0.2971,0.3315,0.3114,0.2582,0.2946,0.0,0.0,0.0,0.0,0.0,0.0,0.0,0.0,0.0,0.0,0.0,0.0,0.0,0.0,0.0,0.0,0.0,0.0,0.0,0.0,0.0,0.0,0.0,0.0,0.3078,0.2233,0.0,0.0,0.0,0.0,0.0,0.0,0.0,0.0,0.0,0.0,0.0,0.0,0.3309,0.374,0.422,0.5181,0.5309,0.5309,0.5309,0.5003,0.4467,0.3711,0.3307,0.2683,0.0,0.0,0.0,0.0,0.0,0.0,0.0,0.0,0.0,0.0,0.0,0.0,0.0,0.0,0.0,0.0,0.0,0.0,0.0,0.0,0.0,0.0,0.0,0.0,0.0,0.0,0.0,0.0,0.0,0.0,0.0,0.0,0.1852,0.165,0.0,0.0,0.0,0.0,0.0,0.0,0.0,0.0,0.0,0.0,0.0,0.0,0.0,0.2476,0.2615,0.2771,0.2784,0.2688,0.293,0.2998,0.2883,0.3008,0.3147,0.329,0.3846,0.0,0.287,0.3043,0.0,0.0,0.0,0.0,0.0,0.0,0.0,0.0,0.0,0.0,0.0,0.0,0.0,0.0,0.0,0.0,0.0,0.0,0.0,0.0,0.0,0.0,0.4474,0.4504,0.3841,0.294,0.0,-0.0184,-0.1923,-0.2096,-0.2388,0.0,0.0,0.0,0.0,0.0,0.0,0.0,0.346,0.3944,0.4382,0.5212,0.5309,0.5309,0.5309,0.5003,0.4643,0.4309,0.3528,0.2933,0.2565,0.1825,0.0,0.0,0.0,0.0,0.0,0.0,0.0,0.0,0.0,0.0,0.0,0.0,0.0,0.0,0.0,0.0,0.0,0.0,0.0,0.0,0.0,0.0,0.0,0.0,0.0,0.0,0.0,0.0,0.0,0.1797,0.2065,0.1944,0.2134,0.2162,0.0,0.0,0.0,0.0,0.0,0.0,0.0,0.0,0.0,0.262,0.267,0.2919,0.3328,0.3194,0.3124,0.3097,0.3276,0.3347,0.329,0.3351,0.3419,0.3487,0.3745,0.3626,0.3317,0.3511,0.3259,0.273,0.0,0.0,0.0,0.0,0.338,0.3961,0.4421,0.4593,0.0,0.3962,0.0,0.0,0.0,0.0,0.0,0.0,0.0,0.0,0.0,0.0,0.5645,0.4959,0.4143,0.3349,0.2968,0.2019,0.0792,0.0,-0.1162,-0.1235,-0.0855,0.0,0.0,0.0,0.0,0.2416,0.3653,0.4141,0.4623,0.5232,0.5309,0.5309,0.5309,0.5164,0.4799,0.4105,0.3693,0.3171,0.2453,0.2033,0.169,0.0,0.0,0.0,0.0,0.0,0.0,0.0,0.0,0.0,0.0,0.0,0.0,0.0,0.0,0.0,0.0,0.0,0.0,0.0,0.0,0.0,0.0,0.0,0.0,0.0,0.0,0.0,0.0,0.1879,0.2139,0.2098,0.2145,0.2068,0.0,0.0,0.0,0.0,0.0,0.0,0.1575,0.1999,0.2408,0.2778,0.291,0.3211,0.3726,0.3482,0.3395,0.3448,0.3557,0.3565,0.3487,0.3249,0.3132,0.3141,0.3141,0.3141,0.3167,0.3704,0.359,0.3056,0.2727,0.2694,0.2833,0.2867,0.3361,0.4102,0.4427,0.454,0.4442,0.3954,0.0,0.3692,0.1724,0.0,0.0,0.0,0.0,0.4751,0.4884,0.5557,0.5974,0.5055,0.4293,0.3757,0.363,0.3601,0.3058,0.0,0.0536,0.0297,0.0433,0.0,0.0,0.0,0.0,0.394,0.4194,0.4643,0.5066,0.5358,0.5356,0.5309,0.5309,0.5182,0.4803,0.4055,0.3796,0.3308,0.247,0.2293,0.2099,0.1903,0.0,0.0,0.0,0.0,0.0,0.0,0.0,0.0,0.0,0.0,0.0,0.0,0.0,0.0,0.0,0.0,0.0,0.0,0.0,0.0,0.0,0.0,0.0,0.0,0.0,0.0,0.0,0.0,0.0,0.1842,0.1988,0.0,0.0,0.0,0.0,0.2173,0.1411,0.0967,0.0931,0.0972,0.1625,0.3051,0.3105,0.3256,0.3615,0.3581,0.3608,0.3601,0.3618,0.3433,0.3097,0.2284,0.1875,0.1875,0.1875,0.1875,0.2002,0.3128,0.3583,0.3517,0.3195,0.2689,0.2245,0.2981,0.366,0.4248,0.4712,0.4873,0.4817,0.4461,0.3757,0.2907,0.2005,0.2335,0.0,0.0,0.3978,0.4581,0.6003,0.589,0.5267,0.4828,0.4535,0.4204,0.37,0.3619,0.3561,0.0,0.2471,0.1691,0.1713,0.0,0.2962,0.406,0.4571,0.4961,0.5349,0.5653,0.5807,0.5691,0.5444,0.5309,0.5309,0.489,0.4628,0.4552,0.3797,0.323,0.3056,0.2683,0.2399,0.2189,0.1325,0.0,0.0,0.0,0.0,0.0,0.0,0.0,0.0,0.0,0.0,0.0,0.0,0.0,0.0,0.0,0.0,0.0,0.0,0.0,0.0,0.0,0.0,0.0,0.0,0.0,0.0,0.0,0.0,0.205,0.1975,0.0,0.1254,0.1226,0.1414,0.1898,0.203,0.1569,0.0399,0.0319,0.0575,0.1092,0.1837,0.2334,0.246,0.246,0.2443,0.2454,0.1636,0.1238,0.1095,0.0797,0.0223,-0.0537,-0.0536,-0.0536,-0.0357,0.163,0.2456,0.2493,0.3162,0.2794,0.2052,0.3086,0.3638,0.3853,0.4022,0.4066,0.403,0.3917,0.3648,0.3058,0.1214,0.1918,0.3434,0.3612,0.4003,0.447,0.4985,0.5209,0.5173,0.4644,0.4474,0.4264,0.3711,0.3581,0.3605,0.358,0.3258,0.2884,0.2631,0.2848,0.3311,0.3916,0.4429,0.4909,0.5444,0.5836,0.6077,0.6035,0.5525,0.5156,0.5156,0.4564,0.4086,0.3784,0.3486,0.3167,0.2858,0.2703,0.2579,0.2527,0.2205,0.0895,0.0,0.0,0.0,0.0,0.0,0.0,0.0,0.0,0.0,0.0,0.0,0.0,0.0,0.0,0.0,0.0,0.0,0.0,0.0,0.0,0.0,0.0,0.0,0.0,0.0,0.0,0.1069,0.1225,0.1147,0.0912,0.0446,0.0144,0.015,0.0572,0.0943,0.0653,-0.0557,-0.06,-0.0607,-0.0625,0.0178,0.0579,0.0579,0.0579,0.0579,0.0579,-0.0223,-0.0856,-0.1332,-0.133,-0.1803,-0.2534,-0.2528,-0.2525,-0.2432,-0.0838,0.0093,0.0595,0.1898,0.1885,0.1344,0.2563,0.3013,0.3004,0.3007,0.3007,0.3049,0.3465,0.3609,0.3155,0.0718,0.1118,0.2546,0.336,0.384,0.4132,0.4125,0.4434,0.4657,0.4434,0.426,0.4052,0.3667,0.3581,0.3581,0.3581,0.3594,0.3503,0.325,0.3302,0.353,0.394,0.43,0.4739,0.5342,0.5624,0.5762,0.5762,0.5224,0.4862,0.4813,0.4215,0.3737,0.3405,0.3204,0.2977,0.2719,0.2708,0.2705,0.2709,0.2106,0.0499,-0.2103,0.0,0.0,0.0,0.0,0.0,0.0,0.0,0.0,0.0,0.0,0.0,0.0,0.0,0.0,0.0,0.0,0.0,0.0,0.0,0.0,0.0,0.0,0.0,-0.0337,-0.0405,-0.0635,-0.0671,-0.0513,-0.0457,-0.0691,-0.1403,-0.1873,-0.1838,-0.1844,-0.1835,-0.1869,-0.1875,-0.1875,-0.1875,-0.1875,-0.1875,-0.1875,-0.1835,-0.1884,-0.1887,-0.1894,-0.2599,-0.3997,-0.4,-0.4014,-0.4016,-0.4016,-0.4013,-0.4006,-0.4003,-0.334,-0.213,-0.0644,-0.0045,0.0135,0.1304,0.1751,0.1748,0.1751,0.1749,0.1928,0.3119,0.3491,0.303,0.0718,-0.0,0.0494,0.2831,0.3506,0.3537,0.3598,0.3609,0.3751,0.4264,0.3965,0.3578,0.3534,0.3534,0.3534,0.3581,0.3581,0.3581,0.3581,0.3581,0.3796,0.4303,0.4387,0.0,0.5216,0.5079,0.4908,0.4908,0.4592,0.4341,0.4206,0.3827,0.3542,0.3473,0.2963,0.2663,0.2663,0.2684,0.2679,0.2609,0.0883,-0.0894,-0.2692,0.0,0.0,0.0,0.0,0.0,0.0,0.0,0.0,0.0,0.0,0.0,0.0,0.0,0.0,0.0,0.0,0.0,0.0,0.0,0.0,0.0,0.0,-0.2119,-0.2556,-0.1746,-0.1449,-0.2318,-0.2355,-0.2436,-0.2743,-0.2958,-0.3121,-0.3119,-0.3084,-0.3102,-0.3093,-0.3096,-0.3096,-0.3096,-0.3102,-0.3102,-0.3096,-0.3099,-0.333,-0.3768,-0.3469,-0.3605,-0.4149,-0.4059,-0.4012,-0.4019,-0.4019,-0.3996,-0.4022,-0.412,-0.3926,-0.3491,-0.2111,-0.0937,0.005,0.0393,0.0489,0.0488,0.0479,0.0481,0.0537,0.0882,0.0979,0.088,0.0196,-0.0,0.0146,0.0802,0.1634,0.2505,0.3382,0.3588,0.3636,0.3762,0.3721,0.3363,0.2502,0.2277,0.2546,0.3411,0.3585,0.3581,0.3581,0.3581,0.3796,0.4303,0.4387,0.0,0.5216,0.5252,0.5174,0.5174,0.461,0.4231,0.4213,0.3552,0.3143,0.3134,0.2228,0.1676,0.1676,0.2329,0.2077,0.076,0.0244,-0.0885,0.0,0.0,0.0,0.0,0.0,0.0,0.0,0.0,0.0,0.0,0.0,0.0,0.0,0.0,0.0,0.0,0.0,0.0,0.0,0.0,0.0,0.0,-0.2408,-0.2645,-0.3475,-0.283,-0.2503,-0.3099,-0.3258,-0.337,-0.3444,-0.356,-0.359,-0.3585,-0.3592,-0.3592,-0.3592,-0.3592,-0.3592,-0.3592,-0.3598,-0.3598,-0.3592,-0.3673,-0.3875,-0.4208,-0.4009,-0.4029,-0.4189,-0.413,-0.4134,0.0,-0.4233,-0.4226,-0.4227,-0.4288,-0.4323,0.0,0.0,0.0,0.0,0.0,-0.0916,-0.0907,-0.0901,-0.0902,-0.0906,-0.0908,-0.0907,-0.0906,-0.0908,-0.0504,-0.0,-0.0,0.0487,0.1206,0.1902,0.2482,0.2837,0.2834,0.3236,0.342,0.2692,0.1743,0.1564,0.3283,0.3185,0.0,0.3534,0.3581,0.3711,0.4005,0.426,0.4434,0.4574,0.4787,0.4831,0.4618,0.4221,0.3921,0.3847,0.3392,0.0,0.0,0.0,0.1533,0.0777,0.1288,0.0,0.0,0.0,0.0,0.0,0.0,0.0,0.0,-0.0354,-0.0,0.0,0.0,0.0,0.0,0.0,0.0,0.0,0.0,0.0,0.0,0.0,0.0,0.0,0.0,0.0,0.0,-0.3044,-0.3324,-0.3663,-0.373,-0.3681,-0.3368,-0.3459,-0.348,-0.3319,-0.3473,-0.3561,-0.3578,-0.3581,-0.3581,-0.3581,0.0,0.0,0.0,0.0,-0.3609,-0.365,-0.3752,-0.3847,-0.3896,-0.3997,-0.4119,-0.4233,-0.4233,-0.4346,-0.4519,-0.4519,-0.4519,-0.4519,-0.4519,-0.4519,-0.4494,-0.4517,-0.4521,-0.4325,-0.2985,-0.2443,-0.2454,-0.2445,0.0,0.0,-0.2448,-0.2448,-0.2448,-0.2448,-0.1529,-0.0459,-0.0304,-0.0253,-0.0251,-0.0242,0.0572,0.141,0.1587,0.2429,0.32,0.3203,0.1524,0.0627,0.2792,0.2422,0.2188,0.3401,0.3581,0.3581,0.3581,0.4008,0.4136,0.3667,0.4005,0.4136,0.3667,0.0,0.0,0.3343,0.3329,0.276,0.1447,0.1995,0.1661,0.0064,-0.0,-0.0,-0.0,-0.0,-0.0,-0.0,-0.1348,-0.2003,-0.1951,-0.0333,0.039,0.0,0.0,0.0,0.0,0.0,0.0,0.0,0.0,0.0,0.0,0.0,0.0,0.0,0.0,0.0,-0.3309,-0.3751,-0.4057,-0.4234,-0.4647,-0.4593,-0.3493,-0.3269,-0.3206,-0.3299,-0.3333,-0.3446,-0.3571,-0.3581,-0.3581,-0.3581,-0.3581,-0.3581,-0.3581,-0.3688,-0.3799,-0.3847,-0.391,-0.4117,-0.4369,0.0,0.0,-0.446,-0.446,-0.446,-0.4519,-0.4519,-0.4519,-0.4519,-0.4519,-0.4519,-0.4512,-0.4515,-0.4497,-0.4443,-0.4146,-0.4036,-0.4075,-0.4036,-0.403,-0.4075,-0.4075,-0.4075,-0.4075,-0.4075,-0.3854,0.0,-0.2116,-0.1783,-0.1769,-0.1758,-0.1458,-0.0851,0.0094,0.0504,0.0716,0.0718,0.0314,0.0135,0.0584,0.13,0.2199,0.3379,0.3592,0.3581,0.3581,0.3667,0.3711,0.3622,0.3711,0.3711,0.3626,0.3581,0.3568,0.3537,0.3521,0.3003,0.1795,0.0947,0.0384,-0.0,-0.0,-0.0,-0.0,-0.0,-0.0,-0.0,0.1602,0.2387,0.2402,0.2744,0.2901,0.0,0.0,0.0,0.0,0.0,0.0,0.0,0.0,0.0,0.0,0.0,-0.2772,-0.2791,0.0,-0.3757,-0.3885,-0.4395,-0.4758,-0.4856,-0.513,-0.5052,-0.4345,-0.3955,-0.3753,-0.3761,-0.3588,-0.3497,-0.3575,-0.3581,-0.3581,-0.3581,-0.3646,-0.3687,-0.3687,-0.3808,-0.3909,-0.3926,-0.403,-0.4209,-0.4358,-0.4371,-0.4405,-0.4519,-0.4519,-0.4519,-0.4519,-0.4519,-0.4519,-0.4519,-0.4519,-0.4519,-0.4519,-0.4519,-0.4519,-0.4519,-0.4477,-0.448,-0.448,-0.448,-0.448,-0.448,-0.448,-0.448,-0.448,-0.448,-0.4484,-0.4356,-0.3558,-0.3377,-0.3355,-0.3349,-0.3273,-0.2943,-0.2016,-0.0889,-0.0,-0.0,-0.0,-0.0,-0.0,0.0494,0.1076,0.1705,0.2781,0.3595,0.3581,0.3615,0.3612,0.3578,0.3836,0.388,0.3622,0.3581,0.3581,0.3581,0.3588,0.2822,0.1006,0.0322,-0.0,-0.0,-0.0,-0.0,-0.0,0.1206,0.1791,0.1791,0.2413,0.2992,0.3594,0.3587,0.3589,0.0,0.0,0.0,0.0,0.0,0.0,0.0,0.0,-0.3277,-0.3996,-0.3768,-0.3584,-0.3971,-0.4455,-0.469,-0.4441,-0.5022,-0.548,-0.548,-0.5567,-0.5577,-0.5465,-0.4933,-0.4547,-0.4444,-0.4019,-0.3751,-0.3751,-0.3667,-0.3592,-0.3619,-0.3731,-0.3805,-0.3836,-0.3985,-0.405,-0.4017,-0.4197,-0.4237,-0.4236,-0.4405,-0.4519,-0.4519,-0.4519,-0.4519,-0.4519,-0.4519,-0.4519,-0.4519,-0.4519,-0.4519,-0.4519,-0.4519,-0.4519,-0.4519,-0.4519,-0.4519,-0.4519,-0.4519,-0.4519,-0.4519,-0.4519,-0.4519,-0.4519,-0.4519,-0.4525,-0.4477,-0.4477,-0.4484,-0.4519,-0.4502,-0.4449,-0.4303,-0.383,-0.2152,-0.0658,-0.0406,-0.0179,-0.0,-0.0,-0.0,-0.0,-0.0,0.1615,0.2968,0.322,0.3429,0.3605,0.3581,0.3968,0.4096,0.3626,0.3585,0.3585,0.3588,0.358,0.2565,0.0171,-0.0,-0.0,-0.0,-0.0,-0.0,-0.0,0.2349,0.3606,0.3606,0.2577,0.2617,0.3595,0.3554,0.3583,-0.2816,-0.2016,-0.116,-0.1163,-0.1849,-0.2806,0.0,0.0,-0.4867,-0.5299,-0.5009,-0.4765,-0.4927,-0.4993,-0.5091,-0.5147,-0.5679,-0.6093,-0.6093,-0.6513,-0.6797,-0.6807,-0.5845,-0.5211,-0.5187,-0.4639,-0.4303,-0.4303,-0.388,-0.3636,-0.3761,-0.3782,-0.3853,-0.3988,-0.409,-0.4174,-0.4184,-0.4372,-0.4446,-0.446,-0.4463,-0.4519,-0.4519,-0.4519,-0.4519,-0.4519,-0.4519,-0.4519,-0.4519,-0.4519,-0.4519,-0.4519,-0.4519,-0.4519,-0.4519,-0.4519,-0.4519,-0.4519,-0.4519,-0.4519,-0.4519,-0.4519,-0.4519,-0.4519,-0.4519,-0.4519,-0.4519,-0.4519,-0.4522,-0.4519,-0.4501,-0.4348,-0.4212,-0.4157,-0.3662,-0.2913,-0.1846,-0.0759,-0.0,-0.0,-0.0,-0.0,-0.0,0.0225,0.0762,0.183,0.2904,0.3581,0.3595,0.3674,0.367,0.3595,0.3595,0.3598,0.3609,0.3598,0.2549,0.0134,-0.0,-0.0,-0.0,-0.0,-0.0,-0.0,0.2361,0.3588,0.3588,0.3282,0.3282,0.3578,0.3396,0.3442,-0.3895,-0.3265,-0.2717,0.0,-0.3614,-0.404,-0.4911,-0.5124,-0.5305,-0.5697,-0.556,-0.5432,-0.5713,-0.5758,-0.575,0.0,-0.6301,-0.6647,-0.6647,-0.6852,-0.6979,-0.6979,-0.6592,-0.6167,-0.5873,-0.526,-0.4913,-0.4913,-0.4395,-0.4122,-0.4295,-0.4065,-0.3995,-0.4097,-0.4294,-0.4372,-0.4372,-0.4433,-0.4519,-0.4519,-0.4519,-0.4519,-0.4519,-0.4519,-0.4519,-0.4519,-0.4519,-0.4519,-0.4519,-0.4519,-0.4519,-0.4519,-0.4519,-0.4519,-0.4519,-0.4519,-0.4519,-0.4519,-0.4519,-0.4519,-0.4519,-0.4519,-0.4519,-0.4519,-0.4519,-0.4519,-0.4519,-0.4519,-0.4519,-0.4519,-0.4519,-0.4419,-0.4338,-0.4247,-0.3996,-0.3604,-0.299,-0.2459,-0.1658,-0.0268,-0.0,-0.0,-0.0,-0.0,0.0404,0.1615,0.2237,0.2818,0.3506,0.3588,0.3588,0.3605,0.3609,0.3018,0.1617,0.1482,0.1078,0.0045,-0.0,-0.0,-0.0,-0.0,-0.0,-0.0,0.0986,0.2201,0.3615,0.3494,0.3396,0.3315,0.3433,0.3527,-0.4696,-0.4264,0.0,-0.4863,-0.4973,-0.506,-0.5552,-0.5655,-0.5756,-0.6117,-0.6135,-0.612,-0.6355,-0.6435,-0.6435,-0.6435,-0.6732,-0.6979,-0.6979,-0.6979,-0.6979,-0.6979,-0.6979,-0.6852,-0.6477,-0.5873,-0.5567,-0.5567,-0.4826,-0.4495,-0.4738,-0.43,-0.4107,-0.43,-0.4409,-0.4519,-0.4519,-0.4519,-0.4519,-0.4519,-0.4519,-0.4519,-0.4519,-0.4519,-0.4519,-0.4519,-0.4519,-0.4519,-0.4519,-0.4519,-0.4519,-0.4519,-0.4519,-0.4625,-0.4787,-0.4787,-0.468,-0.4519,-0.4519,-0.4519,-0.4519,-0.4519,-0.4519,-0.4519,-0.4519,-0.4519,-0.4519,-0.4519,-0.4519,-0.4519,-0.4519,-0.4519,-0.4426,-0.4231,-0.4065,-0.3939,-0.3703,-0.3642,-0.3103,-0.1346,-0.0448,-0.0,-0.0,-0.0,0.0315,0.1169,0.1884,0.26,0.3468,0.3004,0.2598,0.261,0.2613,0.1889,0.0135,-0.0,-0.0,-0.0,-0.0,-0.0,-0.0,-0.0,-0.0,-0.0,-0.0,0.0851,0.2608,0.2932,0.297,0.2729,0.2879,0.3017,-0.5299,0.0,-0.5036,-0.5303,-0.5418,-0.5557,-0.5821,-0.6244,-0.6647,-0.6906,-0.6965,-0.6972,-0.6979,-0.6979,-0.6979,-0.6979,-0.6979,-0.6979,-0.6979,-0.6979,-0.6979,-0.6979,-0.6979,-0.6979,0.0,-0.6477,-0.6184,-0.6184,-0.5087,-0.4554,-0.4878,-0.4313,-0.4155,-0.4501,-0.4515,-0.4519,-0.4519,-0.4519,-0.4519,-0.4519,-0.4519,-0.4519,-0.4519,-0.4519,-0.4519,-0.4519,-0.4519,-0.4519,-0.4519,-0.4519,-0.4519,-0.4519,-0.4519,-0.4893,-0.5487,-0.5487,-0.5054,-0.4519,-0.4519,-0.4519,-0.4519,-0.4519,-0.4519,-0.4519,-0.4519,-0.4519,-0.4519,-0.4519,-0.4519,-0.4519,-0.4519,-0.4519,-0.4426,-0.4231,-0.419,-0.411,-0.3921,-0.3718,-0.3585,-0.3501,-0.1617,-0.0,-0.0,-0.0,-0.0,0.0045,0.2068,0.3571,0.3584,0.1575,0.009,0.009,0.009,0.009,-0.0,-0.0,-0.0,-0.0,-0.0,-0.0,-0.0,-0.0,-0.0,-0.0,-0.0,0.0045,0.0134,0.1288,0.1848,0.1828,0.15,0.1546,-0.6462,0.0,-0.6563,-0.668,-0.6748,-0.6733,-0.6637,-0.675,-0.6901,-0.7001,-0.6867,-0.6734,-0.6734,-0.6734,-0.6734,-0.6734,-0.6894,-0.6979,-0.6979,-0.6979,-0.6979,-0.6979,-0.6979,0.0,0.0,0.0,0.0,-0.6725,-0.5754,-0.5241,-0.5469,-0.4614,-0.426,-0.4512,-0.4519,-0.4519,-0.4519,-0.4948,-0.5164,-0.5164,-0.566,-0.5391,-0.4515,-0.5445,-0.5391,-0.4574,-0.5496,-0.5605,-0.5218,-0.5714,-0.5882,-0.5891,-0.6137,-0.6356,-0.6575,-0.6575,-0.6412,-0.6113,-0.5428,-0.5164,-0.5109,-0.4625,-0.4519,-0.4519,-0.4519,-0.4519,-0.4519,-0.4519,-0.4519,-0.4519,-0.4519,-0.4519,-0.4505,-0.4402,-0.4317,-0.4195,-0.4105,-0.3198,-0.2635,-0.3456,-0.1663,-0.0,-0.0,-0.0,-0.0,-0.0,0.0674,0.1799,0.3392,0.1484,-0.0,-0.0,-0.0,-0.0,-0.0,-0.0,-0.0,-0.0,-0.0,-0.0,-0.0,-0.0,-0.0,-0.0,-0.0,-0.0,-0.0,0.0398,0.0619,0.0583,0.0486,0.0929,-0.7652,-0.7701,-0.7689,-0.8054,-0.7992,-0.7818,-0.7631,-0.7471,-0.7351,-0.7351,-0.7108,-0.6855,-0.6695,-0.6657,-0.6653,-0.6613,-0.6747,-0.6901,-0.7007,-0.6979,-0.6979,-0.6979,-0.6979,-0.6979,0.0,0.0,0.0,-0.6979,-0.6052,-0.5691,-0.6143,-0.5174,-0.4786,-0.5222,-0.5226,-0.5226,-0.5226,-0.5655,-0.5873,-0.5928,-0.6367,-0.615,-0.5281,-0.6209,-0.61,-0.5281,-0.6204,-0.6312,-0.5928,-0.6421,-0.6688,-0.6774,-0.7033,-0.7307,-0.7611,-0.7611,-0.7727,-0.7672,-0.6325,-0.5873,-0.5819,-0.5386,-0.5062,-0.4838,-0.4838,-0.4677,-0.4519,-0.4519,-0.4519,-0.4519,-0.4519,-0.4519,-0.4519,-0.4519,-0.4392,-0.4287,-0.4309,-0.3043,-0.2016,-0.2269,-0.1043,-0.0,-0.0,-0.0,-0.0,-0.0,-0.0,0.0539,0.2113,0.0943,-0.0,-0.0,-0.0,-0.0,-0.0,-0.0,-0.0,-0.0,-0.0,-0.0,-0.0,-0.0,-0.0,-0.0,-0.0,-0.0,-0.0,-0.0,-0.0,-0.0,-0.0,0.0405,-0.8809,-0.8664,-0.8505,-0.9298,-0.9119,-0.8716,-0.8691,-0.8339,-0.8008,-0.7967,-0.7646,-0.7217,0.0,0.0,-0.6724,-0.6578,-0.658,-0.6707,-0.6981,-0.6979,-0.6979,0.0,0.0,0.0,0.0,0.0,0.0,-0.7025,0.0,-0.5893,-0.6738,-0.5889,-0.5738,-0.6583,-0.6588,-0.6588,-0.6588,-0.6642,-0.6642,-0.6642,-0.6696,-0.6696,-0.6588,-0.6696,-0.6696,-0.6588,-0.6707,-0.6712,-0.6663,-0.6727,-0.6965,-0.7219,-0.7234,-0.7833,-0.8693,-0.8693,-0.894,-0.9017,-0.734,-0.6707,-0.6642,-0.6588,-0.6091,-0.5487,-0.5487,-0.5058,-0.4519,-0.4519,-0.4519,-0.4519,-0.4519,-0.4519,-0.4519,-0.4519,-0.4519,-0.4484,-0.4513,-0.3368,-0.1849,-0.0289,-0.0,-0.0,-0.0,-0.0,-0.0045,-0.018,-0.018,-0.0135,-0.0,-0.0,-0.0,-0.0,-0.0,-0.0,-0.0,-0.0,-0.0,-0.0,-0.0,-0.0,-0.0,-0.0,-0.0,-0.0,-0.0,-0.0,-0.0,-0.0,-0.0,-0.0,-0.0,-0.0,-0.9291,-0.9597,-0.9734,-0.9552,-0.9399,-0.916,-0.8729,-0.8295,-0.7899,-0.7551,-0.6983,-0.6372,0.0,0.0,0.0,-0.5954,-0.6486,0.0,-0.7014,-0.6979,0.0,-0.6979,0.0,-0.7348,-0.7348,-0.7426,0.0,0.0,-0.6577,-0.6034,-0.6344,-0.6325,-0.6367,-0.6583,-0.6588,-0.6588,-0.6588,-0.7128,-0.7402,-0.745,-0.799,-0.767,-0.6642,-0.7723,-0.7616,-0.6652,-0.7978,-0.8232,-0.7862,-0.862,-0.8978,-0.9061,-0.9269,-0.9515,-0.97,-0.97,-0.9774,-0.9761,-0.8851,-0.8045,-0.7343,-0.6804,-0.6091,-0.5487,-0.5487,-0.5058,-0.4519,-0.4519,-0.4519,-0.4519,-0.4519,-0.4519,-0.4519,-0.4519,-0.4525,-0.4494,-0.4517,-0.419,-0.3125,-0.0501,-0.0,-0.0,-0.0,-0.0,-0.0629,-0.2429,-0.2702,-0.2024,-0.0225,-0.0,-0.0,-0.0,-0.0,-0.0,-0.0,-0.0,-0.0,-0.0,-0.0,-0.0,-0.0,-0.0,-0.0,-0.0,-0.0,-0.0,-0.0,-0.0,-0.0,-0.0,-0.0,-0.0,-1.0407,-1.0756,-1.0878,-1.0591,-1.0514,-1.0296,-0.9469,-0.8942,-0.8412,-0.7528,-0.6893,0.0,-0.5455,0.0,0.0,0.0,0.0,0.0,-0.6987,-0.6979,-0.6979,0.0,-0.7168,0.0,-0.75,-0.7393,-0.7412,0.0,-0.697,-0.6729,-0.7166,-0.7098,-0.7235,-0.7563,-0.7563,-0.7563,-0.7563,-0.799,-0.8156,-0.8209,-0.8586,-0.8374,-0.7616,-0.8427,-0.8368,-0.7628,0.0,-0.901,-0.8695,-0.9387,-0.976,-0.9886,-1.0053,-1.02,-1.0314,-1.0314,-1.0227,-1.0053,-0.9593,-0.9039,-0.8472,-0.7794,-0.6921,-0.6151,-0.6009,-0.5277,-0.4519,-0.4519,-0.4519,-0.4519,-0.4519,-0.4519,-0.4519,-0.4525,-0.4473,-0.4515,-0.4504,-0.4492,-0.3597,-0.061,-0.0833,-0.1565,-0.1576,-0.1135,-0.1254,-0.2603,-0.3242,-0.3108,-0.1753,-0.0673,-0.0,-0.0,-0.0,-0.0,-0.0,-0.0,-0.0,-0.0,-0.0,-0.0,-0.0,-0.0,-0.0,-0.0,-0.0,-0.0,-0.0,-0.0,-0.0,-0.0,-0.0,-0.0,-1.1589,-1.1811,-1.1811,-1.1811,-1.1718,-1.1404,-1.0342,-0.9691,-0.8963,-0.7587,0.0,-0.638,-0.5422,-0.5593,-0.5833,-0.5664,0.0,-0.6438,-0.6947,-0.6979,-0.6979,-0.6979,-0.7054,-0.7201,-0.754,-0.7107,-0.7014,-0.7461,-0.7497,-0.7752,-0.8278,-0.8026,-0.8156,-0.8758,-0.8804,-0.8804,-0.8804,-0.8804,-0.8804,-0.8804,-0.8804,-0.8804,-0.8804,-0.8844,-0.8864,-0.8884,-0.9157,0.0,-0.9323,-0.9679,-0.9947,-1.0174,-1.0174,-1.0334,-1.0624,-1.0624,-1.0401,-1.0127,-0.98,-0.9733,-0.9699,-0.9072,-0.8038,-0.7054,-0.6743,-0.5626,-0.4519,-0.4519,-0.4519,-0.4519,-0.4519,-0.4519,-0.4519,-0.4473,-0.4363,-0.4203,-0.4219,-0.4351,-0.3679,-0.082,-0.1985,-0.3447,-0.363,-0.2743,-0.2025,-0.207,-0.2965,-0.3598,-0.3609,-0.1792,-0.0358,-0.0045,-0.0,-0.0,-0.0,-0.0,-0.0,-0.0,-0.0,-0.0,-0.0,-0.0,-0.0,-0.0,-0.0,-0.0,-0.0,-0.0,-0.0,-0.0,-0.0,-0.0,-1.1752,-1.1811,-1.1811,-1.1811,-1.1425,-1.0878,-1.0167,-0.924,0.0,0.0,-0.637,-0.5662,-0.468,-0.5183,-0.5669,-0.5424,0.0,0.0,0.0,0.0,-0.6979,0.0,0.0,0.0,0.0,0.0,0.0,0.0,0.0,-0.8357,-0.787,-0.8349,-0.8646,-0.8804,-0.8804,-0.8804,-0.8804,-0.8804,-0.8804,-0.8804,-0.8804,-0.8804,-0.8818,-0.9058,-0.911,-0.9137,-0.9733,0.0,-0.9987,-1.0287,-1.0441,-1.0481,-1.0481,-1.0577,-1.0624,-1.0624,-1.0591,-1.047,-0.9866,-1.0,-1.0274,-0.9432,-0.8187,-0.7079,-0.7043,-0.584,-0.4519,-0.4519,-0.4519,-0.4519,-0.4519,-0.4519,-0.4519,-0.4519,-0.3514,-0.2623,-0.2625,-0.3577,-0.3978,-0.217,-0.2144,-0.2738,-0.3783,-0.3592,-0.3351,-0.3532,-0.3572,-0.3585,-0.3585,-0.3236,-0.2203,-0.0225,-0.0,-0.0,-0.0,-0.0,-0.0,-0.0,-0.0,-0.0,-0.0,-0.0,-0.0,-0.0,-0.0,-0.0,-0.0,-0.0,-0.0,-0.0,-0.0,-0.0,-1.239,-1.2544,-1.2544,-1.2544,-1.2104,-1.1387,-1.0205,0.0,0.0,0.0,-0.5945,-0.5381,-0.446,0.0,0.0,0.0,0.0,0.0,0.0,0.0,0.0,0.0,0.0,0.0,0.0,0.0,0.0,0.0,0.0,-0.8646,-0.8268,-0.8593,-0.8804,-0.8804,-0.8804,-0.8804,-0.8804,-0.8804,-0.8804,-0.8804,-0.8804,-0.8804,-0.8818,-0.905,-0.9183,-0.9216,-0.986,0.0,-1.014,-1.0441,-1.0624,-1.0624,-1.0624,-1.0624,-1.0624,-1.0624,-1.0624,-1.0557,-1.006,-1.0194,-1.053,-0.9886,-0.8622,-0.7382,-0.7156,-0.5941,-0.4565,-0.4539,-0.4519,-0.4519,-0.4519,-0.4519,-0.4519,-0.4525,-0.3347,-0.2174,-0.2174,-0.3418,-0.4307,-0.3564,-0.3334,-0.3437,-0.4017,-0.3929,-0.3827,-0.3921,-0.3788,-0.3693,-0.3612,-0.3227,-0.269,-0.1932,-0.0763,-0.0,-0.0,-0.0,-0.0,-0.0,-0.0,-0.0,-0.0,-0.0,-0.0,-0.0,-0.0,-0.0,-0.0,-0.0,-0.0,-0.0,-0.0,0.0674,-1.3103,-1.3301,-1.3173,-1.3048,-1.2642,-1.1758,-1.0027,-0.9022,0.0,0.0,-0.5558,-0.5108,-0.4426,0.0,-0.4731,0.0,0.0,0.0,0.0,0.0,0.0,0.0,0.0,0.0,0.0,0.0,0.0,0.0,0.0,0.0,-0.8811,-0.8804,-0.8804,-0.8804,-0.8804,-0.8804,-0.8804,-0.8804,-0.8804,-0.8804,-0.8804,-0.8804,-0.8818,-0.9172,-0.9283,-0.9365,-0.996,0.0,0.0,-1.0461,-1.0624,-1.0624,-1.0624,-1.0624,-1.0624,-1.0624,-1.0624,-1.0571,-1.0147,-1.0261,-1.0501,-0.9951,-0.8902,-0.7791,-0.7322,-0.612,-0.4841,-0.4549,-0.4519,-0.4519,-0.4519,-0.4519,-0.4522,-0.4477,-0.3574,-0.2679,-0.2679,-0.3638,-0.449,-0.449,-0.4389,-0.4254,-0.4254,-0.4123,-0.402,-0.402,-0.3938,-0.3785,-0.363,-0.2909,-0.2705,-0.3519,-0.1436,-0.0,-0.0,-0.0,-0.0,-0.0,-0.0,-0.0,-0.0,-0.0,-0.0,-0.0,-0.0,-0.0,-0.0,-0.0,-0.0,-0.0,0.0539,0.1798,-1.3644,-1.3514,-1.3073,-1.2617,-1.2077,-1.1165,-0.9254,0.0,0.0,-0.5817,-0.5127,-0.4666,-0.4354,-0.4377,-0.4519,-0.4765,0.0,-0.6193,0.0,0.0,0.0,0.0,0.0,0.0,0.0,0.0,0.0,0.0,0.0,0.0,-0.8857,-0.8804,-0.8804,-0.8804,-0.8804,-0.8804,-0.8804,-0.8804,-0.8804,-0.8804,-0.8804,-0.8804,-0.8824,-0.9385,-0.9646,-0.9673,-1.0261,0.0,0.0,-1.0611,-1.0624,-1.0624,-1.0624,-1.0624,-1.0624,-1.0624,-1.0624,-1.0544,-0.992,-1.0094,-1.0398,-0.898,-0.8516,-0.8392,-0.7699,-0.6525,-0.5293,-0.4684,-0.4519,-0.4519,-0.4519,-0.4519,-0.4522,-0.4477,-0.4366,-0.4307,-0.4307,-0.4421,-0.4477,-0.4522,-0.4508,-0.4498,-0.4498,-0.4324,-0.4174,-0.4174,-0.4046,-0.3902,-0.3633,-0.2882,-0.2699,-0.3519,-0.1432,-0.0,-0.0,-0.0,-0.0,-0.0,-0.0,-0.0,-0.0,-0.0,-0.0,-0.0,-0.0,-0.0,-0.0,-0.0,-0.0,0.0045,0.225,0.3385,-1.3132,-1.3257,-1.3073,-1.2522,-1.2002,-1.109,-0.9155,0.0,-0.7069,-0.556,-0.4962,-0.4567,-0.413,-0.4227,-0.4472,-0.4868,-0.5292,-0.5953,-0.6954,0.0,0.0,0.0,0.0,0.0,0.0,0.0,0.0,0.0,0.0,0.0,-1.0012,-0.9614,-0.9562,-1.0012,-0.9211,-0.9008,-0.9413,-0.9008,-0.8891,-0.9065,-0.9065,-0.9165,-0.9345,-0.9764,-0.9952,-0.9967,-1.0381,0.0,0.0,-1.0624,-1.0454,-1.0314,-1.0488,-1.0448,-1.0314,-1.0557,-1.0624,-1.0591,-1.0356,-1.0423,-1.0488,-0.9698,-0.9038,-0.8369,-0.7116,-0.5922,-0.4971,-0.4598,-0.4519,-0.4519,-0.4519,-0.4519,-0.4519,-0.4522,-0.4525,-0.4525,-0.4525,-0.4525,-0.4522,-0.4519,-0.4519,-0.4519,-0.4519,-0.4412,-0.4375,-0.4375,-0.425,-0.4138,-0.4134,-0.3689,-0.3471,-0.3829,-0.2167,-0.0804,-0.0045,-0.0,-0.0,-0.0,-0.0,-0.0,-0.0,-0.0,-0.0,-0.0,-0.0,0.0718,0.2158,0.2158,0.1796,0.1118,0.2834,0.3614,-1.2625,-1.2781,-1.2584,-1.2052,-1.1487,-1.06,0.0,-0.7783,-0.6847,-0.5412,-0.4894,-0.4587,-0.4211,-0.4232,-0.4468,-0.4949,-0.5448,-0.6171,-0.7328,-0.8218,0.0,0.0,0.0,0.0,0.0,0.0,0.0,0.0,0.0,0.0,0.0,-1.0669,-1.0517,-1.0813,-0.971,-0.9309,-0.9814,-0.9159,-0.8911,-0.9057,-0.9143,-0.9305,-0.9432,-0.9811,-0.9946,-0.9873,-1.0174,0.0,0.0,-1.0301,-1.018,-1.002,-1.0314,-1.0301,-1.0154,-1.0448,-1.0624,-1.0611,-1.0461,-1.0428,-1.0312,-0.9522,-0.8765,-0.7846,-0.6256,-0.5374,-0.488,-0.4601,-0.4519,-0.4519,-0.4519,-0.4519,-0.4519,-0.4519,-0.4519,-0.4519,-0.4519,-0.4519,-0.4519,-0.4519,-0.4519,-0.4519,-0.4519,-0.4519,-0.4519,-0.4519,-0.4375,-0.4297,-0.4418,-0.4206,-0.4026,-0.3996,-0.3072,-0.2075,-0.1141,-0.0405,-0.0,-0.0,-0.0,-0.0,-0.0,-0.0,-0.0,-0.0,-0.0,0.1168,0.3615,0.3615,0.3152,0.2373,0.3188,0.3394,-1.2347,-1.2166,-1.1462,-1.0856,-1.0305,-0.9491,-0.7888,-0.7088,-0.6405,-0.5313,-0.4893,-0.4686,-0.4686,-0.4466,-0.4482,-0.5015,-0.5936,-0.7123,-0.8661,-0.9276,0.0,0.0,0.0,0.0,0.0,0.0,0.0,0.0,0.0,0.0,0.0,-1.1765,-1.1466,-1.0813,-1.0167,-0.9814,-0.9814,-0.9159,-0.8804,-0.8818,-0.905,-0.9037,-0.8838,-0.9419,-0.9526,0.0,0.0,0.0,0.0,-0.9693,-0.9693,-0.9719,-1.0007,-1.012,-1.0154,-1.0448,-1.0624,-1.0521,-1.0221,-1.012,-0.9825,-0.7909,-0.7206,-0.6805,-0.5208,-0.5084,-0.5328,-0.468,-0.4519,-0.4519,-0.4519,-0.4519,-0.4519,-0.4519,-0.4519,-0.4519,-0.4519,-0.4519,-0.4519,-0.4519,-0.4519,-0.4519,-0.4519,-0.4519,-0.4519,-0.4519,-0.4515,-0.4409,-0.4214,-0.4194,-0.4137,-0.4036,-0.3926,-0.3778,-0.356,-0.1376,-0.0,-0.0,-0.0,-0.0,-0.0,-0.0,-0.0,-0.0,-0.0,0.1168,0.3615,0.3615,0.3615,0.3574,0.3615,0.2978,-1.0508,-1.0611,-1.0481,-0.9793,-0.9576,-0.9156,-0.7588,-0.6962,-0.6394,-0.5322,-0.4894,-0.4706,-0.4708,-0.4777,-0.5297,-0.6725,-0.7354,-0.8238,0.0,0.0,0.0,0.0,0.0,0.0,0.0,0.0,0.0,0.0,0.0,0.0,0.0,-1.2559,-1.2461,-1.2255,-1.0626,-1.0012,-1.0466,-0.9361,-0.8911,-0.905,-0.9143,-0.9299,-0.9412,-0.9593,-0.9633,0.0,0.0,0.0,0.0,-0.9686,-0.9566,-0.9426,-0.992,-0.9993,-0.988,-1.0436,-1.0624,-1.0485,-0.9813,-0.9469,-0.9138,-0.7724,-0.6856,-0.6212,-0.5454,-0.5045,-0.4787,-0.457,-0.4519,-0.4519,-0.4519,-0.4519,-0.4519,-0.4519,-0.4519,-0.4519,-0.4519,-0.4519,-0.4519,-0.4519,-0.4519,-0.4519,-0.4519,-0.4519,-0.4519,-0.4519,-0.4519,-0.4501,-0.4399,-0.4402,-0.4389,-0.4341,-0.4312,-0.4097,-0.3646,-0.2878,-0.1779,-0.0094,-0.0,-0.0,-0.0,-0.0,-0.0,-0.0,-0.0,0.1168,0.3615,0.3605,0.3191,0.2386,0.321,0.2505,-0.9432,-0.9617,-0.96,-0.9133,-0.8961,-0.8607,-0.7459,-0.6841,-0.6279,-0.5437,-0.504,-0.4883,-0.4982,-0.5146,-0.5744,-0.7292,-0.7852,-0.8618,0.0,0.0,0.0,0.0,0.0,0.0,0.0,0.0,0.0,0.0,0.0,0.0,0.0,-1.2881,-1.2881,-1.2881,-1.1133,-1.0261,-1.0415,-0.9361,-0.8898,-0.9078,-0.9453,-0.9653,-0.9729,-1.0111,-1.0221,0.0,0.0,0.0,0.0,-0.9729,-0.946,-0.9138,-0.9726,-0.984,-0.9753,-1.0409,-1.0624,-1.0498,-0.9594,-0.9095,-0.8638,-0.7335,-0.6222,-0.5373,-0.5199,-0.4842,-0.4519,-0.4519,-0.4519,-0.4519,-0.4519,-0.4519,-0.4519,-0.4519,-0.4519,-0.4519,-0.4519,-0.4519,-0.4519,-0.4519,-0.4519,-0.4519,-0.4519,-0.4519,-0.4519,-0.4519,-0.4519,-0.4519,-0.4522,-0.4473,-0.4252,-0.3688,-0.4136,-0.4334,-0.3967,-0.3736,-0.2591,-0.0146,-0.0,-0.0,-0.0,-0.0,-0.0,-0.0,-0.0,0.0718,0.2245,0.3155,0.3222,0.2492,0.2299,0.145,0.0,-0.9057,-0.8804,-0.8784,-0.84,-0.7919,-0.7464,-0.6767,0.0,-0.5652,-0.5349,-0.5263,-0.5614,-0.5632,-0.6004,-0.7166,-0.7765,0.0,0.0,0.0,0.0,0.0,0.0,0.0,0.0,0.0,0.0,0.0,0.0,0.0,0.0,-1.2881,-1.2881,-1.2822,-1.1534,-1.0559,-0.9969,-0.9256,-0.8962,-0.8962,-0.9868,-1.0166,-0.9925,-1.0862,-1.1083,0.0,0.0,0.0,0.0,-0.9769,-0.9361,-0.8864,-0.9452,-0.9673,-0.9726,-1.0403,-1.0611,-1.0465,-0.9588,-0.9001,-0.8333,-0.6744,-0.5451,-0.4532,-0.4522,-0.4519,-0.4519,-0.4519,-0.4519,-0.4519,-0.4519,-0.4519,-0.4519,-0.4519,-0.4519,-0.4519,-0.4519,-0.4519,-0.4519,-0.4519,-0.4519,-0.4519,-0.4519,-0.4519,-0.4519,-0.4519,-0.4519,-0.4525,-0.448,-0.448,-0.3971,-0.2512,-0.3649,-0.4343,-0.3884,-0.355,-0.2389,-0.0152,-0.0,0.0096,0.0288,0.0093,-0.0,-0.0,-0.0,-0.0,-0.0,0.2266,0.3412,0.3537,0.1122,-0.0,-0.8376,0.0,-0.7847,-0.7654,-0.751,-0.7349,0.0,-0.6597,-0.6171,-0.6058,0.0,-0.6059,-0.7143,-0.7009,-0.7407,-0.9516,-0.9951,0.0,0.0,0.0,0.0,0.0,0.0,0.0,0.0,0.0,0.0,0.0,0.0,0.0,-1.2881,-1.2881,-1.2657,-1.208,-1.1715,-1.1466,-1.1316,-1.0661,-1.032,-1.032,-1.0553,-1.0648,-1.0568,-1.0802,-1.0845,0.0,0.0,0.0,-0.9762,-0.9263,-0.8962,-0.8864,-0.9452,-0.9546,-0.9446,-1.0261,-1.0414,-1.0131,-0.9521,-0.9119,-0.8595,-0.6695,-0.5439,-0.4616,-0.4553,-0.4519,-0.4519,-0.4519,-0.4519,-0.4519,-0.4519,-0.4519,-0.4519,-0.4519,-0.4519,-0.4519,-0.4519,-0.4519,-0.4519,-0.4519,-0.4519,-0.4519,-0.4519,-0.4525,-0.4477,-0.4477,-0.4484,-0.449,-0.449,-0.4501,-0.4337,-0.3993,-0.4291,-0.2641,0.2015,0.0377,-0.0578,-0.0053,-0.0,0.1048,0.336,0.1237,-0.0,-0.0,-0.0,-0.0,-0.0,0.0561,0.1783,0.354,0.1149,-0.0,-0.8131,-0.8195,-0.8243,-0.8041,-0.7979,-0.7897,-0.7581,-0.6984,-0.6468,0.0,0.0,-0.623,-0.7342,-0.7491,-0.8019,-0.9739,-1.0213,0.0,0.0,0.0,0.0,0.0,0.0,0.0,0.0,0.0,0.0,0.0,0.0,0.0,-1.2881,-1.2881,-1.2725,-1.2344,-1.2295,-1.1981,-1.1366,-1.0965,-1.0813,-1.0813,-1.1116,-1.1266,-1.1266,-1.1633,-1.1742,0.0,0.0,0.0,-1.0218,-0.951,-0.9061,-0.8851,-0.9305,-0.9379,-0.9276,-1.008,-1.0254,-1.0032,-0.9503,-0.8578,-0.7476,-0.5927,-0.5041,-0.4572,-0.4543,-0.4519,-0.4519,-0.4519,-0.4519,-0.4519,-0.4519,-0.4519,-0.4519,-0.4519,-0.4519,-0.4519,-0.4519,-0.4519,-0.4519,-0.4519,-0.4519,-0.4519,-0.4525,-0.4525,-0.4245,-0.3574,-0.403,-0.4494,-0.4504,-0.4511,-0.3943,-0.2581,-0.2417,-0.056,0.4113,0.2982,0.1744,0.1034,0.1,0.1757,0.337,0.2552,0.1413,0.005,-0.0,-0.0,-0.0,-0.0,0.0698,0.1913,0.0612,-0.0,-0.8283,-0.8785,-0.9204,-0.8801,-0.875,-0.8664,-0.8163,0.0,0.0,0.0,0.0,0.0,0.0,-0.7845,0.0,0.0,0.0,0.0,0.0,0.0,0.0,0.0,0.0,0.0,0.0,0.0,0.0,0.0,0.0,0.0,-1.2881,-1.2881,-1.2881,-1.2881,-1.2881,-1.2314,-1.1124,-1.1124,-1.1124,-1.1124,-1.1724,-1.1972,-1.1972,-1.2608,-1.2881,-1.2832,0.0,0.0,-1.0762,-0.9969,-0.9309,-0.8838,-0.907,-0.9183,-0.9256,-0.99,-1.0114,-1.0032,-0.9503,-0.797,-0.6159,-0.5273,-0.4768,-0.4584,-0.456,-0.4536,-0.4519,-0.4519,-0.4519,-0.4519,-0.4519,-0.4519,-0.4519,-0.4519,-0.4519,-0.4519,-0.4519,-0.4519,-0.4519,-0.4519,-0.4519,-0.4522,-0.4473,-0.4356,-0.3901,-0.2734,-0.3294,-0.3808,-0.3825,-0.3828,-0.2809,-0.028,-0.0,0.1233,0.4228,0.4514,0.3937,0.2625,0.2553,0.2564,0.2566,0.3816,0.3082,0.0051,-0.0,-0.0,-0.0,-0.0,-0.0,-0.0,-0.0,-0.0,-0.9119,-0.9701,-0.9812,-0.8197,-0.8058,-0.8132,-0.7504,-0.6984,0.0,0.0,0.0,0.0,0.0,0.0,0.0,0.0,0.0,0.0,0.0,0.0,0.0,0.0,0.0,0.0,0.0,0.0,0.0,0.0,0.0,0.0,-1.2881,-1.2881,-1.2881,-1.2881,-1.2881,-1.2774,-1.2569,-1.2569,-1.2569,-1.2569,-1.2666,-1.2715,-1.2715,-1.2832,-1.2881,-1.2832,0.0,-1.0914,-1.0712,-0.9465,-0.891,-0.8838,-0.907,-0.9183,-0.9256,-0.99,-1.0114,-1.0032,-0.9503,-0.8109,-0.654,-0.6233,-0.5575,-0.4823,-0.4694,-0.4565,-0.4519,-0.4519,-0.4519,-0.4519,-0.4519,-0.4519,-0.4519,-0.4519,-0.4519,-0.4519,-0.4519,-0.4519,-0.4519,-0.4519,-0.4519,-0.4519,-0.4519,-0.3788,-0.3456,-0.4079,-0.2174,-0.067,-0.067,-0.0672,-0.0505,-0.0056,-0.0,0.1233,0.4228,0.4514,0.4392,0.4154,0.4132,0.4125,0.4135,0.4388,0.309,0.0055,-0.0,-0.0,-0.0,-0.0,-0.0,-0.0,-0.0,-0.0,-0.8813,-0.9217,-0.9307,-0.8159,-0.8745,-0.9446,-0.8851,-0.8317,0.0,0.0,0.0,0.0,0.0,0.0,0.0,0.0,0.0,0.0,0.0,0.0,0.0,0.0,0.0,0.0,0.0,0.0,0.0,0.0,0.0,0.0,-1.2871,-1.2881,-1.2881,-1.2881,-1.2881,-1.2881,-1.2881,-1.2881,-1.2881,-1.2881,-1.2881,-1.2881,-1.2881,-1.2881,-1.2881,-1.2822,0.0,-1.0813,-1.0712,-0.9361,-0.8804,-0.8838,-0.907,-0.9183,-0.92,-0.9345,-0.9525,-0.9487,-0.8313,-0.7302,-0.6433,-0.5911,-0.5283,-0.4782,-0.4711,-0.4582,-0.4519,-0.4519,-0.4519,-0.4519,-0.4519,-0.4519,-0.4519,-0.4519,-0.4519,-0.4519,-0.4519,-0.4519,-0.4519,-0.4519,-0.4519,-0.4519,-0.4525,-0.4128,-0.3962,-0.4428,-0.3299,-0.184,-0.0223,-0.0,-0.0,-0.0,-0.0,0.1233,0.4228,0.3713,0.3593,0.4438,0.4497,0.4497,0.4504,0.4504,0.3822,0.2469,0.0841,-0.0,-0.0,-0.0,-0.0,-0.0,-0.0,-0.0,-0.8485,-0.8711,-0.8855,-0.8454,-0.9275,-1.0122,-0.991,-0.9369,0.0,0.0,0.0,0.0,0.0,0.0,0.0,0.0,0.0,0.0,0.0,0.0,0.0,0.0,0.0,0.0,0.0,0.0,0.0,0.0,0.0,0.0,-1.2887,-1.2907,-1.2908,-1.2881,-1.2881,-1.2881,-1.2881,-1.2881,-1.2881,-1.2881,-1.2881,-1.2881,-1.2881,-1.2881,-1.2881,-1.2832,-1.1584,-1.0965,-1.072,-0.951,-0.8962,-0.8831,-0.9051,-0.9053,-0.8997,-0.8632,-0.8589,-0.8484,-0.7177,-0.6436,-0.6073,-0.5375,-0.5006,-0.4796,-0.4796,-0.4691,-0.4568,-0.4568,-0.4568,-0.4551,-0.4536,-0.4519,-0.4519,-0.4519,-0.4519,-0.4519,-0.4519,-0.4519,-0.4519,-0.4519,-0.4519,-0.4522,-0.4473,-0.4522,-0.4525,-0.449,-0.4487,-0.3691,-0.1341,-0.0447,-0.028,-0.0953,-0.1065,-0.0,0.2689,0.1845,0.1675,0.285,0.3244,0.3752,0.4445,0.4163,0.3825,0.3431,0.1177,-0.0,-0.0,-0.0,-0.0,-0.0,-0.0,-0.0,-0.8758,-0.8926,-0.9091,-0.9105,-0.8744,-0.8576,-0.9276,-0.8886,0.0,-0.9837,0.0,0.0,0.0,0.0,0.0,0.0,0.0,0.0,0.0,0.0,0.0,0.0,0.0,0.0,0.0,0.0,0.0,0.0,0.0,0.0,-1.2983,-1.3003,-1.2945,-1.292,-1.2881,-1.2881,-1.2881,-1.2881,-1.2881,-1.2881,-1.2881,-1.2881,-1.2881,-1.2881,-1.2881,-1.2881,-1.208,-1.1366,-1.0762,-1.0012,-0.9361,-0.8811,-0.8831,-0.8656,-0.8422,-0.796,-0.738,-0.685,-0.6719,-0.6133,-0.5477,-0.5411,-0.5233,-0.5098,-0.5098,-0.4999,-0.4887,-0.4887,-0.4887,-0.4819,-0.4591,-0.4519,-0.4519,-0.4519,-0.4519,-0.4519,-0.4519,-0.4519,-0.4519,-0.4519,-0.4519,-0.4519,-0.4519,-0.4519,-0.4522,-0.448,-0.449,-0.4442,-0.4225,-0.1737,-0.1065,-0.3899,-0.4176,-0.3482,-0.184,-0.1839,-0.1839,-0.1728,-0.0444,0.1557,0.4396,0.3135,0.1732,0.0336,0.0112,-0.0,-0.0,-0.0,-0.0,-0.0,-0.0,-0.0,-0.8357,-0.8667,-0.904,-0.9269,-0.9166,0.0,0.0,-1.0052,-1.0289,-1.0952,-1.1168,0.0,0.0,0.0,0.0,0.0,0.0,0.0,0.0,0.0,0.0,0.0,0.0,0.0,0.0,0.0,0.0,0.0,0.0,0.0,0.0,-1.3017,-1.3,-1.2955,-1.2916,-1.2881,-1.2881,-1.2881,-1.2881,-1.2881,-1.2881,-1.2881,-1.2881,-1.2452,-1.2236,-1.2138,-1.1023,-1.0415,-1.0115,-0.9465,-0.9008,-0.8844,-0.9212,-0.9061,-0.8558,-0.8059,-0.7366,-0.6719,-0.6719,-0.6461,-0.6203,-0.6203,-0.6088,-0.5821,-0.5255,-0.5033,-0.4901,-0.4802,-0.4775,-0.4752,-0.4633,-0.4606,-0.4579,-0.4539,-0.4519,-0.4519,-0.4519,-0.4519,-0.4519,-0.4519,-0.4522,-0.4473,-0.4473,-0.448,-0.4484,-0.449,-0.3694,-0.3416,-0.4396,-0.3482,-0.3256,-0.4402,-0.4511,-0.4271,-0.3697,-0.3641,-0.3644,-0.3649,-0.223,-0.128,-0.1118,0.0167,0.0559,-0.0,-0.0,-0.0,-0.0,-0.0,-0.0,-0.0,-0.0,-0.0,-0.798,-0.8259,-0.866,-0.895,0.0,0.0,-1.0532,-1.0926,-1.1382,-1.1976,-1.2115,0.0,0.0,0.0,0.0,0.0,0.0,0.0,0.0,0.0,0.0,0.0,0.0,0.0,0.0,0.0,0.0,0.0,0.0,0.0,0.0,-1.2891,-1.2869,-1.2986,-1.2782,-1.2744,-1.2881,-1.2881,-1.2881,-1.2881,-1.2881,-1.2881,-1.2881,-1.2138,-1.1814,-1.1765,-1.0618,-1.0012,-0.9762,-0.9316,-0.9008,-0.8798,-0.9023,-0.8924,-0.8575,-0.8007,-0.7516,-0.7111,-0.7111,-0.7111,-0.7046,-0.6785,-0.6634,-0.6345,-0.5456,-0.5135,-0.5036,-0.4931,-0.4901,-0.488,-0.4789,-0.4691,-0.4592,-0.4543,-0.4519,-0.4519,-0.4522,-0.4522,-0.4525,-0.4473,-0.448,-0.4369,-0.3858,-0.3749,-0.3928,-0.4445,-0.3621,-0.3362,-0.4649,-0.4801,-0.4747,-0.4646,-0.4531,-0.4497,-0.4497,-0.4497,-0.4501,-0.4507,-0.3077,-0.291,-0.4462,-0.2523,-0.0951,-0.0,-0.0,-0.0,-0.0,-0.0,-0.0,-0.0,-0.0,-0.0,-0.7695,-0.7768,-0.796,0.0,0.0,0.0,-1.1096,-1.1229,-1.1588,-1.2948,0.0,-1.3198,-1.3198,0.0,0.0,0.0,0.0,0.0,0.0,0.0,0.0,0.0,0.0,0.0,0.0,0.0,0.0,0.0,0.0,0.0,0.0,-1.2646,-1.2574,-1.301,-1.2483,-1.2441,-1.2881,-1.2881,-1.2881,-1.2881,-1.2881,-1.2881,-1.2881,-1.2129,-1.1814,-1.1765,-1.1065,-1.0415,-0.9814,-0.9814,-0.9413,-0.8752,-0.7996,-0.7979,-0.8299,-0.7586,-0.7578,-0.8027,-0.8027,-0.8027,-0.7827,-0.6981,-0.6719,-0.6527,-0.5686,-0.5425,-0.5425,-0.5422,-0.5422,-0.5287,-0.4992,-0.4691,-0.4519,-0.4519,-0.4519,-0.4522,-0.4477,-0.448,-0.4484,-0.4494,-0.4497,-0.4039,-0.2512,-0.2174,-0.2683,-0.4225,-0.4467,-0.4745,-0.5306,-0.5385,-0.5286,-0.4928,-0.4649,-0.4501,-0.4497,-0.4497,-0.4497,-0.4497,-0.3074,-0.2912,-0.4416,-0.4521,-0.3091,-0.0056,-0.0,-0.0,-0.0,-0.0,-0.0,-0.0,-0.0,-0.0,-0.8022,-0.8682,0.0,-0.941,0.0,0.0,0.0,-1.2803,0.0,0.0,0.0,0.0,0.0,0.0,0.0,0.0,0.0,0.0,0.0,0.0,0.0,0.0,0.0,0.0,0.0,0.0,0.0,0.0,0.0,0.0,0.0,-1.2993,-1.2941,-1.2989,-1.283,-1.2785,-1.2881,-1.2881,-1.2881,-1.2881,-1.2881,-1.2881,-1.2881,-1.1633,-1.1116,-1.1015,-0.9865,-0.9263,-0.9113,-0.9113,-0.8956,-0.8771,-0.8257,-0.8193,-0.8316,-0.7765,-0.7772,-0.8027,-0.8027,-0.8027,-0.7827,-0.6981,-0.6719,-0.6502,-0.5485,-0.5199,-0.5155,-0.4948,-0.4891,-0.4843,-0.465,-0.4535,-0.4473,-0.4473,-0.4473,-0.4477,-0.449,-0.3635,-0.2903,-0.2905,-0.3761,-0.4337,-0.3878,-0.2071,-0.079,-0.1273,-0.3517,-0.4747,-0.3645,-0.4432,-0.4999,-0.482,-0.3675,-0.2905,-0.2898,-0.2892,-0.333,-0.4458,-0.4051,-0.3996,-0.4462,-0.4514,-0.3091,-0.0056,-0.0,-0.0,-0.0,-0.0,-0.0,-0.0,-0.0,-0.0,-0.8612,-0.9172,0.0,0.0,0.0,0.0,-1.418,0.0,0.0,0.0,0.0,0.0,0.0,0.0,0.0,0.0,0.0,0.0,0.0,0.0,0.0,0.0,0.0,0.0,0.0,0.0,0.0,0.0,0.0,0.0,0.0,-1.2975,-1.2922,-1.3026,-1.2808,-1.2775,-1.2929,-1.2928,-1.2881,-1.2881,-1.2881,-1.2881,-1.2832,-1.1434,-1.0813,-1.072,-0.9361,-0.8804,-0.8804,-0.8804,-0.8804,-0.8771,-0.8505,-0.8565,-0.8698,-0.8381,-0.848,-0.8703,-0.8703,-0.8765,-0.8702,-0.7719,-0.7239,-0.6889,-0.577,-0.523,-0.5009,-0.483,-0.4782,-0.4748,-0.4592,-0.4558,-0.4548,-0.4494,-0.4027,-0.3749,-0.4386,-0.3761,-0.2742,-0.1564,-0.2073,-0.2707,-0.2687,-0.12,-0.0463,-0.1916,-0.2755,-0.3378,-0.3714,-0.4578,-0.5113,-0.5043,-0.3856,-0.2629,-0.1438,-0.1317,-0.2259,-0.4348,-0.4523,-0.3984,-0.2745,-0.2734,-0.185,-0.0056,-0.0,-0.0,-0.0,-0.0,-0.0,-0.0,-0.0,-0.0,-0.9359,0.0,0.0,0.0,0.0,0.0,0.0,0.0,0.0,0.0,0.0,0.0,0.0,0.0,0.0,0.0,0.0,0.0,0.0,0.0,0.0,0.0,0.0,0.0,0.0,0.0,0.0,0.0,0.0,0.0,0.0,-1.2803,-1.2734,-1.3094,-1.2633,-1.2561,-1.2996,-1.2939,-1.289,-1.2881,-1.2881,-1.2881,-1.2832,-1.1534,-1.0864,-1.0712,-0.951,-0.8962,-0.891,-0.891,-0.8857,-0.8804,-0.8752,-0.8931,-0.9183,-0.9128,-0.9369,-0.9679,-0.9621,-0.9735,-0.9779,-0.8616,-0.7969,-0.7424,-0.6379,-0.5551,-0.4955,-0.4941,-0.4937,-0.4847,-0.4707,-0.467,-0.464,-0.4511,-0.335,-0.2625,-0.3996,-0.4281,-0.3485,-0.0728,-0.0225,-0.0227,-0.0234,-0.0118,-0.1136,-0.4399,-0.2418,-0.1566,-0.4547,-0.5219,-0.542,-0.542,-0.4643,-0.2989,-0.0248,-0.0,-0.1177,-0.3915,-0.4103,-0.2849,-0.0123,-0.0,-0.0,-0.0,-0.0,-0.0,-0.0,-0.0,-0.0,-0.0,-0.0,-0.0,-0.9685,-1.0161,0.0,0.0,0.0,0.0,0.0,0.0,0.0,0.0,0.0,0.0,0.0,0.0,0.0,0.0,0.0,0.0,0.0,0.0,0.0,0.0,0.0,0.0,0.0,0.0,0.0,0.0,0.0,0.0,-1.3198,-1.3094,-1.307,-1.3094,-1.2981,-1.294,-1.2986,-1.2964,-1.2933,0.0,-1.2881,-1.2881,-1.2881,-1.1981,-1.1316,-1.0762,-1.0517,-1.0064,-0.9562,-0.9562,-0.9256,-0.8752,-0.8156,-0.8431,-0.9128,-0.8621,-0.8966,-0.9621,-0.8897,-0.8693,-0.861,-0.7671,-0.733,-0.7151,-0.6813,-0.6174,-0.557,-0.543,-0.5001,-0.4555,-0.4577,-0.4518,-0.4518,-0.4487,-0.3627,-0.2785,-0.2736,-0.2683,-0.2514,-0.1842,-0.194,-0.2095,-0.211,-0.0958,-0.0245,-0.1049,-0.2908,-0.3517,-0.1432,-0.3636,-0.5369,-0.5369,-0.2723,-0.0721,-0.0064,-0.0,-0.0253,-0.0928,-0.0988,-0.0679,-0.0,-0.0,-0.0,-0.0,-0.0,-0.0,-0.0,-0.0,-0.0,-0.0,-0.0,-0.0,0.0,0.0,0.0,0.0,0.0,0.0,0.0,0.0,0.0,0.0,0.0,0.0,0.0,0.0,0.0,0.0,0.0,0.0,0.0,0.0,0.0,0.0,0.0,0.0,0.0,0.0,0.0,0.0,0.0,-1.3835,-1.3835,-1.3648,-1.354,-1.3478,-1.3226,-1.3092,-1.3045,-1.3022,-1.2992,-1.2973,-1.2973,-1.2942,-1.2881,-1.2138,-1.1408,-1.0813,-1.0813,-1.0618,-1.0261,-1.0261,-1.0064,-0.971,-0.8974,-0.903,-0.9388,-0.8747,-0.8796,-0.921,-0.8745,-0.8658,-0.8681,-0.8101,-0.7801,-0.7564,-0.7327,-0.6754,-0.6063,-0.5626,-0.5273,-0.4893,-0.457,-0.4521,-0.4579,-0.4579,-0.4129,-0.3652,-0.354,-0.3496,-0.3514,-0.351,-0.3628,-0.3813,-0.3939,-0.1766,-0.0,-0.0,-0.1583,-0.2746,-0.2637,-0.2736,-0.2831,-0.2831,-0.1145,-0.0,-0.0,-0.0,-0.0,-0.0,-0.0,-0.0,-0.0,-0.0,-0.0,-0.0,-0.0,-0.0,-0.0,-0.0,-0.0,-0.0,-0.0,-0.0,0.0,0.0,0.0,0.0,0.0,0.0,0.0,0.0,0.0,0.0,0.0,0.0,0.0,0.0,0.0,0.0,0.0,0.0,0.0,0.0,0.0,0.0,0.0,0.0,0.0,0.0,0.0,0.0,0.0,-1.4501,-1.4501,-1.4117,-1.3901,-1.3901,-1.3408,-1.3099,-1.3106,-1.3043,-1.2997,-1.3015,-1.3089,-1.3155,-1.32,-1.2472,-1.1765,-1.1174,-1.1174,-1.1074,-1.0965,-1.0965,-1.0914,-1.0762,-1.0167,-0.9961,-0.9917,-0.9211,-0.8956,-0.8956,-0.8857,-0.8965,-0.907,-0.8884,-0.8587,-0.8226,-0.7842,-0.7182,-0.6421,-0.5706,-0.5454,-0.5207,-0.4664,-0.4616,-0.4728,-0.4728,-0.4646,-0.4606,-0.4852,-0.488,-0.4918,-0.4925,-0.4907,-0.4912,-0.4942,-0.2722,-0.074,-0.0067,-0.0,-0.1078,-0.4048,-0.1885,-0.0,-0.0,-0.0,-0.0,-0.0,-0.0,-0.0,-0.0,-0.0,-0.0,-0.0,-0.0,-0.0,-0.0,-0.0,-0.0,-0.0,-0.0,-0.0,-0.0,-0.0,-0.0,0.0,0.0,0.0,0.0,0.0,0.0,0.0,0.0,0.0,0.0,0.0,0.0,0.0,0.0,0.0,0.0,0.0,0.0,0.0,0.0,0.0,0.0,0.0,0.0,0.0,0.0,0.0,0.0,-1.469,-1.4501,-1.4501,-1.4117,-1.3901,-1.3901,-1.3454,-1.3155,-1.3106,-1.31,-1.3066,-1.3017,-1.3542,-1.4005,-1.4433,-1.3815,-1.3208,-1.2618,-1.2618,-1.2246,-1.1665,-1.1665,-1.1316,-1.0813,-1.0712,-1.0669,-1.0568,-0.9909,-0.9666,-0.9562,-0.9008,-0.8831,-0.8858,-0.8818,-0.8778,-0.8585,-0.7895,-0.7182,-0.6421,-0.5706,-0.5166,-0.4772,-0.4718,-0.4772,-0.4891,-0.4891,-0.4874,-0.4867,-0.4891,-0.4894,-0.4901,-0.4918,-0.4967,-0.4647,-0.3317,-0.3961,-0.3641,-0.0471,-0.0,-0.0202,-0.0674,-0.027,-0.0,-0.0,-0.0,-0.0,-0.0,-0.0,-0.0,-0.0,-0.0,-0.0,-0.0,-0.0,-0.0,-0.0,-0.0,-0.0,-0.0,-0.0,-0.0,-0.0,-0.0,-0.0,-1.0032,-1.022,-1.0788,0.0,0.0,0.0,0.0,0.0,0.0,0.0,0.0,0.0,0.0,0.0,0.0,0.0,0.0,0.0,0.0,0.0,0.0,0.0,0.0,0.0,0.0,0.0,0.0,0.0,-1.5419,-1.5225,-1.5225,-1.4596,-1.4246,-1.4246,-1.3547,-1.3206,-1.3179,-1.3179,-1.3128,-1.3054,-1.3642,-1.4038,-1.4261,-1.4301,-1.3967,-1.3372,-1.3065,-1.2725,-1.2403,-1.2403,-1.2246,-1.195,-1.1525,-1.1366,-1.1216,-1.0167,-0.9814,-0.9718,-0.9008,-0.8804,-0.8804,-0.8804,-0.8804,-0.8752,-0.8427,-0.8207,-0.7935,-0.7207,-0.6578,-0.6041,-0.5632,-0.5282,-0.5036,-0.5036,-0.5104,-0.5165,-0.5165,-0.5098,-0.5064,-0.5152,-0.5226,-0.4695,-0.3006,-0.2547,-0.1813,-0.0269,-0.0,-0.0,-0.0,-0.0,-0.0,-0.0,-0.0,-0.0,-0.0,-0.0,-0.0,-0.0,-0.0,-0.0,-0.0,-0.0,-0.0,-0.0,-0.0,-0.0,-0.0,-0.0,-0.0,-0.0,-0.0,-0.0,-1.0315,-1.0013,-0.9967,-1.1804,0.0,0.0,0.0,0.0,0.0,0.0,0.0,0.0,0.0,0.0,0.0,0.0,0.0,0.0,0.0,0.0,0.0,0.0,0.0,0.0,0.0,0.0,0.0,0.0,-1.5926,-1.5799,-1.5799,-1.4968,-1.4501,-1.4501,-1.3648,-1.3198,-1.3198,-1.3198,-1.3249,-1.3356,-1.3772,-1.4105,-1.437,-1.4618,-1.4529,-1.4226,-1.3467,-1.3065,-1.2881,-1.2881,-1.2881,-1.2832,-1.2295,-1.208,-1.1931,-1.0771,-1.0218,-0.9961,-0.9263,-0.8962,-0.8804,-0.8804,-0.8804,-0.8752,-0.8586,-0.8682,-0.8699,-0.8093,-0.7649,-0.7181,-0.6699,-0.6187,-0.5818,-0.5818,-0.5982,-0.5947,-0.5491,-0.527,-0.5223,-0.5338,-0.5369,-0.497,-0.3618,-0.1472,-0.0,-0.0,-0.0,-0.0,-0.0,-0.0,-0.0,-0.0,-0.0,-0.0,-0.0,-0.0,-0.0,-0.0,-0.0,-0.0,-0.0,-0.0,-0.0,-0.0,-0.0,-0.0,-0.0,-0.0,-0.0,-0.0,-0.0,-0.0,-0.9717,-0.9913,0.0,-1.0882,0.0,0.0,0.0,0.0,0.0,0.0,0.0,0.0,0.0,0.0,0.0,0.0,0.0,0.0,0.0,0.0,0.0,0.0,0.0,0.0,0.0,0.0,0.0,0.0,-1.5799,-1.5799,-1.5799,-1.4968,-1.4501,-1.4501,-1.3648,-1.3198,-1.3198,-1.3198,-1.3473,-1.4048,-1.4062,-1.46,-1.5611,-1.5043,-1.5061,-1.5454,-1.4272,-1.342,-1.2881,-1.2881,-1.2881,-1.2881,-1.2881,-1.2822,-1.2774,-1.1981,-1.1316,-1.0661,-0.9961,-0.9309,-0.8804,-0.8804,-0.8804,-0.8646,-0.7996,-0.7783,-0.7686,-0.7253,-0.7244,-0.7335,-0.7542,-0.7706,-0.7877,-0.7877,-0.7887,-0.7442,-0.5752,-0.5422,-0.5418,-0.5425,-0.5369,-0.5379,-0.5309,-0.2342,-0.0,-0.0,-0.0,-0.0,-0.0,-0.0,-0.0,-0.0,-0.0,-0.0,-0.0,-0.0,-0.0,-0.0,-0.0,-0.0,-0.0,-0.0,-0.0,-0.0,-0.0,-0.0,-0.0,-0.0,-0.0,-0.0,-0.0,-0.0,-0.9678,-0.9491,0.0,0.0,0.0,0.0,0.0,0.0,0.0,0.0,0.0,0.0,0.0,0.0,0.0,0.0,0.0,0.0,0.0,0.0,0.0,0.0,0.0,0.0,0.0,0.0,0.0,0.0,0.0,-1.5799,-1.5799,-1.4968,-1.4501,-1.4501,-1.3648,-1.3198,-1.3198,-1.3198,-1.3298,-1.3534,-1.3909,-1.4286,-1.4702,-1.5166,-1.5283,-1.5093,-1.5002,-1.4595,-1.4071,-1.4071,-1.4071,-1.4025,-1.3647,-1.3457,-1.3362,-1.2209,-1.1665,-1.1366,-1.0661,-1.0261,-1.0064,-1.0064,-1.0064,-0.9961,-0.9235,-0.9302,-0.9527,-0.8902,-0.8663,-0.8629,-0.8719,-0.8356,-0.8027,-0.8027,-0.8027,-0.7832,-0.7181,-0.621,-0.5428,-0.5428,-0.5432,-0.5369,-0.5376,-0.4292,-0.308,-0.194,-0.1742,-0.1341,-0.0134,-0.0,-0.0,-0.0,-0.0,-0.0,-0.0,-0.0,-0.0,-0.0,-0.0,-0.0,-0.0,-0.0,-0.0,-0.0,-0.0,-0.0,-0.0,-0.0,-0.0,-0.0,-0.0,-0.0,-0.9829,-0.9532,0.0,0.0,0.0,0.0,0.0,0.0,0.0,0.0,0.0,0.0,0.0,0.0,0.0,0.0,0.0,0.0,0.0,0.0,0.0,0.0,0.0,0.0,0.0,0.0,0.0,0.0,0.0,0.0,-1.5799,-1.4968,-1.4374,-1.4052,-1.348,-1.3198,-1.3198,-1.3198,-1.3198,-1.3198,-1.3609,-1.3909,-1.411,-1.484,-1.5141,-1.5127,-1.5496,-1.5301,-1.4698,-1.4698,-1.4698,-1.4663,-1.4283,-1.4097,-1.3946,-1.288,-1.2346,-1.2052,-1.1366,-1.0965,-1.0813,-1.0813,-1.0813,-1.0712,-1.0261,-1.0508,-1.0867,-1.0543,-1.0418,-1.0401,-1.0494,-0.9939,-0.9233,-0.893,-0.8672,-0.842,-0.842,-0.7316,-0.6276,-0.6276,-0.6276,-0.621,-0.5892,-0.5561,-0.5024,-0.3818,-0.362,-0.3151,-0.1942,-0.0737,-0.0,-0.0,-0.1076,-0.1818,-0.1818,-0.1278,-0.0874,-0.0874,-0.0336,-0.0,-0.0,-0.0,-0.0,-0.0,-0.0,-0.0,-0.0,-0.0,-0.0,-0.0,-0.0,-0.0,0.0,0.0,0.0,0.0,0.0,0.0,0.0,0.0,0.0,0.0,0.0,0.0,0.0,0.0,0.0,0.0,0.0,0.0,0.0,0.0,0.0,0.0,0.0,0.0,0.0,0.0,0.0,0.0,-1.5983,-1.5799,-1.5799,-1.4968,-1.4117,-1.3267,-1.3198,-1.3198,-1.3198,-1.3198,-1.3198,-1.3198,-1.3198,-1.3509,-1.406,-1.4072,-1.4676,-1.5643,-1.568,-1.5338,-1.4721,-1.4744,-1.4744,-1.4744,-1.4744,-1.4744,-1.4652,-1.405,-1.3416,-1.2773,-1.2101,-1.1458,-1.0914,-1.0914,-1.0914,-1.0864,-1.0864,-1.1181,-1.1609,-1.185,-1.224,-1.2689,-1.2918,-1.2389,-1.1586,-1.08,-0.9983,-0.9338,-0.9338,-0.8678,-0.8091,-0.8027,-0.8027,-0.7697,-0.6915,-0.599,-0.547,-0.5439,-0.5389,-0.5393,-0.5396,-0.2345,-0.0134,-0.0067,-0.3226,-0.5343,-0.5413,-0.3763,-0.2811,-0.2811,-0.1138,-0.0134,-0.0,-0.0,-0.0,-0.0,-0.0,-0.0,-0.0,-0.0,-0.0,-0.0,-0.0,-0.0,-1.0048,0.0,0.0,0.0,0.0,0.0,0.0,0.0,0.0,0.0,0.0,0.0,0.0,0.0,0.0,0.0,0.0,0.0,0.0,0.0,0.0,0.0,0.0,0.0,0.0,0.0,0.0,0.0,-1.6136,-1.5799,-1.5799,-1.4968,-1.4246,-1.3702,-1.3391,-1.3198,-1.3198,-1.3198,-1.3198,-1.3198,-1.3198,-1.3286,-1.3471,-1.3909,-1.4249,-1.4588,-1.5341,-1.5604,-1.5471,-1.5862,-1.602,-1.5976,-1.5511,-1.5365,-1.5231,-1.4179,-1.3946,-1.4075,-1.3464,-1.3406,-1.3538,-1.312,-1.2976,-1.2783,-1.1805,-1.1991,-1.2445,-1.2036,-1.2365,-1.2764,-1.2243,-1.1958,-1.1586,-1.08,-1.0434,-1.0238,-1.0238,-1.004,-0.9518,-0.8221,-0.8027,-0.7897,-0.7697,-0.6911,-0.6322,-0.6334,-0.5826,-0.5372,-0.5382,-0.4498,-0.3416,-0.2074,-0.2882,-0.3964,-0.5262,-0.4919,-0.4643,-0.4643,-0.4172,-0.2753,-0.0134,-0.0,-0.0,-0.0,-0.0,-0.0,-0.0,-0.0,-0.0,-0.0,-0.0,-0.0,-1.0157,-0.9976,-0.9975,0.0,0.0,0.0,0.0,-1.1015,0.0,0.0,0.0,0.0,0.0,0.0,0.0,0.0,0.0,0.0,0.0,0.0,0.0,0.0,0.0,0.0,0.0,-1.7313,-1.7002,-1.7002,-1.6394,-1.587,-1.5551,-1.5043,-1.4564,-1.4149,-1.3868,-1.3735,-1.3735,-1.3735,-1.3735,-1.3735,-1.3735,-1.3648,-1.3493,-1.3861,-1.4037,-1.4135,-1.5016,-1.548,-1.5731,-1.6283,-1.6522,-1.6466,-1.6095,-1.5964,-1.5864,-1.4903,-1.4778,-1.5005,-1.4376,-1.4422,-1.4652,-1.4283,-1.4003,-1.3674,-1.289,-1.3001,-1.3304,-1.2905,-1.3411,-1.3726,-1.2626,-1.2328,-1.202,-1.0863,-1.0624,-1.0624,-1.0624,-1.0624,-1.0301,-0.9256,-0.9064,-0.9,-0.8613,-0.8091,-0.7567,-0.6785,-0.6268,-0.5818,-0.5435,-0.5376,-0.497,-0.3954,-0.382,-0.4228,-0.5319,-0.5382,-0.5382,-0.5382,-0.5393,-0.4236,-0.1605,-0.1274,-0.1141,-0.1141,-0.1141,-0.1141,-0.1142,-0.0337,-0.0,-0.0,-0.0,-0.0,-1.0598,-1.0292,-1.0326,-1.0954,-1.0536,0.0,-1.0485,-1.0522,0.0,0.0,0.0,0.0,0.0,0.0,0.0,0.0,0.0,0.0,0.0,0.0,0.0,0.0,0.0,0.0,0.0,-1.7502,-1.7296,-1.7296,-1.667,-1.5981,-1.5225,-1.5134,-1.4937,-1.4596,-1.4533,-1.4501,-1.4501,-1.4501,-1.4501,-1.4501,-1.4438,-1.4246,-1.3901,-1.3835,-1.3887,-1.4022,-1.4576,-1.513,-1.5643,-1.6195,-1.6459,-1.6522,-1.6522,-1.6522,-1.6423,-1.582,-1.5632,-1.5588,-1.5017,-1.4835,-1.488,-1.4835,-1.4376,-1.3909,-1.3815,-1.3901,-1.4029,-1.4126,-1.4795,-1.505,-1.3425,-1.3009,-1.2581,-1.0989,-1.0624,-1.0624,-1.0624,-1.0624,-1.0624,-1.0624,-1.0624,-1.0364,-0.9594,-0.9338,-0.8748,-0.7242,-0.6915,-0.6593,-0.5818,-0.5697,-0.5704,-0.5704,-0.5572,-0.5572,-0.5572,-0.5432,-0.5428,-0.5428,-0.5372,-0.49,-0.3813,-0.328,-0.3013,-0.3013,-0.3013,-0.3013,-0.3013,-0.1209,-0.0269,-0.0269,-0.0269,-0.0269,-1.2232,-1.2057,-1.1798,-1.1295,0.0,0.0,-1.017,-1.0366,0.0,0.0,0.0,0.0,0.0,0.0,0.0,0.0,0.0,0.0,0.0,0.0,0.0,0.0,0.0,0.0,0.0,-1.7502,-1.7296,-1.7296,-1.667,-1.6108,-1.5697,-1.5329,-1.5074,-1.4982,-1.4658,-1.4501,-1.4501,-1.4501,-1.4501,-1.4501,-1.4181,-1.4,-1.3901,-1.3514,-1.3352,-1.3421,-1.4009,-1.4563,-1.5117,-1.563,-1.612,-1.6522,-1.6522,-1.6522,-1.6423,-1.582,-1.5908,-1.6238,-1.5632,-1.5732,-1.6064,-1.5588,-1.5017,-1.4422,-1.3956,-1.3689,-1.3769,-1.4463,-1.5019,-1.505,-1.3425,-1.3009,-1.2581,-1.0989,-1.0624,-1.0624,-1.0624,-1.0624,-1.0624,-1.0624,-1.0624,-1.0561,-1.0364,-0.9786,-0.9204,-0.8812,-0.8221,-0.7702,-0.7507,-0.7512,-0.7512,-0.7512,-0.6859,-0.6465,-0.6465,-0.5818,-0.5428,-0.5428,-0.5372,-0.5309,-0.5036,-0.4909,-0.4846,-0.4846,-0.4846,-0.4846,-0.4846,-0.3086,-0.2144,-0.2144,-0.2144,-0.2144,-1.2815,-1.2577,-1.235,-1.1913,0.0,0.0,0.0,0.0,-1.033,0.0,0.0,0.0,0.0,0.0,0.0,0.0,0.0,0.0,0.0,0.0,0.0,0.0,0.0,0.0,-1.7253,-1.744,-1.7479,-1.732,-1.667,-1.6219,-1.6067,-1.5653,-1.5448,-1.5448,-1.5255,-1.5165,-1.5165,-1.5165,-1.5165,-1.5134,-1.4721,-1.4406,-1.4181,-1.3735,-1.3425,-1.3223,-1.3846,-1.4236,-1.4563,-1.5354,-1.5856,-1.6132,-1.6409,-1.6522,-1.6466,-1.6151,-1.6238,-1.6479,-1.6139,-1.6238,-1.6466,-1.6151,-1.5421,-1.4652,-1.4329,-1.3921,-1.3691,-1.4541,-1.4941,-1.4792,-1.3382,-1.3009,-1.2581,-1.0989,-1.0624,-1.0624,-1.0624,-1.0624,-1.0624,-1.0624,-1.0624,-1.0624,-1.0624,-1.0238,-0.9786,-0.9338,-0.8947,-0.8484,-0.8027,-0.8027,-0.8027,-0.8027,-0.7632,-0.7372,-0.7372,-0.692,-0.6728,-0.6728,-0.6671,-0.6675,-0.6675,-0.6679,-0.6683,-0.6683,-0.6292,-0.6028,-0.6028,-0.4686,-0.402,-0.4028,-0.4028,-0.4028,0.0,0.0,0.0,0.0,0.0,-1.1575,0.0,0.0,0.0,-1.0404,0.0,0.0,0.0,0.0,0.0,0.0,0.0,0.0,0.0,0.0,0.0,0.0,0.0,0.0,0.0,-1.6982,-1.7182,-1.7089,-1.6479,-1.6166,-1.6378,-1.6095,-1.5913,-1.5913,-1.5827,-1.5799,-1.5799,-1.5799,-1.5741,-1.5668,-1.5195,-1.4783,-1.4374,-1.4052,-1.3682,-1.3348,-1.3932,-1.4223,-1.4403,-1.5428,-1.5822,-1.5866,-1.6296,-1.6522,-1.6522,-1.6522,-1.6522,-1.6522,-1.6522,-1.6522,-1.6466,-1.638,-1.5511,-1.4514,-1.4387,-1.3969,-1.3672,-1.4443,-1.4717,-1.4535,-1.3511,-1.3243,-1.2879,-1.1421,-1.1052,-1.1052,-1.1052,-1.1052,-1.1052,-1.1052,-1.0926,-1.0807,-1.0624,-1.0624,-1.0364,-0.9658,-0.953,-0.9268,-0.8608,-0.8479,-0.8479,-0.8479,-0.835,-0.8221,-0.8221,-0.8091,-0.8027,-0.8027,-0.8027,-0.8027,-0.8027,-0.8027,-0.8027,-0.8027,-0.7307,-0.6981,-0.6981,-0.6272,-0.5697,-0.5389,-0.5389,-0.5389,0.0,0.0,0.0,0.0,-1.3974,0.0,0.0,0.0,-1.0564,-0.9932,0.0,0.0,0.0,0.0,0.0,0.0,0.0,0.0,0.0,0.0,0.0,0.0,0.0,0.0,0.0,-1.5575,-1.5469,-1.6258,-1.5637,-1.5674,-1.67,-1.6421,-1.6246,-1.6246,-1.5955,-1.5799,-1.5799,-1.5799,-1.558,-1.5165,-1.4752,-1.4374,-1.3967,-1.3934,-1.3868,-1.3835,-1.4281,-1.4705,-1.5216,-1.5954,-1.6244,-1.6243,-1.6422,-1.6522,-1.6522,-1.6522,-1.6522,-1.6522,-1.6522,-1.6522,-1.6423,-1.5864,-1.4915,-1.3779,-1.3296,-1.3273,-1.3603,-1.4072,-1.4492,-1.4704,-1.4164,-1.4085,-1.3846,-1.2948,-1.2704,-1.2704,-1.2704,-1.2704,-1.2704,-1.2704,-1.2143,-1.1469,-1.0744,-1.0624,-1.0561,-1.0498,-1.0434,-1.0428,-1.0301,-1.0301,-1.0301,-1.0301,-0.9588,-0.9139,-0.9139,-0.842,-0.8027,-0.8027,-0.8027,-0.8027,-0.8027,-0.8027,-0.8027,-0.8027,-0.7897,-0.7827,-0.7827,-0.7767,-0.6924,-0.5432,-0.5432,-0.5432,0.0,0.0,0.0,0.0,0.0,0.0,-1.1103,0.0,-1.0309,0.0,0.0,0.0,0.0,0.0,0.0,0.0,0.0,0.0,0.0,0.0,0.0,0.0,0.0,0.0,0.0,0.0,0.0,0.0,-1.519,-1.5289,-1.6402,-1.654,-1.6501,-1.6301,-1.6163,-1.6011,-1.5799,-1.5799,-1.5712,-1.5507,-1.5074,-1.4752,-1.4596,-1.4342,-1.4246,-1.4246,-1.4438,-1.4639,-1.491,-1.591,-1.6122,-1.593,-1.6684,-1.6752,-1.6522,-1.6522,-1.6522,-1.6522,-1.6522,-1.6281,-1.582,-1.4869,-1.4226,-1.3684,-1.3055,-1.3008,-1.3281,-1.3945,-1.4268,-1.433,-1.4227,-1.4213,-1.4025,-1.3183,-1.3009,-1.3009,-1.3009,-1.3009,-1.3009,-1.3009,-1.2757,-1.2389,-1.2027,-1.124,-1.0624,-1.0624,-1.0624,-1.0624,-1.0624,-1.0624,-1.0624,-1.0624,-1.0301,-1.0047,-1.0047,-0.9716,-0.9518,-0.9518,-0.9518,-0.9518,-0.9518,-0.9663,-0.9741,-0.9741,-0.9426,-0.9231,-0.9231,-0.8685,-0.774,-0.636,-0.6254,-0.5881,-1.7058,0.0,0.0,0.0,0.0,0.0,0.0,0.0,0.0,0.0,0.0,0.0,0.0,0.0,0.0,0.0,0.0,0.0,0.0,0.0,0.0,0.0,0.0,0.0,0.0,0.0,0.0,0.0,0.0,-1.4679,-1.6249,-1.6523,-1.6607,-1.6591,-1.6394,-1.6191,-1.5926,-1.5856,-1.5741,-1.561,-1.5255,-1.5043,-1.4937,-1.4752,-1.4658,-1.4658,-1.4783,-1.4783,-1.4756,-1.5971,-1.6082,-1.5627,-1.6823,-1.6951,-1.6522,-1.6522,-1.6522,-1.6522,-1.6522,-1.6095,-1.5454,-1.4595,-1.4179,-1.3956,-1.3515,-1.3522,-1.3767,-1.449,-1.4626,-1.4627,-1.4782,-1.4678,-1.4392,-1.3786,-1.3666,-1.3666,-1.3666,-1.3666,-1.3666,-1.3666,-1.3485,-1.3312,-1.3312,-1.2151,-1.1233,-1.1233,-1.1233,-1.1233,-1.1233,-1.1052,-1.0926,-1.0926,-1.0744,-1.0624,-1.0624,-1.0624,-1.0624,-1.0624,-1.0698,-1.0681,-1.0681,-1.0955,-1.1109,-1.1109,-1.0697,-1.0453,-1.0447,-0.9811,-0.8816,-0.7495,-0.7024,-0.6316,0.0,0.0,0.0,-1.5824,0.0,0.0,0.0,0.0,-1.2096,0.0,0.0,0.0,0.0,0.0,-1.2077,-1.1327,-1.1147,0.0,0.0,0.0,0.0,0.0,0.0,0.0,0.0,0.0,0.0,0.0,0.0,0.0,-1.6525,-1.6392,-1.6541,-1.7256,-1.6644,-1.6301,-1.6301,-1.5955,-1.558,-1.5134,-1.5104,-1.4907,-1.4533,-1.4907,-1.5074,-1.5104,-1.5551,-1.5507,-1.516,-1.6389,-1.6332,-1.5627,-1.6823,-1.6951,-1.6522,-1.6522,-1.6522,-1.6522,-1.6522,-1.6095,-1.5576,-1.5531,-1.5141,-1.4652,-1.4663,-1.4987,-1.5527,-1.5992,-1.5994,-1.592,-1.63,-1.5921,-1.5352,-1.5352,-1.5294,-1.5294,-1.5294,-1.5294,-1.5294,-1.5294,-1.4688,-1.4154,-1.4154,-1.3485,-1.2948,-1.2948,-1.2948,-1.2948,-1.2948,-1.2266,-1.1772,-1.1772,-1.1045,-1.0624,-1.0624,-1.0624,-1.0624,-1.0624,-1.0822,-1.0982,-1.0982,-1.1256,-1.141,-1.141,-1.1354,-1.1354,-1.1354,-1.1354,-1.0372,-0.8544,-0.7569,-0.6507,0.0,0.0,-1.8645,-1.7215,0.0,0.0,0.0,0.0,0.0,0.0,0.0,0.0,0.0,0.0,-1.2376,-1.211,-1.1597,-1.1105,0.0,0.0,0.0,0.0,0.0,0.0,0.0,0.0,0.0,0.0,-1.2504,0.0,0.0,-1.6071,-1.6542,-1.6565,-1.6832,-1.685,-1.6633,-1.6528,-1.6378,-1.6227,-1.5994,-1.5824,-1.5695,-1.5595,-1.5551,-1.558,-1.5741,-1.5551,-1.519,-1.6389,-1.6332,-1.5627,-1.6823,-1.6951,-1.6522,-1.6522,-1.6522,-1.6423,-1.6051,-1.5776,-1.5543,-1.5141,-1.488,-1.4698,-1.4698,-1.5092,-1.5586,-1.6092,-1.6432,-1.6697,-1.7126,-1.7024,-1.6856,-1.6856,-1.6856,-1.6743,-1.6255,-1.6151,-1.5979,-1.5468,-1.5167,-1.4991,-1.4991,-1.4756,-1.4213,-1.3191,-1.3009,-1.3009,-1.3009,-1.2757,-1.2573,-1.2573,-1.2336,-1.1965,-1.1469,-1.0926,-1.0624,-1.0624,-1.0835,-1.0995,-1.0995,-1.1456,-1.1717,-1.1717,-1.1911,-1.2004,-1.2004,-1.2004,-1.0959,-0.8913,-0.8473,-0.7229,-1.9458,-1.9556,0.0,-1.807,-1.6967,0.0,-1.3623,0.0,0.0,0.0,0.0,0.0,0.0,0.0,-1.3365,-1.3059,-1.2276,-1.1493,0.0,-1.0244,0.0,0.0,0.0,0.0,0.0,0.0,-1.0798,-1.2398,0.0,0.0,0.0,0.0,-1.6324,-1.6381,-1.6964,-1.7199,-1.6977,-1.6866,-1.6738,-1.6607,-1.6394,-1.6246,-1.6108,-1.5898,-1.5799,-1.5799,-1.5799,-1.5669,-1.5538,-1.6508,-1.6506,-1.5954,-1.6942,-1.6951,-1.6522,-1.6522,-1.6522,-1.6423,-1.6051,-1.5908,-1.5876,-1.5466,-1.5344,-1.5367,-1.5611,-1.6021,-1.6537,-1.7064,-1.7363,-1.7668,-1.7924,-1.7797,-1.7578,-1.7578,-1.7578,-1.7468,-1.6978,-1.6866,-1.6754,-1.6244,-1.5968,-1.5806,-1.5806,-1.5584,-1.505,-1.4034,-1.3846,-1.3846,-1.3846,-1.3606,-1.3433,-1.3433,-1.33,-1.3005,-1.2508,-1.1816,-1.1332,-1.1149,-1.1274,-1.1303,-1.1303,-1.1764,-1.2024,-1.2024,-1.2204,-1.2305,-1.2305,-1.2305,-1.1384,-0.9658,-0.9129,-0.7915]},{"header":{"parameterUnit":"m.s-1","parameterCategory":1,"la1":30.6,"la2":29.2853,"lo1":-89.7004,"lo2":-87.6739,"dy":0.0162,"dx":0.0183,"nx":112,"ny":82,"refTime":"2026-04-25T00:00:00:Z","depth":0,"parameterNumber":3,"parameterNumberName":"V-component_of_WINDS"},"data":[0.0,0.0,0.0,0.0,0.0,0.0,0.0,0.0,0.0,0.0,0.0,0.0,0.0,0.0,0.0,0.0,0.0,0.0,0.0,0.0,0.0,0.0,0.0,0.0,0.0,0.0,0.0,0.0,0.0,0.0,0.0,0.0,0.0,0.0,0.0,0.0,0.0,0.0,0.0,0.0,0.0,0.0,0.0,0.0,0.0,0.0,0.0,0.0,0.0,0.0,0.0,0.0,0.0,0.0,0.0,0.0,0.0,0.0,0.0,0.0,0.0,0.0,0.0,0.0,0.0,0.0,0.0,0.0,0.0,0.0,0.0,0.0,0.0,0.0,0.0,0.0,0.0,0.0,0.0,0.0,0.0,0.0,0.0,0.0,0.0,0.0,0.0,0.0,0.0,0.0,0.0,-0.9465,-0.9917,-1.007,-0.9947,-0.9242,-0.8552,-0.7912,0.0,0.0,0.0,0.0,0.0,0.0,0.0,0.0,0.0,0.0,0.0,0.0,0.0,0.0,0.0,0.0,0.0,0.0,0.0,0.0,0.0,0.0,0.0,0.0,0.0,0.0,0.0,0.0,0.0,0.0,0.0,0.0,0.0,0.0,0.0,0.0,0.0,0.0,0.0,0.0,0.0,0.0,0.0,0.0,0.0,0.0,0.0,0.0,0.0,0.0,0.0,0.0,0.0,0.0,0.0,0.0,0.0,0.0,0.0,0.0,0.0,0.0,0.0,0.0,0.0,0.0,0.0,0.0,0.0,0.0,0.0,0.0,0.0,0.0,0.0,0.0,0.0,0.0,0.0,0.0,0.0,0.0,0.0,0.0,0.0,0.0,0.0,0.0,0.0,0.0,0.0,0.0,0.0,0.0,0.0,0.0,0.0,0.0,0.0,0.0,0.0,0.0,0.0,0.0,-0.862,-1.0314,-1.1646,-1.1782,-1.0278,-1.0174,-0.9622,-0.8306,0.0,0.0,0.0,0.0,0.0,0.0,0.0,0.0,0.0,0.0,0.0,0.0,0.0,0.0,0.0,0.0,0.0,0.0,0.0,0.0,0.0,0.0,0.0,0.0,0.0,0.0,0.0,0.0,0.0,0.0,0.0,0.0,0.0,0.0,0.0,0.0,0.0,0.0,0.0,0.0,0.0,0.0,0.0,0.0,0.0,0.0,0.0,0.0,0.0,0.0,0.0,0.0,0.0,0.0,0.0,0.0,0.0,0.0,0.0,0.0,0.0,0.0,0.0,0.0,0.0,0.0,0.0,0.0,0.0,0.0,0.0,0.0,0.0,0.0,0.0,0.0,0.0,0.0,0.0,0.0,0.0,0.0,0.0,0.0,0.0,0.0,0.0,0.0,0.0,0.0,0.0,0.0,0.0,0.0,0.0,0.0,0.0,0.0,0.0,0.0,0.0,0.0,0.0,-0.9441,-1.0348,-1.1114,-1.2423,-1.2722,-1.1447,-1.0925,-1.0225,-0.9183,-0.8987,0.0,0.0,0.0,0.0,0.0,0.0,0.0,0.0,0.0,0.0,0.0,0.0,0.0,0.0,0.0,0.0,0.0,0.0,0.0,0.0,0.0,0.0,0.0,0.0,0.0,0.0,0.0,0.0,0.0,0.0,0.0,0.0,0.0,0.0,0.0,0.0,0.0,0.0,0.0,0.0,0.0,0.0,0.0,0.0,0.0,0.0,0.0,0.0,0.0,0.0,0.0,0.0,0.0,0.0,0.0,0.0,0.0,0.0,0.0,0.0,0.0,0.0,0.0,0.0,0.0,0.0,0.0,0.0,0.0,0.0,0.0,0.0,0.0,0.0,0.0,0.0,0.0,0.0,0.0,0.0,0.0,0.0,0.0,0.0,0.0,0.0,0.0,0.0,0.0,0.0,0.0,0.0,0.0,0.0,0.0,0.0,0.0,0.0,0.0,0.0,0.0,0.0,-1.1113,-1.1891,-1.1943,-1.2961,-1.334,-1.2483,-1.1508,-1.0659,-0.9961,-0.9378,0.0,0.0,0.0,0.0,0.0,0.0,0.0,0.0,0.0,0.0,0.0,0.0,0.0,0.0,0.0,0.0,0.0,0.0,0.0,0.0,0.0,0.0,0.0,0.0,0.0,0.0,0.0,0.0,0.0,0.0,0.0,0.0,0.0,0.0,0.0,0.0,0.0,0.0,0.0,0.0,0.0,0.0,0.0,0.0,0.0,0.0,0.0,0.0,0.0,0.0,0.0,0.0,0.0,0.0,0.0,0.0,0.0,0.0,0.0,0.0,0.0,0.0,0.0,0.0,0.0,0.0,0.0,0.0,0.0,0.0,0.0,0.0,0.0,0.0,0.0,0.0,0.0,0.0,0.0,0.0,0.0,0.0,0.0,0.0,0.0,0.0,0.0,0.0,0.0,0.0,0.0,0.0,0.0,0.0,0.0,0.0,0.0,0.0,0.0,0.0,0.0,0.0,-1.1687,-1.2363,-1.2859,-1.364,-1.3756,-1.2846,-1.1899,-1.1043,-1.0308,-0.9648,0.0,0.0,0.0,0.0,0.0,0.0,0.0,0.0,0.0,0.0,0.0,0.0,0.0,0.0,0.0,0.0,0.0,0.0,0.0,0.0,0.0,0.0,0.0,0.0,0.0,0.0,0.0,0.0,0.0,0.0,0.0,0.0,0.0,0.0,0.0,0.0,0.0,0.0,0.0,0.0,0.0,0.0,0.0,0.0,0.0,0.0,0.0,0.0,0.0,0.0,0.0,0.0,0.0,0.0,0.0,0.0,0.0,0.0,0.0,0.0,0.0,0.0,0.0,0.0,0.0,0.0,0.0,0.0,0.0,0.0,0.0,0.0,0.0,0.0,0.0,0.0,0.0,0.0,0.0,0.0,0.0,0.0,0.0,0.0,0.0,0.0,0.0,0.0,0.0,0.0,0.0,0.0,0.0,0.0,0.0,0.0,0.0,0.0,0.0,0.0,0.0,0.0,-1.174,-1.2456,0.0,-1.3913,-1.4198,-1.371,-1.2472,-1.1528,-1.1141,0.0,0.0,0.0,0.0,0.0,0.0,0.0,0.0,0.0,0.0,0.0,0.0,0.0,0.0,0.0,0.0,0.0,0.0,0.0,0.0,0.0,0.0,0.0,0.0,0.0,0.0,0.0,0.0,0.0,0.0,0.0,0.0,0.0,0.0,0.0,0.0,0.0,0.0,0.0,0.0,0.0,0.0,0.0,0.0,0.0,0.0,0.0,0.0,0.0,0.0,0.0,0.0,0.0,0.0,0.0,0.0,0.0,0.0,0.0,0.0,0.0,0.0,0.0,0.0,0.0,0.0,0.0,0.0,0.0,0.0,0.0,0.0,0.0,0.0,0.0,0.0,0.0,0.0,0.0,0.0,0.0,0.0,0.0,0.0,0.0,0.0,0.0,0.0,0.0,0.0,0.0,0.0,0.0,0.0,0.0,0.0,0.0,0.0,0.0,0.0,0.0,0.0,-1.1174,-1.1914,-1.2604,0.0,-1.4169,-1.4343,-1.3944,-1.2687,-1.1718,-1.1337,0.0,0.0,0.0,0.0,0.0,0.0,0.0,0.0,0.0,0.0,0.0,0.0,0.0,0.0,0.0,0.0,0.0,0.0,0.0,0.0,0.0,0.0,0.0,0.0,0.0,0.0,0.0,0.0,0.0,0.0,0.0,0.0,0.0,0.0,0.0,0.0,0.0,0.0,0.0,0.0,0.0,0.0,0.0,0.0,0.0,0.0,0.0,0.0,0.0,0.0,0.0,0.0,0.0,0.0,0.0,0.0,0.0,0.0,0.0,0.0,0.0,0.0,0.0,0.0,0.0,0.0,0.0,0.0,0.0,0.0,0.0,0.0,0.0,0.0,0.0,0.0,0.0,0.0,0.0,0.0,0.0,0.0,0.0,0.0,0.0,0.0,0.0,0.0,0.0,0.0,0.0,0.0,0.0,0.0,0.0,0.0,0.0,0.0,0.0,0.0,0.0,0.0,-1.2017,-1.2305,-1.286,-1.4327,-1.4488,-1.4187,-1.3372,-1.2443,-1.1572,0.0,0.0,0.0,0.0,0.0,0.0,0.0,0.0,0.0,0.0,0.0,0.0,0.0,0.0,0.0,0.0,0.0,0.0,0.0,0.0,0.0,0.0,0.0,0.0,0.0,0.0,0.0,0.0,0.0,0.0,0.0,0.0,0.0,0.0,0.0,0.0,0.0,0.0,0.0,0.0,0.0,0.0,0.0,0.0,0.0,0.0,0.0,0.0,0.0,0.0,0.0,0.0,0.0,0.0,0.0,0.0,0.0,0.0,0.0,0.0,0.0,0.0,0.0,0.0,0.0,0.0,0.0,0.0,0.0,0.0,0.0,0.0,0.0,0.0,0.0,0.0,0.0,0.0,0.0,0.0,0.0,0.0,0.0,0.0,0.0,0.0,0.0,0.0,0.0,0.0,0.0,0.0,0.0,0.0,0.0,0.0,0.0,0.0,0.0,0.0,0.0,0.0,0.0,-1.1935,-1.2305,-1.286,-1.4327,-1.4488,-1.4396,-1.4169,-1.2853,-1.1966,-1.1774,0.0,0.0,0.0,0.0,0.0,0.0,0.0,0.0,0.0,0.0,0.0,0.0,0.0,0.0,0.0,0.0,0.0,0.0,0.0,0.0,0.0,0.0,0.0,0.0,0.0,0.0,0.0,0.0,0.0,0.0,0.0,0.0,0.0,0.0,0.0,0.0,0.0,0.0,0.0,0.0,0.0,0.0,0.0,0.0,0.0,0.0,0.0,0.0,0.0,0.0,0.0,0.0,0.0,0.0,0.0,0.0,0.0,0.0,0.0,0.0,0.0,0.0,0.0,0.0,0.0,0.0,0.0,0.0,0.0,0.0,0.0,0.0,0.0,0.0,0.0,0.0,0.0,0.0,0.0,0.0,0.0,0.0,0.0,0.0,0.0,0.0,0.0,0.0,0.0,0.0,0.0,0.0,0.0,0.0,0.0,0.0,0.0,0.0,0.0,0.0,0.0,0.0,-1.1986,-1.2322,-1.286,-1.4327,-1.4488,-1.4371,-1.404,-1.2847,-1.1995,-1.174,0.0,0.0,0.0,0.0,0.0,0.0,0.0,0.0,0.0,0.0,0.0,0.0,0.0,0.0,0.0,0.0,0.0,0.0,0.0,0.0,0.0,0.0,0.0,0.0,0.0,0.0,0.0,0.0,0.0,0.0,0.0,0.0,0.0,0.0,0.0,0.0,0.0,0.0,0.0,0.0,0.0,0.0,0.0,0.0,0.0,0.0,0.0,0.0,0.0,0.0,0.0,0.0,0.0,0.0,0.0,0.0,0.0,0.0,0.0,0.0,0.0,0.0,0.0,0.0,0.0,0.0,0.0,0.0,0.0,0.0,0.0,0.0,0.0,0.0,0.0,0.0,0.0,0.0,0.0,0.0,0.0,0.0,0.0,0.0,0.0,0.0,0.0,0.0,0.0,0.0,0.0,0.0,0.0,0.0,0.0,0.0,0.0,0.0,0.0,0.0,0.0,0.0,-1.2092,-1.2351,-1.286,-1.4327,-1.4488,-1.4205,-1.3464,-1.2619,-1.181,-1.115,0.0,0.0,0.0,0.0,0.0,0.0,0.0,0.0,0.0,0.0,0.0,0.0,0.0,0.0,0.0,0.0,0.0,0.0,0.0,0.0,0.0,0.0,0.0,0.0,0.0,0.0,0.0,0.0,0.0,0.0,0.0,0.0,0.0,0.0,0.0,0.0,0.0,0.0,0.0,0.0,0.0,0.0,0.0,0.0,0.0,0.0,0.0,0.0,0.0,0.0,0.0,0.0,0.0,0.0,0.0,0.0,0.0,0.0,0.0,0.0,-1.1743,0.0,0.0,0.0,0.0,0.0,0.0,0.0,0.0,0.0,0.0,0.0,0.0,0.0,0.0,0.0,0.0,0.0,0.0,0.0,0.0,0.0,0.0,0.0,0.0,0.0,0.0,0.0,0.0,0.0,0.0,0.0,0.0,0.0,0.0,0.0,0.0,0.0,0.0,0.0,0.0,0.0,-1.2022,-1.2305,-1.286,-1.4327,-1.4488,-1.4433,-1.4261,-1.2939,-1.2087,-1.203,-0.945,0.0,0.0,0.0,0.0,0.0,0.0,0.0,0.0,0.0,0.0,0.0,0.0,0.0,0.0,0.0,0.0,0.0,0.0,0.0,0.0,0.0,0.0,0.0,0.0,0.0,0.0,0.0,0.0,0.0,0.0,0.0,0.0,0.0,0.0,0.0,0.0,0.0,0.0,0.0,0.0,0.0,0.0,0.0,0.0,0.0,0.0,0.0,0.0,0.0,0.0,0.0,0.0,0.0,0.0,0.0,0.0,0.0,0.0,0.0,0.0,-1.2539,0.0,0.0,0.0,0.0,0.0,0.0,0.0,0.0,0.0,0.0,0.0,0.0,0.0,0.0,0.0,0.0,0.0,0.0,0.0,0.0,0.0,0.0,0.0,0.0,0.0,0.0,0.0,0.0,0.0,0.0,0.0,0.0,0.0,0.0,0.0,0.0,0.0,0.0,0.0,0.0,-1.215,-1.2689,-1.3336,-1.4393,-1.4488,-1.4488,-1.4488,-1.338,-1.2576,-1.2316,-1.0345,0.0,0.0,0.0,0.0,0.0,0.0,0.0,0.0,0.0,0.0,0.0,0.0,0.0,0.0,0.0,0.0,0.0,0.0,0.0,0.0,0.0,0.0,0.0,0.0,0.0,0.0,0.0,0.0,0.0,0.0,0.0,0.0,0.0,0.0,0.0,0.0,0.0,0.0,0.0,0.0,0.0,0.0,0.0,0.0,0.0,0.0,0.0,0.0,0.0,0.0,0.0,0.0,0.0,-1.5183,-1.5561,-1.542,-1.5568,-1.6112,-1.6849,-1.5269,-1.4493,-1.428,-1.3291,0.0,0.0,0.0,0.0,0.0,0.0,0.0,0.0,0.0,0.0,0.0,0.0,0.0,0.0,0.0,0.0,0.0,0.0,0.0,0.0,0.0,0.0,0.0,0.0,-1.4481,-1.4102,0.0,0.0,0.0,0.0,0.0,0.0,0.0,0.0,0.0,0.0,0.0,0.0,-1.2459,-1.315,-1.3803,-1.443,-1.4488,-1.4488,-1.4488,-1.3747,-1.3066,-1.2528,-1.1629,-1.0563,0.0,0.0,0.0,0.0,0.0,0.0,0.0,0.0,0.0,0.0,0.0,0.0,0.0,0.0,0.0,0.0,0.0,0.0,0.0,0.0,0.0,0.0,0.0,0.0,0.0,0.0,0.0,0.0,0.0,0.0,0.0,0.0,-0.8532,-0.8692,0.0,0.0,0.0,0.0,0.0,0.0,0.0,0.0,0.0,0.0,0.0,0.0,0.0,-1.3863,-1.483,-1.5715,-1.5792,-1.5055,-1.6619,-1.7003,-1.6349,-1.7061,-1.785,-1.8657,-1.8291,0.0,-1.6074,-1.5127,0.0,0.0,0.0,0.0,0.0,0.0,0.0,0.0,0.0,0.0,0.0,0.0,0.0,0.0,0.0,0.0,0.0,0.0,0.0,0.0,0.0,0.0,-1.6696,-1.6809,-1.6973,-1.6676,0.0,-1.4022,-1.3062,-1.1887,-1.0774,0.0,0.0,0.0,0.0,0.0,0.0,0.0,-1.3025,-1.3315,-1.3691,-1.4419,-1.4488,-1.4488,-1.4488,-1.3747,-1.3295,-1.3263,-1.191,-1.1043,-1.0893,-0.9613,0.0,0.0,0.0,0.0,0.0,0.0,0.0,0.0,0.0,0.0,0.0,0.0,0.0,0.0,0.0,0.0,0.0,0.0,0.0,0.0,0.0,0.0,0.0,0.0,0.0,0.0,0.0,0.0,0.0,-0.8024,-0.8944,-0.9451,-0.983,-1.0063,0.0,0.0,0.0,0.0,0.0,0.0,0.0,0.0,0.0,-1.5245,-1.5336,-1.5747,-1.6543,-1.7444,-1.7715,-1.7343,-1.8581,-1.8984,-1.8657,-1.9004,-1.9388,-1.9773,-1.9726,-1.9331,-1.8573,-1.7064,-1.6019,-1.5285,0.0,0.0,0.0,0.0,-1.4494,-1.4407,-1.5292,-1.5261,0.0,-1.5457,0.0,0.0,0.0,0.0,0.0,0.0,0.0,0.0,0.0,0.0,-1.7244,-1.788,-1.8126,-1.8071,-1.7504,-1.7383,-1.6485,0.0,-1.2956,-1.2537,-1.1178,0.0,0.0,0.0,0.0,-1.2881,-1.3398,-1.3868,-1.4229,-1.4474,-1.4488,-1.4488,-1.4488,-1.4187,-1.384,-1.3532,-1.2879,-1.2373,-1.2058,-1.1382,-1.0826,0.0,0.0,0.0,0.0,0.0,0.0,0.0,0.0,0.0,0.0,0.0,0.0,0.0,0.0,0.0,0.0,0.0,0.0,0.0,0.0,0.0,0.0,0.0,0.0,0.0,0.0,0.0,0.0,-0.8746,-0.9549,-0.9977,-1.0426,-1.0641,0.0,0.0,0.0,0.0,0.0,0.0,-1.4681,-1.4689,-1.5419,-1.706,-1.7157,-1.754,-1.8316,-1.902,-1.9254,-1.9066,-1.9919,-2.0215,-2.0031,-2.0229,-2.0346,-2.0404,-2.0404,-2.0404,-2.0282,-1.862,-1.7646,-1.7112,-1.6297,-1.5886,-1.5862,-1.6471,-1.6338,-1.6006,-1.7274,-1.7244,-1.6725,-1.7128,0.0,-1.7186,-1.5431,0.0,0.0,0.0,0.0,-1.5785,-1.6621,-1.7231,-1.7855,-1.8704,-1.8973,-1.9107,-1.935,-1.9911,-1.931,0.0,-1.5362,-1.5114,-1.3216,0.0,0.0,0.0,0.0,-1.4453,-1.4625,-1.4837,-1.4925,-1.4823,-1.4616,-1.4488,-1.4488,-1.4533,-1.4354,-1.3913,-1.3925,-1.3648,-1.301,-1.3003,-1.254,-1.1524,0.0,0.0,0.0,0.0,0.0,0.0,0.0,0.0,0.0,0.0,0.0,0.0,0.0,0.0,0.0,0.0,0.0,0.0,0.0,0.0,0.0,0.0,0.0,0.0,0.0,0.0,0.0,0.0,0.0,-1.0186,-1.1569,0.0,0.0,0.0,0.0,-1.3913,-1.4011,-1.4753,-1.6399,-1.6475,-1.7267,-1.8995,-1.9065,-1.9456,-2.0246,-2.0312,-1.995,-1.9196,-2.0007,-1.9981,-1.9284,-2.0046,-2.0402,-2.0402,-2.0402,-2.0402,-2.0331,-1.9477,-1.91,-1.8974,-1.8119,-1.7727,-1.7651,-1.7581,-1.7991,-1.8583,-1.8552,-1.851,-1.8625,-1.9516,-1.8888,-1.7851,-1.8308,-1.7442,0.0,0.0,-1.7943,-1.8544,-1.8339,-1.897,-1.9658,-1.973,-1.984,-1.9992,-2.0211,-2.0265,-1.9938,0.0,-1.7581,-1.679,-1.665,0.0,-1.5063,-1.4764,-1.5431,-1.6354,-1.7359,-1.6417,-1.5636,-1.5637,-1.4958,-1.4488,-1.4488,-1.4614,-1.4678,-1.4661,-1.4814,-1.4568,-1.3786,-1.3804,-1.3102,-1.1532,-1.1408,0.0,0.0,0.0,0.0,0.0,0.0,0.0,0.0,0.0,0.0,0.0,0.0,0.0,0.0,0.0,0.0,0.0,0.0,0.0,0.0,0.0,0.0,0.0,0.0,0.0,0.0,0.0,0.0,-1.2588,-1.3213,0.0,-1.3987,-1.4754,-1.5384,-1.5745,-1.6241,-1.7076,-1.8277,-1.8298,-1.8819,-2.0009,-1.9994,-2.0099,-2.0399,-2.0399,-2.0263,-1.9987,-2.0227,-2.0236,-2.0048,-2.0297,-2.0448,-2.052,-2.0481,-2.0462,-2.0446,-2.0149,-2.0006,-1.9942,-1.9689,-1.9567,-1.9521,-1.9484,-1.9627,-1.9824,-1.9771,-1.9762,-1.9809,-2.015,-1.9923,-1.9587,-1.9846,-1.9476,-1.8989,-1.9254,-1.9456,-1.9554,-1.9449,-1.9613,-1.9824,-1.9915,-1.9974,-2.006,-2.0269,-2.0312,-2.0188,-1.9796,-1.896,-1.7953,-1.6847,-1.6791,-1.6646,-1.5852,-1.6385,-1.698,-1.7267,-1.6829,-1.6473,-1.6468,-1.5821,-1.541,-1.541,-1.5046,-1.4859,-1.4898,-1.495,-1.4901,-1.4705,-1.4238,-1.3426,-1.2282,-1.1211,-1.0234,0.0,0.0,0.0,0.0,0.0,0.0,0.0,0.0,0.0,0.0,0.0,0.0,0.0,0.0,0.0,0.0,0.0,0.0,0.0,0.0,0.0,0.0,0.0,0.0,0.0,0.0,-1.3219,-1.4362,-1.4995,-1.5461,-1.5736,-1.6523,-1.7148,-1.7471,-1.8003,-1.8699,-1.9621,-1.9639,-1.9873,-2.0459,-2.0429,-2.0402,-2.0402,-2.0421,-2.0421,-2.0421,-2.0409,-2.0627,-2.1032,-2.0993,-2.1134,-2.1413,-2.1355,-2.1335,-2.1346,-2.1331,-2.1211,-2.0988,-2.0655,-2.0519,-2.0503,-2.0504,-2.0463,-2.0405,-2.0424,-2.0424,-2.0398,-2.0431,-2.0465,-2.0501,-2.0554,-2.0477,-2.0369,-2.0349,-2.0225,-2.0087,-2.0049,-2.0003,-1.9972,-2.0003,-2.0041,-2.0143,-2.0277,-2.0312,-2.0312,-2.0312,-1.9873,-1.9135,-1.797,-1.8259,-1.8375,-1.7591,-1.7909,-1.8161,-1.8034,-1.7702,-1.7473,-1.7473,-1.6825,-1.6282,-1.5991,-1.5593,-1.5272,-1.5049,-1.5073,-1.514,-1.5228,-1.4436,-1.3601,-1.2743,-1.1091,-1.0398,-1.0694,0.0,0.0,0.0,0.0,0.0,0.0,0.0,0.0,0.0,0.0,0.0,0.0,0.0,0.0,0.0,0.0,0.0,0.0,0.0,0.0,0.0,0.0,0.0,-1.2867,-1.4272,-1.5319,-1.5376,-1.6789,-1.7455,-1.6665,-1.7346,-1.8205,-1.9091,-1.915,-1.9504,-2.0344,-2.0402,-2.0402,-2.0402,-2.0402,-2.0402,-2.0402,-2.0465,-2.05,-2.0538,-2.0616,-2.1169,-2.2102,-2.2122,-2.2476,-2.3071,-2.3071,-2.3052,-2.3013,-2.2994,-2.2685,-2.2124,-2.1084,-2.0644,-2.0605,-2.0584,-2.0531,-2.0492,-2.0531,-2.0511,-2.0495,-2.0565,-2.0585,-2.0579,-2.0573,-2.0586,-2.056,-2.0469,-2.0404,-2.0319,-2.015,-2.0208,-2.0241,-2.006,-2.0161,-2.0292,-2.03,-2.03,-2.03,-2.0312,-2.0312,-2.0312,-2.0312,-2.0312,-2.0233,-2.0031,-1.9993,0.0,-1.9813,-1.9122,-1.8642,-1.8642,-1.7917,-1.7094,-1.6262,-1.6255,-1.5979,-1.5194,-1.5242,-1.5297,-1.5297,-1.448,-1.3626,-1.2823,-1.1215,-1.0764,-1.1546,0.0,0.0,0.0,0.0,0.0,0.0,0.0,0.0,0.0,0.0,0.0,0.0,0.0,0.0,0.0,0.0,0.0,0.0,0.0,0.0,0.0,0.0,-1.4613,-1.4682,-1.5036,-1.5773,-1.703,-1.7025,-1.733,-1.8351,-1.8673,-1.9162,-1.9973,-2.0037,-2.0153,-2.0392,-2.0411,-2.0411,-2.0411,-2.045,-2.045,-2.0411,-2.043,-2.073,-2.137,-2.1598,-2.1833,-2.2114,-2.2448,-2.3349,-2.4675,-2.4675,-2.4204,-2.3407,-2.3072,-2.2849,-2.2682,-2.244,-2.2598,-2.293,-2.2536,-2.2397,-2.2377,-2.1948,-2.2045,-2.2376,-2.2444,-2.242,-2.2385,-2.2441,-2.2422,-2.2246,-2.1606,-2.1363,-2.1161,-2.0484,-2.035,-2.0361,-2.0299,-2.0326,-2.0369,-2.0374,-2.0381,-2.0369,-2.0381,-2.0331,-2.0312,-2.0312,-2.0312,-2.0233,-2.0031,-1.9993,0.0,-1.9813,-1.9601,-1.9481,-1.9481,-1.8839,-1.8326,-1.807,-1.7076,-1.6361,-1.6124,-1.5603,-1.5299,-1.5299,-1.4502,-1.3691,-1.2888,-1.2419,-1.2273,0.0,0.0,0.0,0.0,0.0,0.0,0.0,0.0,0.0,0.0,0.0,0.0,0.0,0.0,0.0,0.0,0.0,0.0,0.0,0.0,0.0,0.0,-1.5201,-1.6469,-1.6892,-1.6913,-1.7261,-1.8274,-1.8246,-1.8405,-1.9047,-1.9442,-1.9854,-2.0331,-2.0369,-2.0369,-2.0369,-2.0369,-2.0369,-2.0369,-2.0408,-2.0408,-2.0369,-2.0831,-2.143,-2.2163,-2.3032,-2.3445,-2.3457,-2.3725,-2.4378,0.0,-2.5293,-2.4918,-2.4283,-2.4015,-2.3909,0.0,0.0,0.0,0.0,0.0,-2.3302,-2.3088,-2.2931,-2.2951,-2.3068,-2.3107,-2.3088,-2.3068,-2.3107,-2.31,-2.2988,-2.248,-2.2319,-2.2096,-2.1204,-2.0967,-2.0843,-2.0488,-2.0429,-2.0438,-2.0449,-2.0434,-2.0448,-2.0441,-2.0397,0.0,-2.03,-2.0312,-2.0269,-2.0133,-2.0041,-2.0003,-2.0011,-1.9941,-1.9931,-2.0001,-1.9649,-1.9273,-1.8909,-1.8083,0.0,0.0,0.0,-1.5569,-1.4823,-1.4356,0.0,0.0,0.0,0.0,0.0,0.0,0.0,0.0,-1.2495,-1.2578,0.0,0.0,0.0,0.0,0.0,0.0,0.0,0.0,0.0,0.0,0.0,0.0,0.0,0.0,0.0,0.0,-1.6836,-1.8155,-1.9065,-1.9192,-1.9161,-1.91,-1.9619,-1.9735,-1.9069,-1.9696,-2.0196,-2.0292,-2.0312,-2.0312,-2.0312,0.0,0.0,0.0,0.0,-2.0465,-2.0438,-2.1551,-2.2387,-2.2973,-2.454,-2.5292,-2.5293,-2.5293,-2.5293,-2.5303,-2.5303,-2.5303,-2.5303,-2.5303,-2.5303,-2.5168,-2.3794,-2.3256,-2.3333,-2.3877,-2.3742,-2.3348,-2.3761,0.0,0.0,-2.329,-2.329,-2.329,-2.329,-2.3329,-2.3355,-2.324,-2.3221,-2.3026,-2.2167,-2.1828,-2.1516,-2.074,-2.0521,-2.0494,-2.0513,-2.051,-2.0518,-2.0514,-2.0463,-2.0391,-2.0323,-2.0312,-2.0312,-2.0312,-2.0152,-2.0106,-2.0277,-2.0133,-2.0106,-2.0277,0.0,0.0,-1.9203,-1.9126,-1.8467,-1.697,-1.6855,-1.6145,-1.4609,-1.4531,-1.4531,-1.4531,-1.5293,-1.6074,-1.6855,-1.7624,-1.7582,-1.6801,-1.525,-1.4897,0.0,0.0,0.0,0.0,0.0,0.0,0.0,0.0,0.0,0.0,0.0,0.0,0.0,0.0,0.0,-1.7025,-1.8032,-1.8885,-1.9707,-1.9734,-1.9506,-1.9077,-1.8542,-1.8414,-1.8953,-1.9146,-1.9542,-2.0254,-2.0312,-2.0312,-2.0312,-2.0312,-2.0312,-2.0312,-2.1185,-2.1543,-2.1276,-2.2177,-2.3053,-2.3861,0.0,0.0,-2.5293,-2.5293,-2.5293,-2.5303,-2.5303,-2.5303,-2.5303,-2.5303,-2.5303,-2.5264,-2.4966,-2.487,-2.488,-2.5109,-2.5127,-2.5022,-2.5127,-2.5089,-2.5022,-2.5022,-2.5022,-2.5022,-2.5022,-2.5037,0.0,-2.4185,-2.3996,-2.3802,-2.298,-2.2237,-2.1663,-2.1562,-2.101,-2.0515,-2.0573,-2.0583,-2.0585,-2.0578,-2.0525,-2.0488,-2.0465,-2.0369,-2.0312,-2.0312,-2.0277,-2.0269,-2.0285,-2.0269,-2.0269,-2.0304,-2.0312,-2.0235,-2.0062,-1.9469,-1.8963,-1.8644,-1.8061,-1.7593,-1.7266,-1.7246,-1.7246,-1.7246,-1.7402,-1.7578,-1.7754,-1.7858,-1.7829,-1.765,-1.7323,-1.6881,0.0,0.0,0.0,0.0,0.0,0.0,0.0,0.0,0.0,0.0,0.0,-1.3627,-1.4877,0.0,-1.6772,-1.8083,-1.885,-1.9446,-1.9844,-1.9836,-1.9533,-1.8821,-1.8807,-1.8869,-1.8907,-1.9358,-1.9831,-2.0273,-2.0312,-2.0312,-2.0312,-2.0677,-2.0908,-2.0908,-2.1878,-2.2455,-2.2551,-2.3148,-2.387,-2.4716,-2.5111,-2.5303,-2.5303,-2.5303,-2.5303,-2.5303,-2.5303,-2.5303,-2.5303,-2.5303,-2.5303,-2.5303,-2.5303,-2.5303,-2.5303,-2.539,-2.5409,-2.5409,-2.5409,-2.5409,-2.5409,-2.5409,-2.5409,-2.5409,-2.5409,-2.5428,-2.5351,-2.4923,-2.481,-2.4655,-2.3828,-2.3287,-2.274,-2.1939,-2.1446,-2.1035,-2.0644,-2.0586,-2.0605,-2.0605,-2.056,-2.0538,-2.0515,-2.0437,-2.0389,-2.0312,-2.0246,-2.0227,-2.0292,-2.0205,-2.0197,-2.0285,-2.0312,-2.0312,-2.0312,-1.9596,-1.9168,-1.9192,-1.8454,-1.8008,-1.8008,-1.8008,-1.8008,-1.8008,-1.8398,-1.8605,-1.8605,-1.8968,-1.9162,-1.9158,-1.912,-1.8682,0.0,0.0,0.0,0.0,0.0,0.0,0.0,0.0,-1.2447,-1.4052,-1.4438,-1.4927,-1.6381,-1.7226,-1.7972,-1.8859,-1.942,-1.9762,-1.9762,-1.9738,-1.945,-1.8751,-1.9422,-1.9697,-1.9059,-1.9752,-2.0241,-2.0241,-2.0277,-2.0369,-2.0523,-2.1158,-2.1581,-2.1754,-2.2601,-2.3263,-2.3685,-2.411,-2.4658,-2.5312,-2.5303,-2.5303,-2.5303,-2.5303,-2.5303,-2.5303,-2.5303,-2.5303,-2.5303,-2.5303,-2.5303,-2.5303,-2.5303,-2.5303,-2.5303,-2.5303,-2.5303,-2.5303,-2.5303,-2.5303,-2.5303,-2.5303,-2.5303,-2.5303,-2.5303,-2.5341,-2.539,-2.539,-2.5428,-2.5303,-2.4591,-2.4303,-2.3794,-2.229,-2.1847,-2.1533,-2.068,-2.0527,-2.0586,-2.0586,-2.0586,-2.0586,-2.0527,-2.0522,-2.047,-2.0332,-2.0219,-2.0188,-2.0312,-2.018,-2.0134,-2.0304,-2.0331,-2.0331,-2.035,-1.9796,-1.948,-1.955,-1.8887,-1.8516,-1.8516,-1.8516,-1.8516,-1.8516,-1.9134,-1.9454,-1.9454,-1.9912,-2.0222,-2.0389,-2.0158,-1.9815,-1.2199,-1.2376,-1.2623,-1.2661,-1.256,-1.3061,0.0,0.0,-1.4868,-1.6555,-1.691,-1.7183,-1.8071,-1.8316,-1.8674,-1.9549,-1.9645,-1.9623,-1.9623,-1.9467,-1.9328,-1.9221,-1.9576,-1.9794,-1.97,-1.9896,-2.0031,-2.0031,-2.0197,-2.0619,-2.1331,-2.1446,-2.185,-2.262,-2.3494,-2.3975,-2.4033,-2.4793,-2.5216,-2.5293,-2.5313,-2.5303,-2.5303,-2.5303,-2.5303,-2.5303,-2.5303,-2.5303,-2.5303,-2.5303,-2.5303,-2.5303,-2.5303,-2.5303,-2.5303,-2.5303,-2.5303,-2.5303,-2.5303,-2.5303,-2.5303,-2.5303,-2.5303,-2.5303,-2.5303,-2.5303,-2.5303,-2.5303,-2.5322,-2.5303,-2.5207,-2.4659,-2.3889,-2.2987,-2.218,-2.1404,-2.0581,-2.0455,-2.0508,-2.0508,-2.0566,-2.0605,-2.0586,-2.0585,-2.0533,-2.0406,-2.0341,-2.0312,-2.0389,-2.0315,-2.0296,-2.0389,-2.0389,-2.0408,-2.0465,-2.0408,-2.0388,-2.0449,-2.0352,-2.0312,-2.0312,-2.0312,-2.0312,-2.0312,-2.0332,-2.035,-2.035,-1.961,-1.961,-2.0292,-1.9511,-1.9523,-1.3695,-1.3216,-1.2781,0.0,-1.3974,-1.4324,-1.5817,-1.577,-1.5855,-1.7535,-1.7907,-1.8191,-1.8983,-1.9133,-1.9257,0.0,-1.9536,-1.9442,-1.9442,-1.935,-1.9305,-1.9305,-1.9419,-1.9559,-1.9669,-1.9802,-1.989,-1.989,-2.0031,-2.0488,-2.135,-2.1931,-2.2658,-2.3533,-2.4351,-2.4793,-2.4793,-2.5139,-2.5303,-2.5303,-2.5303,-2.5303,-2.5303,-2.5303,-2.5303,-2.5303,-2.5303,-2.5303,-2.5303,-2.5303,-2.5303,-2.5303,-2.5303,-2.5303,-2.5303,-2.5303,-2.5303,-2.5303,-2.5303,-2.5303,-2.5303,-2.5303,-2.5303,-2.5303,-2.5303,-2.5303,-2.5303,-2.5303,-2.5303,-2.5303,-2.5303,-2.5063,-2.4601,-2.3784,-2.2956,-2.213,-2.1275,-2.0773,-2.0499,-2.0506,-2.0547,-2.0605,-2.0605,-2.0605,-2.0582,-2.0522,-2.0425,-2.0372,-2.0404,-2.035,-2.035,-2.0446,-2.0465,-2.0502,-2.0542,-2.0552,-2.0577,-2.0605,-2.0605,-2.0605,-2.0605,-2.0605,-2.0605,-2.0605,-2.0523,-2.0507,-2.0504,-2.0069,-2.0027,-2.0357,-1.9981,-2.0004,-1.3834,-1.3523,0.0,-1.4746,-1.5306,-1.5689,-1.6472,-1.654,-1.6836,-1.8281,-1.8604,-1.8835,-1.9416,-1.9513,-1.9513,-1.9513,-1.9413,-1.9305,-1.9305,-1.9305,-1.9305,-1.9305,-1.9305,-1.935,-1.9499,-1.9669,-1.9738,-1.9738,-1.9912,-2.0489,-2.1596,-2.2384,-2.3293,-2.4389,-2.5005,-2.5303,-2.5303,-2.5303,-2.5303,-2.5303,-2.5303,-2.5303,-2.5303,-2.5303,-2.5303,-2.5303,-2.5303,-2.5303,-2.5303,-2.5303,-2.5303,-2.5303,-2.5303,-2.5264,-2.5214,-2.5214,-2.5253,-2.5303,-2.5303,-2.5303,-2.5303,-2.5303,-2.5303,-2.5303,-2.5303,-2.5303,-2.5303,-2.5303,-2.5303,-2.5303,-2.5303,-2.5303,-2.5101,-2.4302,-2.3657,-2.2926,-2.1837,-2.1193,-2.0765,-2.0542,-2.0542,-2.0605,-2.0605,-2.0605,-2.0603,-2.0592,-2.05,-2.0441,-2.045,-2.0405,-2.0421,-2.0518,-2.0538,-2.0558,-2.0605,-2.0605,-2.0605,-2.0605,-2.0605,-2.0605,-2.0605,-2.0605,-2.0605,-2.0605,-2.0527,-2.051,-2.0499,-2.0218,-2.0173,-2.0385,-2.0167,-2.0186,-1.1901,0.0,-1.4626,-1.5402,-1.6311,-1.7231,-1.8049,-1.8135,-1.8262,-1.9103,-1.9268,-1.9286,-1.9305,-1.9305,-1.9305,-1.9305,-1.9305,-1.9305,-1.9305,-1.9305,-1.9305,-1.9305,-1.9305,-1.9305,0.0,-1.9499,-1.9614,-1.9614,-1.9847,-2.0756,-2.2465,-2.2719,-2.3562,-2.5207,-2.5284,-2.5303,-2.5303,-2.5303,-2.5303,-2.5303,-2.5303,-2.5303,-2.5303,-2.5303,-2.5303,-2.5303,-2.5303,-2.5303,-2.5303,-2.5303,-2.5303,-2.5303,-2.5303,-2.5173,-2.501,-2.501,-2.5122,-2.5303,-2.5303,-2.5303,-2.5303,-2.5303,-2.5303,-2.5303,-2.5303,-2.5303,-2.5303,-2.5303,-2.5303,-2.5303,-2.5303,-2.5303,-2.5101,-2.4302,-2.4072,-2.361,-2.1957,-2.1636,-2.1421,-2.0643,-2.0542,-2.0605,-2.0605,-2.0605,-2.0605,-2.0605,-2.0541,-2.0512,-2.0589,-2.0584,-2.0586,-2.0605,-2.0605,-2.0605,-2.0605,-2.0605,-2.0605,-2.0605,-2.0605,-2.0605,-2.0605,-2.0605,-2.0605,-2.0605,-2.0527,-2.0508,-2.0507,-1.9645,-1.964,-2.0387,-1.9611,-1.9646,-1.3623,0.0,-1.5185,-1.6639,-1.7242,-1.7771,-1.8742,-1.893,-1.8959,-1.9234,-1.8867,-1.85,-1.85,-1.85,-1.85,-1.85,-1.8941,-1.9305,-1.9305,-1.9305,-1.9305,-1.9305,-1.9305,0.0,0.0,0.0,0.0,-1.9394,-2.0233,-2.1218,-2.2348,-2.3198,-2.4159,-2.5264,-2.5303,-2.5303,-2.5303,-2.5163,-2.5099,-2.5099,-2.5012,-2.5091,-2.5284,-2.508,-2.5091,-2.5293,-2.5049,-2.5024,-2.5088,-2.5,-2.4981,-2.5019,-2.5563,-2.573,-2.5655,-2.5655,-2.5717,-2.5709,-2.5263,-2.5099,-2.5111,-2.5264,-2.5303,-2.5303,-2.5303,-2.5303,-2.5303,-2.5303,-2.5303,-2.5303,-2.5303,-2.5303,-2.5226,-2.4966,-2.4485,-2.3793,-2.2698,-2.2054,-2.146,-2.065,-2.0558,-2.0605,-2.0605,-2.0605,-2.0605,-2.0605,-2.0575,-2.0566,-2.0542,-2.0572,-2.0605,-2.0605,-2.0605,-2.0605,-2.0605,-2.0605,-2.0605,-2.0605,-2.0605,-2.0605,-2.0605,-2.0605,-2.0605,-2.0605,-2.0586,-2.0566,-2.0566,-2.0269,-2.0264,-2.0539,-2.0268,-2.0272,-1.4777,-1.5278,-1.5764,-1.7471,-1.795,-1.8196,-1.8888,-1.8846,-1.8663,-1.8663,-1.8045,-1.7515,-1.7556,-1.757,-1.7676,-1.8045,-1.8537,-1.8959,-1.9253,-1.9305,-1.9305,-1.9305,-1.9305,-1.9305,0.0,0.0,0.0,-1.9305,-2.0431,-2.1425,-2.2152,-2.334,-2.4339,-2.5107,-2.5126,-2.5126,-2.5126,-2.4993,-2.4943,-2.493,-2.4842,-2.4896,-2.5115,-2.4902,-2.4929,-2.5115,-2.4883,-2.4855,-2.493,-2.4828,-2.4959,-2.528,-2.5797,-2.6126,-2.6324,-2.6324,-2.6087,-2.5695,-2.5134,-2.4943,-2.4956,-2.5072,-2.516,-2.5184,-2.5184,-2.5234,-2.5303,-2.5303,-2.5303,-2.5303,-2.5303,-2.5303,-2.5303,-2.5303,-2.4909,-2.4312,-2.3535,-2.2727,-2.1939,-2.1148,-2.0775,-2.0605,-2.0605,-2.0605,-2.0605,-2.0605,-2.0605,-2.0579,-2.0536,-2.0564,-2.0605,-2.0605,-2.0605,-2.0605,-2.0605,-2.0605,-2.0605,-2.0605,-2.0605,-2.0605,-2.0605,-2.0605,-2.0605,-2.0605,-2.0605,-2.0605,-2.0605,-2.0605,-2.0605,-2.0605,-2.0605,-2.0601,-1.5257,-1.5875,-1.6425,-1.7861,-1.8391,-1.8585,-1.8532,-1.7985,-1.7471,-1.7382,-1.6777,-1.6306,0.0,0.0,-1.6853,-1.7829,-1.8078,-1.8427,-1.9179,-1.9305,-1.9305,0.0,0.0,0.0,0.0,0.0,0.0,-1.9433,0.0,-2.1431,-2.204,-2.319,-2.4132,-2.4785,-2.4804,-2.4804,-2.4804,-2.479,-2.479,-2.479,-2.4775,-2.4775,-2.4804,-2.4775,-2.4775,-2.4804,-2.4813,-2.4832,-2.4865,-2.4888,-2.5329,-2.6029,-2.6086,-2.6442,-2.6953,-2.6953,-2.6336,-2.5462,-2.4979,-2.4813,-2.479,-2.4804,-2.4891,-2.501,-2.501,-2.5141,-2.5303,-2.5303,-2.5303,-2.5303,-2.5303,-2.5303,-2.5303,-2.5303,-2.5303,-2.5111,-2.4351,-2.3589,-2.2855,-2.2107,-2.1269,-2.0644,-2.0605,-2.0605,-2.0605,-2.0605,-2.0585,-2.0605,-2.0605,-2.0605,-2.0605,-2.0605,-2.0605,-2.0605,-2.0605,-2.0605,-2.0605,-2.0605,-2.0605,-2.0605,-2.0605,-2.0605,-2.0605,-2.0605,-2.0605,-2.0605,-2.0605,-2.0605,-2.0605,-2.0605,-2.0605,-2.0605,-1.6174,-1.6876,-1.7471,-1.8059,-1.8249,-1.8173,-1.7603,-1.7488,-1.7134,-1.583,-1.5061,-1.448,0.0,0.0,0.0,-1.6248,-1.7821,0.0,-1.9271,-1.9305,0.0,-1.9305,0.0,-2.0189,-2.0189,-2.0825,0.0,0.0,-2.1681,-2.2324,-2.3069,-2.4025,-2.462,-2.4785,-2.4804,-2.4804,-2.4804,-2.4654,-2.4594,-2.4559,-2.4409,-2.4512,-2.479,-2.4495,-2.4528,-2.4827,-2.5111,-2.5337,-2.5515,-2.595,-2.6261,-2.6502,-2.7112,-2.744,-2.7582,-2.7582,-2.7411,-2.7001,-2.5706,-2.4946,-2.4591,-2.4746,-2.4891,-2.501,-2.501,-2.5141,-2.5303,-2.5303,-2.5303,-2.5303,-2.5303,-2.5303,-2.5303,-2.5303,-2.5341,-2.5168,-2.437,-2.4072,-2.374,-2.2944,-2.2129,-2.1367,-2.0703,-2.0605,-2.0576,-2.0521,-2.0526,-2.0545,-2.0585,-2.0605,-2.0605,-2.0605,-2.0605,-2.0605,-2.0605,-2.0605,-2.0605,-2.0605,-2.0605,-2.0605,-2.0605,-2.0605,-2.0605,-2.0605,-2.0605,-2.0605,-2.0605,-2.0605,-2.0605,-2.0605,-2.0605,-2.0605,-1.6574,-1.7047,-1.7408,-1.7539,-1.7585,-1.7306,-1.6319,-1.5967,-1.5412,-1.3937,-1.3102,0.0,-1.2472,0.0,0.0,0.0,0.0,0.0,-1.9198,-1.9305,-1.9305,0.0,-1.9693,0.0,-2.0466,-2.1023,-2.1678,0.0,-2.2622,-2.2899,-2.3257,-2.4155,-2.4623,-2.4545,-2.4545,-2.4545,-2.4545,-2.4409,-2.4375,-2.4357,-2.4247,-2.4321,-2.4528,-2.4303,-2.4303,-2.4566,0.0,-2.5444,-2.5615,-2.6326,-2.6814,-2.7163,-2.7622,-2.8026,-2.8338,-2.8338,-2.8099,-2.7622,-2.6355,-2.5703,-2.5319,-2.4718,-2.4956,-2.5378,-2.5031,-2.5096,-2.5303,-2.5303,-2.5303,-2.5303,-2.5303,-2.5303,-2.5303,-2.5341,-2.537,-2.5284,-2.4908,-2.4534,-2.4069,-2.3293,-2.2445,-2.1701,-2.1211,-2.0789,-2.0509,-2.046,-2.0467,-2.0488,-2.055,-2.0555,-2.0566,-2.0566,-2.0586,-2.0605,-2.0605,-2.0605,-2.0605,-2.0605,-2.0605,-2.0605,-2.0605,-2.0605,-2.0605,-2.0605,-2.0605,-2.0605,-2.0605,-2.0605,-2.0605,-2.0605,-2.0605,-2.0605,-1.6706,-1.6789,-1.6789,-1.6789,-1.6735,-1.6287,-1.4908,-1.41,-1.3226,-1.191,0.0,-1.0885,-1.1241,-1.2132,-1.3416,-1.5252,0.0,-1.7568,-1.9087,-1.9305,-1.9305,-1.9305,-1.9381,-1.9785,-2.0576,-2.0936,-2.1748,-2.3308,-2.3419,-2.3336,-2.3217,-2.3986,-2.4375,-2.4227,-2.419,-2.419,-2.419,-2.419,-2.419,-2.419,-2.419,-2.419,-2.419,-2.43,-2.4355,-2.441,-2.5329,0.0,-2.5788,-2.6594,-2.7328,-2.7952,-2.7952,-2.8393,-2.8994,-2.8994,-2.8576,-2.7824,-2.6924,-2.6741,-2.6649,-2.4924,-2.5112,-2.5872,-2.5167,-2.512,-2.5303,-2.5303,-2.5303,-2.5303,-2.5303,-2.5303,-2.5303,-2.537,-2.539,-2.5456,-2.5552,-2.4995,-2.4254,-2.3482,-2.2687,-2.2076,-2.1987,-2.119,-2.0565,-2.056,-2.045,-2.0408,-2.0465,-2.0488,-2.0505,-2.0508,-2.0566,-2.0605,-2.0605,-2.0605,-2.0605,-2.0605,-2.0605,-2.0605,-2.0605,-2.0605,-2.0605,-2.0605,-2.0605,-2.0605,-2.0605,-2.0605,-2.0605,-2.0605,-2.0605,-2.0605,-1.6783,-1.6789,-1.6789,-1.6789,-1.6392,-1.5535,-1.393,-1.332,0.0,0.0,-0.9999,-1.0059,-0.9756,-1.1439,-1.3274,-1.4507,0.0,0.0,0.0,0.0,-1.9305,0.0,0.0,0.0,0.0,0.0,0.0,0.0,0.0,-2.41,-2.4222,-2.4247,-2.4247,-2.419,-2.419,-2.419,-2.419,-2.419,-2.419,-2.419,-2.419,-2.419,-2.4226,-2.4887,-2.5201,-2.5274,-2.6741,0.0,-2.7438,-2.8264,-2.8686,-2.8796,-2.8796,-2.8865,-2.8994,-2.8994,-2.8902,-2.8572,-2.7108,-2.7475,-2.8227,-2.5915,-2.5577,-2.5966,-2.5834,-2.5552,-2.5303,-2.5303,-2.5303,-2.5303,-2.5303,-2.5303,-2.5303,-2.5303,-2.5403,-2.549,-2.551,-2.5453,-2.5117,-2.42,-2.3908,-2.3572,-2.2912,-2.2053,-2.1459,-2.139,-2.0789,-2.0331,-2.0331,-2.0429,-2.0527,-2.0585,-2.0586,-2.0605,-2.0605,-2.0605,-2.0605,-2.0605,-2.0605,-2.0605,-2.0605,-2.0605,-2.0605,-2.0605,-2.0605,-2.0605,-2.0605,-2.0605,-2.0605,-2.0605,-2.0605,-2.0605,-1.6219,-1.6274,-1.6274,-1.6274,-1.5774,-1.4773,-1.2945,0.0,0.0,0.0,-0.9111,-0.932,-0.9298,0.0,0.0,0.0,0.0,0.0,0.0,0.0,0.0,0.0,0.0,0.0,0.0,0.0,0.0,0.0,0.0,-2.4247,-2.4358,-2.4266,-2.419,-2.419,-2.419,-2.419,-2.419,-2.419,-2.419,-2.419,-2.419,-2.419,-2.4226,-2.5035,-2.5403,-2.5495,-2.709,0.0,-2.786,-2.8686,-2.8994,-2.8994,-2.8994,-2.8994,-2.8994,-2.8994,-2.8994,-2.881,-2.764,-2.8007,-2.8737,-2.7163,-2.6935,-2.7078,-2.6249,-2.599,-2.589,-2.5418,-2.5303,-2.5303,-2.5303,-2.5303,-2.5303,-2.5341,-2.5425,-2.5493,-2.5493,-2.5534,-2.5399,-2.4962,-2.4501,-2.4072,-2.3685,-2.2868,-2.2271,-2.2235,-2.1485,-2.0946,-2.102,-2.0667,-2.0429,-2.0534,-2.0572,-2.0605,-2.0605,-2.0605,-2.0605,-2.0605,-2.0605,-2.0605,-2.0605,-2.0605,-2.0605,-2.0605,-2.0605,-2.0605,-2.0605,-2.0605,-2.0605,-2.0605,-2.0605,-2.0575,-1.5547,-1.5712,-1.5769,-1.5619,-1.5067,-1.4075,-1.211,-1.1291,0.0,0.0,-0.864,-0.8891,-0.9228,0.0,-1.1147,0.0,0.0,0.0,0.0,0.0,0.0,0.0,0.0,0.0,0.0,0.0,0.0,0.0,0.0,0.0,-2.4208,-2.419,-2.419,-2.419,-2.419,-2.419,-2.419,-2.419,-2.419,-2.419,-2.419,-2.419,-2.4226,-2.5199,-2.5678,-2.5731,-2.7365,0.0,0.0,-2.8741,-2.8994,-2.8994,-2.8994,-2.8994,-2.8994,-2.8994,-2.8994,-2.8847,-2.7879,-2.8191,-2.8851,-2.7908,-2.7809,-2.7857,-2.6629,-2.6249,-2.6118,-2.5476,-2.5303,-2.5303,-2.5303,-2.5303,-2.5322,-2.539,-2.5434,-2.5485,-2.5485,-2.5484,-2.5466,-2.5466,-2.4889,-2.4437,-2.4437,-2.3687,-2.309,-2.309,-2.2331,-2.1743,-2.1691,-2.103,-2.0545,-2.0481,-2.0536,-2.0586,-2.0605,-2.0605,-2.0605,-2.0605,-2.0605,-2.0605,-2.0605,-2.0605,-2.0605,-2.0605,-2.0605,-2.0605,-2.0605,-2.0605,-2.0605,-2.0605,-2.0598,-2.0546,-1.5021,-1.5477,-1.5649,-1.5037,-1.4393,-1.3425,-1.1581,0.0,0.0,-0.8915,-0.888,-0.9109,-0.9284,-1.0066,-1.1256,-1.3002,0.0,-1.5045,0.0,0.0,0.0,0.0,0.0,0.0,0.0,0.0,0.0,0.0,0.0,0.0,-2.417,-2.419,-2.419,-2.419,-2.419,-2.419,-2.419,-2.419,-2.419,-2.419,-2.419,-2.419,-2.4245,-2.5786,-2.6502,-2.6576,-2.8191,0.0,0.0,-2.8957,-2.8994,-2.8994,-2.8994,-2.8994,-2.8994,-2.8994,-2.8994,-2.8773,-2.7255,-2.7732,-2.8764,-2.7435,-2.701,-2.7028,-2.7071,-2.6171,-2.5172,-2.5273,-2.5303,-2.5303,-2.5303,-2.5303,-2.5322,-2.539,-2.5409,-2.5399,-2.5399,-2.5399,-2.539,-2.5322,-2.5245,-2.5187,-2.5187,-2.4524,-2.3975,-2.3975,-2.3244,-2.2417,-2.171,-2.1527,-2.1216,-2.0481,-2.0477,-2.0527,-2.0586,-2.0605,-2.0605,-2.0605,-2.0605,-2.0605,-2.0605,-2.0605,-2.0605,-2.0605,-2.0605,-2.0605,-2.0605,-2.0605,-2.0605,-2.0605,-2.0541,-2.0504,-1.4457,-1.5183,-1.5649,-1.4989,-1.4303,-1.3335,-1.151,0.0,-1.0095,-0.8985,-0.8951,-0.9159,-0.9385,-0.9663,-1.0408,-1.2126,-1.2543,-1.3449,-1.5803,0.0,0.0,0.0,0.0,0.0,0.0,0.0,0.0,0.0,0.0,0.0,-2.3588,-2.3795,-2.3816,-2.3588,-2.3996,-2.4094,-2.3896,-2.4094,-2.4428,-2.4905,-2.4905,-2.5181,-2.5676,-2.6646,-2.716,-2.7383,-2.8521,0.0,0.0,-2.8994,-2.8723,-2.8338,-2.8815,-2.8705,-2.8338,-2.881,-2.8994,-2.8902,-2.826,-2.8443,-2.8815,-2.7769,-2.721,-2.6953,-2.727,-2.6715,-2.5874,-2.5427,-2.5303,-2.5303,-2.5303,-2.5303,-2.5303,-2.5322,-2.5341,-2.5341,-2.5341,-2.5341,-2.5322,-2.5303,-2.5303,-2.5303,-2.5303,-2.5024,-2.4812,-2.4812,-2.4101,-2.3466,-2.3149,-2.2651,-2.2231,-2.1993,-2.1061,-2.0472,-2.0527,-2.0547,-2.0566,-2.0605,-2.0605,-2.0605,-2.0605,-2.0605,-2.0605,-2.0605,-2.0605,-2.0573,-2.0531,-2.0531,-2.0527,-2.0477,-2.0488,-2.0762,-1.3598,-1.451,-1.5064,-1.4363,-1.369,-1.2802,0.0,-1.0471,-0.9869,-0.9007,-0.8966,-0.9149,-0.9349,-0.934,-0.9747,-1.1116,-1.1359,-1.2178,-1.446,-1.5295,0.0,0.0,0.0,0.0,0.0,0.0,0.0,0.0,0.0,0.0,0.0,-2.3277,-2.3346,-2.3189,-2.3735,-2.3937,-2.3692,-2.4016,-2.4483,-2.5054,-2.5293,-2.5566,-2.5915,-2.6775,-2.7141,-2.7126,-2.7952,0.0,0.0,-2.8301,-2.797,-2.753,-2.8338,-2.8301,-2.7897,-2.8705,-2.8994,-2.8957,-2.8741,-2.865,-2.8525,-2.7851,-2.7176,-2.6703,-2.71,-2.6711,-2.6011,-2.5447,-2.5303,-2.5303,-2.5303,-2.5303,-2.5303,-2.5303,-2.5303,-2.5303,-2.5303,-2.5303,-2.5303,-2.5303,-2.5303,-2.5303,-2.5303,-2.5303,-2.5303,-2.5303,-2.4812,-2.437,-2.413,-2.3553,-2.3129,-2.2956,-2.1855,-2.107,-2.0906,-2.0641,-2.0527,-2.0605,-2.0605,-2.0605,-2.0605,-2.0605,-2.0605,-2.0605,-2.0605,-2.0572,-2.0504,-2.0504,-2.0481,-2.0429,-2.0713,-2.1432,-1.2401,-1.3277,-1.366,-1.2996,-1.2336,-1.1565,-1.0612,-0.9891,-0.932,-0.8975,-0.9011,-0.9099,-0.9099,-0.9208,-0.9504,-1.0114,-1.0599,-1.1624,-1.3727,-1.4701,0.0,0.0,0.0,0.0,0.0,0.0,0.0,0.0,0.0,0.0,0.0,-2.2721,-2.2873,-2.3189,-2.3522,-2.3692,-2.3692,-2.4016,-2.419,-2.4226,-2.5035,-2.4999,-2.4281,-2.5878,-2.6172,0.0,0.0,0.0,0.0,-2.6631,-2.6631,-2.6704,-2.7493,-2.7805,-2.7897,-2.8705,-2.8994,-2.8906,-2.8081,-2.7805,-2.7745,-2.7356,-2.666,-2.608,-2.6485,-2.5852,-2.5065,-2.5253,-2.5303,-2.5303,-2.5303,-2.5303,-2.5303,-2.5303,-2.5303,-2.5303,-2.5303,-2.5303,-2.5303,-2.5303,-2.5303,-2.5303,-2.5303,-2.5303,-2.5303,-2.5303,-2.5284,-2.5005,-2.4206,-2.4091,-2.3764,-2.2889,-2.2849,-2.2577,-2.186,-2.099,-2.0527,-2.0605,-2.0605,-2.0605,-2.0605,-2.0605,-2.0605,-2.0605,-2.0605,-2.0572,-2.0504,-2.0504,-2.0504,-2.0531,-2.1317,-2.2617,-1.0977,-1.1682,-1.211,-1.1568,-1.1162,-1.0673,-0.9712,-0.9451,-0.9304,-0.8901,-0.8966,-0.9088,-0.9043,-0.8985,-0.9458,-1.0974,-1.127,-1.2042,0.0,0.0,0.0,0.0,0.0,0.0,0.0,0.0,0.0,0.0,0.0,0.0,0.0,-2.2426,-2.248,-2.2571,-2.3318,-2.3588,-2.3369,-2.3917,-2.4483,-2.5035,-2.5293,-2.5548,-2.586,-2.6002,-2.6112,0.0,0.0,0.0,0.0,-2.6612,-2.6282,-2.5897,-2.7255,-2.7457,-2.7145,-2.848,-2.8994,-2.9003,-2.8907,-2.8507,-2.7917,-2.7389,-2.6752,-2.6127,-2.5657,-2.5362,-2.5214,-2.5274,-2.5303,-2.5303,-2.5303,-2.5303,-2.5303,-2.5303,-2.5303,-2.5303,-2.5303,-2.5303,-2.5303,-2.5303,-2.5303,-2.5303,-2.5303,-2.5303,-2.5303,-2.5303,-2.5303,-2.5207,-2.4947,-2.4966,-2.4889,-2.462,-2.4149,-2.3533,-2.2697,-2.1862,-2.1411,-2.1484,-2.0937,-2.0605,-2.0605,-2.0605,-2.0605,-2.0605,-2.0605,-2.0572,-2.0504,-2.0446,-2.0732,-2.1351,-2.2842,-2.3834,-0.9598,-1.0179,-1.0568,-1.0278,-0.9908,-0.9517,-0.9089,-0.8956,-0.8884,-0.8786,-0.8908,-0.8994,-0.8895,-0.8824,-0.9193,-1.0511,-1.0857,-1.17,0.0,0.0,0.0,0.0,0.0,0.0,0.0,0.0,0.0,0.0,0.0,0.0,0.0,-2.231,-2.231,-2.231,-2.308,-2.3459,-2.3392,-2.3917,-2.4447,-2.4942,-2.5116,-2.5312,-2.5512,-2.5343,-2.5298,0.0,0.0,0.0,0.0,-2.5512,-2.5301,-2.5107,-2.6722,-2.7034,-2.6796,-2.8407,-2.8994,-2.904,-2.931,-2.8629,-2.7606,-2.7374,-2.6686,-2.5834,-2.5271,-2.5203,-2.5303,-2.5303,-2.5303,-2.5303,-2.5303,-2.5303,-2.5303,-2.5303,-2.5303,-2.5303,-2.5303,-2.5303,-2.5303,-2.5303,-2.5303,-2.5303,-2.5303,-2.5303,-2.5303,-2.5303,-2.5303,-2.5303,-2.5322,-2.537,-2.5408,-2.5437,-2.5051,-2.4582,-2.403,-2.294,-2.2311,-2.2382,-2.1562,-2.1094,-2.1094,-2.0762,-2.0605,-2.0605,-2.0605,-2.0573,-2.0502,-2.0797,-2.1557,-2.2755,-2.3874,-2.4586,0.0,-0.8784,-0.9038,-0.9057,-0.8586,-0.8236,-0.8625,-0.8393,0.0,-0.8579,-0.8771,-0.8846,-0.8813,-0.8755,-0.886,-0.9297,-0.9895,0.0,0.0,0.0,0.0,0.0,0.0,0.0,0.0,0.0,0.0,0.0,0.0,0.0,0.0,-2.231,-2.231,-2.2321,-2.2883,-2.3305,-2.3628,-2.3958,-2.4132,-2.4132,-2.4577,-2.4392,-2.3667,-2.4112,-2.3903,0.0,0.0,0.0,0.0,-2.3732,-2.3917,-2.4355,-2.597,-2.6576,-2.6722,-2.8388,-2.8957,-2.8948,-2.9291,-2.8331,-2.7046,-2.7304,-2.6496,-2.538,-2.5322,-2.5303,-2.5303,-2.5303,-2.5303,-2.5303,-2.5303,-2.5303,-2.5303,-2.5303,-2.5303,-2.5303,-2.5303,-2.5303,-2.5303,-2.5303,-2.5303,-2.5303,-2.5303,-2.5303,-2.5303,-2.5303,-2.5303,-2.5341,-2.5409,-2.5409,-2.5434,-2.5502,-2.5561,-2.5611,-2.5605,-2.4115,-2.3217,-2.3281,-2.2461,-2.1992,-2.199,-2.1211,-2.0781,-2.0781,-2.0781,-2.0742,-2.0684,-2.1561,-2.2832,-2.4393,-2.4466,-2.4922,-0.6663,0.0,-0.7479,-0.7621,-0.7543,-0.7511,0.0,-0.8003,-0.8115,-0.8224,0.0,-0.8775,-0.9609,-0.9343,-0.9653,-1.1595,-1.2072,0.0,0.0,0.0,0.0,0.0,0.0,0.0,0.0,0.0,0.0,0.0,0.0,0.0,-2.231,-2.231,-2.2371,-2.2599,-2.2746,-2.2873,-2.2947,-2.3259,-2.3455,-2.3455,-2.3565,-2.3501,-2.3323,-2.3431,-2.3389,0.0,0.0,0.0,-2.3714,-2.3976,-2.4132,-2.4355,-2.597,-2.6227,-2.5952,-2.8191,-2.8613,-2.8217,-2.9087,-2.8703,-2.7681,-2.6854,-2.6438,-2.6178,-2.5495,-2.5303,-2.5303,-2.5303,-2.5303,-2.5303,-2.5303,-2.5303,-2.5303,-2.5303,-2.5303,-2.5303,-2.5303,-2.5303,-2.5303,-2.5303,-2.5303,-2.5303,-2.5303,-2.5341,-2.539,-2.539,-2.5428,-2.5466,-2.5466,-2.5524,-2.5572,-2.5569,-2.564,-2.5665,-2.5604,-2.4665,-2.4095,-2.4121,-2.3359,-2.2867,-2.282,-2.2662,-2.2559,-2.2519,-2.2519,-2.25,-2.248,-2.3353,-2.3996,-2.4413,-2.5071,-2.5508,-0.6183,-0.6577,-0.704,-0.724,-0.7279,-0.7397,-0.7748,-0.7825,-0.7881,0.0,0.0,-0.8655,-0.9482,-0.9588,-1.0217,-1.2244,-1.284,0.0,0.0,0.0,0.0,0.0,0.0,0.0,0.0,0.0,0.0,0.0,0.0,0.0,-2.231,-2.231,-2.2377,-2.25,-2.2527,-2.2652,-2.2923,-2.3117,-2.3189,-2.3189,-2.3045,-2.2972,-2.2972,-2.2832,-2.2798,0.0,0.0,0.0,-2.35,-2.3837,-2.4074,-2.4318,-2.5566,-2.5768,-2.566,-2.7695,-2.8172,-2.7941,-2.9031,-2.8727,-2.766,-2.6734,-2.6239,-2.5928,-2.5437,-2.5303,-2.5303,-2.5303,-2.5303,-2.5303,-2.5303,-2.5303,-2.5303,-2.5303,-2.5303,-2.5303,-2.5303,-2.5303,-2.5303,-2.5303,-2.5303,-2.5303,-2.5341,-2.5341,-2.537,-2.5434,-2.5444,-2.5486,-2.5543,-2.5582,-2.5616,-2.5632,-2.5687,-2.5677,-2.5609,-2.5195,-2.4939,-2.492,-2.412,-2.3646,-2.3608,-2.3298,-2.3101,-2.3105,-2.3105,-2.3301,-2.3691,-2.418,-2.4619,-2.5005,-2.5481,-2.5703,-0.6241,-0.6711,-0.7191,-0.7287,-0.7408,-0.7598,-0.7883,0.0,0.0,0.0,0.0,0.0,0.0,-0.9907,0.0,0.0,0.0,0.0,0.0,0.0,0.0,0.0,0.0,0.0,0.0,0.0,0.0,0.0,0.0,0.0,-2.231,-2.231,-2.231,-2.231,-2.231,-2.2561,-2.3063,-2.3063,-2.3063,-2.3063,-2.2764,-2.2634,-2.2634,-2.2398,-2.231,-2.2338,0.0,0.0,-2.3212,-2.3628,-2.3937,-2.4281,-2.509,-2.5403,-2.5605,-2.72,-2.7787,-2.7941,-2.9031,-2.8739,-2.7782,-2.7129,-2.6369,-2.5668,-2.5534,-2.5399,-2.5303,-2.5303,-2.5303,-2.5303,-2.5303,-2.5303,-2.5303,-2.5303,-2.5303,-2.5303,-2.5303,-2.5303,-2.5303,-2.5303,-2.5303,-2.5322,-2.537,-2.5351,-2.5346,-2.5479,-2.5452,-2.5479,-2.5595,-2.5614,-2.5647,-2.5682,-2.5703,-2.5673,-2.561,-2.5601,-2.5578,-2.551,-2.481,-2.4397,-2.4416,-2.3758,-2.3411,-2.3496,-2.3496,-2.3867,-2.4609,-2.4609,-2.498,-2.5703,-2.5703,-2.5703,-0.6386,-0.7016,-0.736,-0.7063,-0.7482,-0.7887,-0.7439,-0.7588,0.0,0.0,0.0,0.0,0.0,0.0,0.0,0.0,0.0,0.0,0.0,0.0,0.0,0.0,0.0,0.0,0.0,0.0,0.0,0.0,0.0,0.0,-2.231,-2.231,-2.231,-2.231,-2.231,-2.2349,-2.2443,-2.2443,-2.2443,-2.2443,-2.2388,-2.236,-2.236,-2.2338,-2.231,-2.2338,0.0,-2.3141,-2.3236,-2.3876,-2.4151,-2.4281,-2.509,-2.5403,-2.5605,-2.72,-2.7787,-2.7941,-2.9031,-2.9491,-2.9499,-2.8706,-2.8025,-2.7351,-2.6621,-2.589,-2.5303,-2.5303,-2.5303,-2.5303,-2.5303,-2.5303,-2.5303,-2.5303,-2.5303,-2.5303,-2.5303,-2.5303,-2.5303,-2.5303,-2.5303,-2.5303,-2.5303,-2.5343,-2.5391,-2.5397,-2.5493,-2.5577,-2.5597,-2.5655,-2.5698,-2.5703,-2.5703,-2.5673,-2.561,-2.5601,-2.5563,-2.5504,-2.5369,-2.533,-2.5388,-2.5207,-2.5163,-2.5293,-2.5293,-2.5371,-2.5508,-2.5508,-2.5566,-2.5703,-2.5703,-2.5703,-0.6142,-0.6851,-0.7469,-0.7575,-0.812,-0.8656,-0.866,-0.8612,0.0,0.0,0.0,0.0,0.0,0.0,0.0,0.0,0.0,0.0,0.0,0.0,0.0,0.0,0.0,0.0,0.0,0.0,0.0,0.0,0.0,0.0,-2.2293,-2.231,-2.231,-2.231,-2.231,-2.231,-2.231,-2.231,-2.231,-2.231,-2.231,-2.231,-2.231,-2.231,-2.231,-2.2321,0.0,-2.3189,-2.3236,-2.3917,-2.419,-2.4281,-2.509,-2.5403,-2.5625,-2.7333,-2.8262,-2.8769,-2.9475,-2.9561,-2.9322,-2.9053,-2.8161,-2.7121,-2.6717,-2.5986,-2.5303,-2.5303,-2.5303,-2.5303,-2.5303,-2.5303,-2.5303,-2.5303,-2.5303,-2.5303,-2.5303,-2.5303,-2.5303,-2.5303,-2.5303,-2.5303,-2.5341,-2.535,-2.5376,-2.5438,-2.549,-2.552,-2.5585,-2.5625,-2.5664,-2.5703,-2.5703,-2.5673,-2.561,-2.5611,-2.5569,-2.5495,-2.5505,-2.5505,-2.5543,-2.5543,-2.5575,-2.5643,-2.5689,-2.5703,-2.5703,-2.5703,-2.5703,-2.5703,-2.5703,-2.5703,-0.6165,-0.6775,-0.7496,-0.82,-0.8611,-0.9074,-0.9867,-0.966,0.0,0.0,0.0,0.0,0.0,0.0,0.0,0.0,0.0,0.0,0.0,0.0,0.0,0.0,0.0,0.0,0.0,0.0,0.0,0.0,0.0,0.0,-2.1877,-2.1911,-2.2023,-2.231,-2.231,-2.231,-2.231,-2.231,-2.231,-2.231,-2.231,-2.231,-2.231,-2.231,-2.231,-2.2338,-2.2857,-2.3117,-2.3253,-2.3837,-2.4132,-2.4263,-2.4869,-2.5387,-2.5945,-2.7587,-2.8765,-2.9589,-2.9893,-2.9641,-2.9199,-2.9356,-2.839,-2.7198,-2.7198,-2.6601,-2.5909,-2.5909,-2.5909,-2.5813,-2.5399,-2.5303,-2.5303,-2.5303,-2.5303,-2.5303,-2.5303,-2.5303,-2.5303,-2.5303,-2.5303,-2.5322,-2.537,-2.5322,-2.5341,-2.5466,-2.5447,-2.5456,-2.559,-2.5602,-2.5643,-2.5685,-2.5681,-2.5644,-2.5582,-2.5578,-2.5551,-2.5505,-2.5498,-2.5487,-2.5534,-2.5562,-2.5595,-2.5631,-2.5676,-2.5703,-2.5703,-2.5703,-2.5703,-2.5703,-2.5703,-2.5703,-0.6967,-0.7196,-0.7395,-0.8565,-0.8518,-0.8576,-1.0123,-1.0132,0.0,-1.1168,0.0,0.0,0.0,0.0,0.0,0.0,0.0,0.0,0.0,0.0,0.0,0.0,0.0,0.0,0.0,0.0,0.0,0.0,0.0,0.0,-2.0676,-2.0709,-2.1228,-2.2265,-2.231,-2.231,-2.231,-2.231,-2.231,-2.231,-2.231,-2.231,-2.231,-2.231,-2.231,-2.231,-2.2599,-2.2923,-2.3212,-2.3588,-2.3917,-2.4208,-2.4263,-2.5319,-2.6916,-2.7992,-2.9058,-2.9969,-2.9999,-3.0144,-3.029,-3.0302,-2.9679,-2.8909,-2.8909,-2.8352,-2.7717,-2.7717,-2.7717,-2.7332,-2.5707,-2.5303,-2.5303,-2.5303,-2.5303,-2.5303,-2.5303,-2.5303,-2.5303,-2.5303,-2.5303,-2.5303,-2.5303,-2.5303,-2.5322,-2.5409,-2.5466,-2.5515,-2.5591,-2.5644,-2.5681,-2.5702,-2.5639,-2.5584,-2.552,-2.55,-2.55,-2.5508,-2.5445,-2.546,-2.5582,-2.5531,-2.5566,-2.5681,-2.5703,-2.5703,-2.5703,-2.5703,-2.5703,-2.5703,-2.5703,-2.5703,-0.6529,-0.6956,-0.7518,-0.8531,-0.8585,0.0,0.0,-1.1213,-1.1681,-1.271,-1.3193,0.0,0.0,0.0,0.0,0.0,0.0,0.0,0.0,0.0,0.0,0.0,0.0,0.0,0.0,0.0,0.0,0.0,0.0,0.0,0.0,-2.0237,-2.0804,-2.1244,-2.1928,-2.231,-2.231,-2.231,-2.231,-2.231,-2.231,-2.231,-2.231,-2.2463,-2.2537,-2.259,-2.3111,-2.3392,-2.3544,-2.3876,-2.4094,-2.43,-2.5309,-2.6502,-2.7774,-2.8816,-2.9545,-2.9999,-2.9999,-3.0075,-3.015,-3.015,-2.9595,-2.8932,-2.906,-2.8544,-2.7794,-2.7236,-2.7082,-2.6948,-2.6274,-2.612,-2.5967,-2.5418,-2.5303,-2.5303,-2.5303,-2.5303,-2.5303,-2.5303,-2.5322,-2.537,-2.537,-2.5409,-2.5428,-2.5466,-2.5476,-2.5515,-2.5582,-2.5584,-2.5594,-2.5621,-2.5582,-2.5524,-2.5495,-2.5503,-2.5522,-2.5561,-2.5489,-2.5495,-2.5601,-2.5585,-2.5619,-2.5703,-2.5703,-2.5703,-2.5703,-2.5703,-2.5703,-2.5703,-2.5703,-2.5996,-0.6376,-0.6778,-0.7364,-0.8273,0.0,0.0,-1.1196,-1.1976,-1.2696,-1.4147,-1.4438,0.0,0.0,0.0,0.0,0.0,0.0,0.0,0.0,0.0,0.0,0.0,0.0,0.0,0.0,0.0,0.0,0.0,0.0,0.0,0.0,-1.9293,-2.0007,-2.0582,-2.1485,-2.2073,-2.231,-2.231,-2.231,-2.231,-2.231,-2.231,-2.231,-2.259,-2.2695,-2.2721,-2.33,-2.3588,-2.3714,-2.3955,-2.4094,-2.4337,-2.5481,-2.6672,-2.783,-2.8628,-2.9326,-2.9908,-2.9908,-2.9908,-2.9924,-2.9984,-2.9618,-2.9221,-2.944,-2.9121,-2.8563,-2.7967,-2.7794,-2.7678,-2.7159,-2.6601,-2.6043,-2.5437,-2.5303,-2.5303,-2.5322,-2.5322,-2.5341,-2.537,-2.5409,-2.5428,-2.5432,-2.5468,-2.552,-2.5534,-2.5762,-2.5975,-2.6033,-2.6224,-2.6254,-2.6014,-2.5697,-2.5505,-2.5505,-2.5505,-2.5524,-2.5563,-2.5518,-2.5538,-2.563,-2.5618,-2.5627,-2.5703,-2.5703,-2.5703,-2.5703,-2.5703,-2.5703,-2.5703,-2.5977,-2.6426,-0.6778,-0.6753,-0.6859,0.0,0.0,0.0,-1.1899,-1.2308,-1.2983,-1.5294,0.0,-1.5799,-1.5799,0.0,0.0,0.0,0.0,0.0,0.0,0.0,0.0,0.0,0.0,0.0,0.0,0.0,0.0,0.0,0.0,0.0,0.0,-1.7729,-1.8729,-2.052,-2.0982,-2.1549,-2.231,-2.231,-2.231,-2.231,-2.231,-2.231,-2.231,-2.2573,-2.2695,-2.2721,-2.3069,-2.3392,-2.3692,-2.3692,-2.3896,-2.4209,-2.4428,-2.55,-2.6934,-2.7123,-2.828,-2.9696,-2.9696,-2.9696,-2.9729,-2.9939,-2.9999,-3.0061,-3.0311,-3.0379,-3.0379,-3.0359,-3.0359,-2.9987,-2.8313,-2.6601,-2.5303,-2.5303,-2.5303,-2.5322,-2.539,-2.5409,-2.5428,-2.5486,-2.5505,-2.5502,-2.5502,-2.5493,-2.5523,-2.5591,-2.6343,-2.6909,-2.6983,-2.7704,-2.7842,-2.6916,-2.6033,-2.5524,-2.5505,-2.5505,-2.5505,-2.5505,-2.5499,-2.5557,-2.5698,-2.564,-2.5635,-2.5703,-2.5703,-2.5703,-2.5703,-2.5703,-2.5703,-2.5723,-2.6602,-2.7012,-0.6324,-0.6937,0.0,-0.8108,0.0,0.0,0.0,-1.2691,0.0,0.0,0.0,0.0,0.0,0.0,0.0,0.0,0.0,0.0,0.0,0.0,0.0,0.0,0.0,0.0,0.0,0.0,0.0,0.0,0.0,0.0,0.0,-1.7086,-1.8143,-1.9439,-2.0334,-2.1278,-2.231,-2.231,-2.231,-2.231,-2.231,-2.231,-2.231,-2.2832,-2.3045,-2.3093,-2.3671,-2.3976,-2.4054,-2.4054,-2.4113,-2.4264,-2.5041,-2.5985,-2.699,-2.7763,-2.8753,-2.9696,-2.9696,-2.9696,-2.9729,-2.9939,-2.9999,-2.9947,-2.9594,-2.9486,-2.9236,-2.8063,-2.7736,-2.7467,-2.637,-2.5717,-2.537,-2.537,-2.537,-2.539,-2.5466,-2.5464,-2.548,-2.5499,-2.5545,-2.5572,-2.5567,-2.56,-2.5867,-2.6493,-2.6269,-2.6254,-2.6784,-2.7595,-2.7995,-2.7689,-2.745,-2.7071,-2.6463,-2.6405,-2.6176,-2.5611,-2.558,-2.5588,-2.563,-2.5601,-2.5635,-2.5703,-2.5703,-2.5703,-2.5703,-2.6328,-2.6602,-2.6641,-2.7519,-2.8242,-0.6257,-0.6943,0.0,0.0,0.0,0.0,-1.2057,0.0,0.0,0.0,0.0,0.0,0.0,0.0,0.0,0.0,0.0,0.0,0.0,0.0,0.0,0.0,0.0,0.0,0.0,0.0,0.0,0.0,0.0,0.0,0.0,-1.6532,-1.7383,-1.8346,-1.9535,-2.0644,-2.1625,-2.2057,-2.231,-2.231,-2.231,-2.231,-2.2338,-2.2933,-2.3189,-2.3253,-2.3917,-2.419,-2.419,-2.419,-2.419,-2.4264,-2.4875,-2.5597,-2.6376,-2.699,-2.7737,-2.8465,-2.8465,-2.867,-2.8914,-2.8808,-2.9033,-2.9258,-2.8683,-2.8568,-2.8409,-2.739,-2.7121,-2.6928,-2.6043,-2.5851,-2.5793,-2.5486,-2.5425,-2.5468,-2.5524,-2.5545,-2.5556,-2.5577,-2.5619,-2.5757,-2.6112,-2.6183,-2.6519,-2.7394,-2.7362,-2.7508,-2.8214,-2.8502,-2.8629,-2.8602,-2.8333,-2.7943,-2.7443,-2.741,-2.7191,-2.6699,-2.667,-2.6657,-2.6675,-2.6009,-2.5656,-2.5703,-2.6035,-2.6211,-2.6211,-2.709,-2.7519,-2.7539,-2.8418,-2.9101,-0.6313,0.0,0.0,0.0,0.0,0.0,0.0,0.0,0.0,0.0,0.0,0.0,0.0,0.0,0.0,0.0,0.0,0.0,0.0,0.0,0.0,0.0,0.0,0.0,0.0,0.0,0.0,0.0,0.0,0.0,0.0,-1.6095,-1.6595,-1.7377,-1.8642,-1.9718,-2.0598,-2.1642,-2.2215,-2.231,-2.231,-2.231,-2.2338,-2.2883,-2.3165,-2.3236,-2.3837,-2.4132,-2.4151,-2.4151,-2.417,-2.419,-2.4209,-2.4705,-2.5403,-2.5423,-2.5917,-2.6594,-2.6615,-2.7114,-2.7616,-2.7121,-2.7563,-2.8199,-2.7632,-2.7592,-2.7745,-2.7668,-2.7648,-2.7486,-2.6697,-2.6486,-2.6313,-2.5582,-2.5444,-2.551,-2.5588,-2.5582,-2.5604,-2.5673,-2.5741,-2.6054,-2.6854,-2.705,-2.7379,-2.8174,-2.9099,-2.9881,-3.0424,-2.9979,-2.9605,-2.9605,-2.8907,-2.8437,-2.8417,-2.8418,-2.8374,-2.8305,-2.8298,-2.8294,-2.83,-2.6777,-2.5937,-2.5937,-2.6719,-2.7129,-2.7129,-2.7988,-2.8418,-2.8437,-2.9316,-2.9726,-0.5762,-0.6442,0.0,0.0,0.0,0.0,0.0,0.0,0.0,0.0,0.0,0.0,0.0,0.0,0.0,0.0,0.0,0.0,0.0,0.0,0.0,0.0,0.0,0.0,0.0,0.0,0.0,0.0,0.0,0.0,-1.5799,-1.5885,-1.6357,-1.7377,-1.7704,-1.874,-2.0582,-2.0849,-2.1418,0.0,-2.231,-2.231,-2.231,-2.2652,-2.2947,-2.3212,-2.3346,-2.3566,-2.3816,-2.3816,-2.3958,-2.4209,-2.4375,-2.4838,-2.5423,-2.5579,-2.6039,-2.6615,-2.6784,-2.6953,-2.7103,-2.7201,-2.7355,-2.7403,-2.6582,-2.6477,-2.6491,-2.5822,-2.5729,-2.5832,-2.563,-2.562,-2.562,-2.5447,-2.5406,-2.5434,-2.5498,-2.5523,-2.5521,-2.5539,-2.61,-2.6617,-2.6812,-2.7444,-2.8026,-2.8262,-2.9525,-3.0285,-2.9809,-3.0153,-3.0448,-3.0448,-3.0366,-3.005,-2.9375,-2.9316,-2.9022,-2.8344,-2.8303,-2.8293,-2.8301,-2.7949,-2.7734,-2.7734,-2.793,-2.8027,-2.8027,-2.8906,-2.9316,-2.9336,-3.0215,-3.0625,0.0,0.0,0.0,0.0,0.0,0.0,0.0,0.0,0.0,0.0,0.0,0.0,0.0,0.0,0.0,0.0,0.0,0.0,0.0,0.0,0.0,0.0,0.0,0.0,0.0,0.0,0.0,0.0,0.0,-1.5165,-1.5165,-1.5359,-1.5714,-1.6277,-1.7005,-1.7937,-1.907,-1.9581,-2.0393,-2.1485,-2.1485,-2.1754,-2.231,-2.259,-2.288,-2.3189,-2.3189,-2.33,-2.3459,-2.3459,-2.3566,-2.3735,-2.4002,-2.4315,-2.4618,-2.4874,-2.5188,-2.5476,-2.5578,-2.5875,-2.6135,-2.5891,-2.6126,-2.6378,-2.5552,-2.5427,-2.55,-2.512,-2.5077,-2.5173,-2.5274,-2.564,-2.5967,-2.5967,-2.5706,-2.558,-2.601,-2.6115,-2.625,-2.6664,-2.7102,-2.7569,-2.8025,-2.8872,-2.9473,-2.9453,-3.0212,-3.0619,-3.0139,-3.0502,-3.0808,-3.0808,-3.0858,-3.0723,-3.0254,-3.0215,-3.0039,-2.957,-2.9531,-2.9531,-2.9531,-2.9531,-2.9141,-2.832,-2.8711,-2.8926,-2.8926,-2.9805,-3.0215,-3.0234,-3.0684,-3.0898,0.0,0.0,0.0,0.0,0.0,0.0,0.0,0.0,0.0,0.0,0.0,0.0,0.0,0.0,0.0,0.0,0.0,0.0,0.0,0.0,0.0,0.0,0.0,0.0,0.0,0.0,0.0,0.0,0.0,-1.4501,-1.4501,-1.4876,-1.5104,-1.5104,-1.641,-1.7226,-1.7392,-1.8286,-1.9269,-2.0332,-2.0447,-2.1052,-2.2077,-2.2385,-2.2721,-2.3038,-2.3038,-2.3087,-2.3117,-2.3117,-2.3141,-2.3212,-2.3522,-2.361,-2.3649,-2.3996,-2.4113,-2.4113,-2.417,-2.463,-2.509,-2.441,-2.4764,-2.5318,-2.4683,-2.4639,-2.4828,-2.4962,-2.5118,-2.531,-2.5475,-2.6178,-2.6813,-2.6813,-2.6351,-2.612,-2.683,-2.6984,-2.7196,-2.7928,-2.8189,-2.8585,-2.9531,-3.0347,-3.0831,-3.0742,-3.082,-3.086,-3.075,-3.0821,-3.0898,-3.0898,-3.0898,-3.0898,-3.0898,-3.0898,-3.0898,-3.0898,-3.0898,-3.0898,-3.0898,-3.0898,-3.0215,-2.8789,-2.9453,-2.9824,-2.9824,-3.0547,-3.0898,-3.0898,-3.0898,-3.0898,0.0,0.0,0.0,0.0,0.0,0.0,0.0,0.0,0.0,0.0,0.0,0.0,0.0,0.0,0.0,0.0,0.0,0.0,0.0,0.0,0.0,0.0,0.0,0.0,0.0,0.0,0.0,0.0,-1.431,-1.4501,-1.4501,-1.4876,-1.5104,-1.5104,-1.5684,-1.6464,-1.7392,-1.7543,-1.8149,-1.9208,-1.9796,-2.0473,-2.1197,-2.1582,-2.1982,-2.2415,-2.2415,-2.2554,-2.2772,-2.2772,-2.2947,-2.3189,-2.3236,-2.3277,-2.3323,-2.3631,-2.3774,-2.3816,-2.4094,-2.4263,-2.4337,-2.4226,-2.4282,-2.4413,-2.4481,-2.4639,-2.4828,-2.4962,-2.5677,-2.6388,-2.6418,-2.7063,-2.7736,-2.7736,-2.764,-2.7601,-2.7736,-2.7755,-2.7794,-2.789,-2.8536,-2.9341,-3.0288,-3.0604,-3.0762,-3.0856,-3.0898,-3.0898,-3.0871,-3.0897,-3.0898,-3.0898,-3.0898,-3.0898,-3.0898,-3.0898,-3.0898,-3.0898,-3.0898,-3.0898,-3.0898,-3.0898,-3.0781,-3.0566,-3.0664,-3.0723,-3.0723,-3.084,-3.0898,-3.0898,-3.0898,-3.0898,-0.4002,-0.4365,-0.4916,0.0,0.0,0.0,0.0,0.0,0.0,0.0,0.0,0.0,0.0,0.0,0.0,0.0,0.0,0.0,0.0,0.0,0.0,0.0,0.0,0.0,0.0,0.0,0.0,0.0,-1.3522,-1.3769,-1.3769,-1.4406,-1.4752,-1.4752,-1.5448,-1.602,-1.6495,-1.6495,-1.7032,-1.8134,-1.9393,-2.0141,-2.0462,-2.1004,-2.1507,-2.1928,-2.218,-2.2377,-2.249,-2.249,-2.2554,-2.2712,-2.2865,-2.2923,-2.2996,-2.3522,-2.3692,-2.3753,-2.4094,-2.419,-2.419,-2.419,-2.419,-2.4209,-2.4303,-2.4708,-2.5165,-2.5343,-2.6138,-2.6968,-2.7077,-2.7823,-2.8563,-2.8563,-2.8948,-2.9294,-2.9294,-2.8909,-2.8717,-2.9217,-2.964,-3.0065,-3.0516,-3.0656,-3.0747,-3.0878,-3.0898,-3.0898,-3.0898,-3.0898,-3.0898,-3.0898,-3.0898,-3.0898,-3.0898,-3.0898,-3.0898,-3.0898,-3.0898,-3.0898,-3.0898,-3.0898,-3.0898,-3.0898,-3.0898,-3.0898,-3.0898,-3.0898,-3.0898,-3.0898,-3.0898,-3.0898,-0.3577,-0.3669,-0.3901,-0.5132,0.0,0.0,0.0,0.0,0.0,0.0,0.0,0.0,0.0,0.0,0.0,0.0,0.0,0.0,0.0,0.0,0.0,0.0,0.0,0.0,0.0,0.0,0.0,0.0,-1.3012,-1.3198,-1.3198,-1.4019,-1.4501,-1.4501,-1.5359,-1.5799,-1.5799,-1.5799,-1.6288,-1.725,-1.8528,-1.9326,-1.9688,-2.0305,-2.0846,-2.129,-2.1869,-2.218,-2.231,-2.231,-2.231,-2.2338,-2.2527,-2.2599,-2.2678,-2.323,-2.35,-2.361,-2.3976,-2.4132,-2.419,-2.419,-2.419,-2.4209,-2.4247,-2.469,-2.5263,-2.5668,-2.6456,-2.7274,-2.7637,-2.8496,-2.9251,-2.9251,-2.9736,-3.0241,-3.0367,-2.989,-2.9621,-3.0275,-3.0448,-3.0516,-3.0568,-3.0648,-3.0723,-3.082,-3.0879,-3.0898,-3.0898,-3.0898,-3.0898,-3.0898,-3.0898,-3.0898,-3.0898,-3.0898,-3.0898,-3.0898,-3.0898,-3.0898,-3.0898,-3.0898,-3.0898,-3.0898,-3.0898,-3.0898,-3.0898,-3.0898,-3.0898,-3.0898,-3.0898,-3.0898,-0.2672,-0.2772,0.0,-0.3483,0.0,0.0,0.0,0.0,0.0,0.0,0.0,0.0,0.0,0.0,0.0,0.0,0.0,0.0,0.0,0.0,0.0,0.0,0.0,0.0,0.0,0.0,0.0,0.0,-1.3198,-1.3198,-1.3198,-1.4019,-1.4501,-1.4501,-1.5359,-1.5799,-1.5799,-1.5799,-1.6128,-1.6742,-1.6833,-1.7554,-1.8771,-1.9254,-1.9807,-2.0416,-2.1259,-2.1899,-2.231,-2.231,-2.231,-2.231,-2.231,-2.2321,-2.2349,-2.2652,-2.2947,-2.3259,-2.361,-2.3937,-2.419,-2.419,-2.419,-2.4247,-2.4428,-2.4497,-2.4752,-2.5716,-2.6569,-2.7374,-2.8148,-2.9013,-2.9655,-2.9655,-2.9693,-2.9848,-3.0299,-3.0359,-3.034,-3.0379,-3.0448,-3.0506,-3.0498,-3.0614,-3.0703,-3.0703,-3.082,-3.0898,-3.0898,-3.0898,-3.0898,-3.0898,-3.0898,-3.0898,-3.0898,-3.0898,-3.0898,-3.0898,-3.0898,-3.0898,-3.0898,-3.0898,-3.0898,-3.0898,-3.0898,-3.0898,-3.0898,-3.0898,-3.0898,-3.0898,-3.0898,-3.0898,-0.2593,-0.261,0.0,0.0,0.0,0.0,0.0,0.0,0.0,0.0,0.0,0.0,0.0,0.0,0.0,0.0,0.0,0.0,0.0,0.0,0.0,0.0,0.0,0.0,0.0,0.0,0.0,0.0,0.0,-1.3198,-1.3198,-1.4019,-1.4501,-1.4501,-1.5359,-1.5799,-1.5799,-1.5799,-1.5918,-1.6129,-1.6502,-1.695,-1.7443,-1.848,-1.9214,-1.9758,-2.046,-2.1039,-2.1462,-2.1462,-2.1462,-2.1493,-2.1735,-2.1853,-2.1911,-2.2485,-2.2772,-2.2923,-2.3259,-2.3459,-2.3566,-2.3566,-2.3566,-2.361,-2.3903,-2.4714,-2.5651,-2.6225,-2.7475,-2.8671,-2.897,-2.9382,-2.9696,-2.9696,-2.9696,-2.9748,-2.9912,-3.0188,-3.0398,-3.0398,-3.0417,-3.0448,-3.0487,-3.054,-3.0587,-3.0622,-3.0673,-3.0713,-3.0761,-3.0762,-3.0801,-3.0898,-3.0898,-3.0898,-3.0898,-3.0898,-3.0898,-3.0898,-3.0898,-3.0898,-3.0898,-3.0898,-3.0898,-3.0898,-3.0898,-3.0898,-3.0898,-3.0898,-3.0898,-3.0898,-3.0898,-3.0898,-0.2314,-0.2377,0.0,0.0,0.0,0.0,0.0,0.0,0.0,0.0,0.0,0.0,0.0,0.0,0.0,0.0,0.0,0.0,0.0,0.0,0.0,0.0,0.0,0.0,0.0,0.0,0.0,0.0,0.0,0.0,-1.3198,-1.4019,-1.4627,-1.4937,-1.5507,-1.5799,-1.5799,-1.5799,-1.5799,-1.5799,-1.6219,-1.6502,-1.6741,-1.7608,-1.845,-1.9188,-1.9568,-2.0213,-2.0991,-2.0991,-2.0991,-2.1039,-2.1275,-2.1399,-2.1475,-2.2085,-2.2388,-2.2548,-2.2923,-2.3117,-2.3189,-2.3189,-2.3189,-2.3236,-2.3459,-2.4459,-2.5601,-2.6095,-2.7319,-2.8576,-2.8833,-2.9071,-2.9282,-2.9437,-2.9514,-2.9607,-2.9607,-2.9899,-3.0174,-3.0174,-3.0174,-3.0188,-3.0312,-3.0374,-3.0428,-3.0543,-3.0587,-3.062,-3.0661,-3.0694,-3.0723,-3.082,-3.0821,-3.0825,-3.0825,-3.0813,-3.0808,-3.0808,-3.0818,-3.082,-3.082,-3.0879,-3.0898,-3.0898,-3.0898,-3.0898,-3.0898,-3.0898,-3.0898,-3.0898,-3.0898,-3.0898,0.0,0.0,0.0,0.0,0.0,0.0,0.0,0.0,0.0,0.0,0.0,0.0,0.0,0.0,0.0,0.0,0.0,0.0,0.0,0.0,0.0,0.0,0.0,0.0,0.0,0.0,0.0,0.0,-1.2943,-1.3198,-1.3198,-1.4019,-1.4876,-1.5741,-1.5799,-1.5799,-1.5799,-1.5799,-1.5799,-1.5799,-1.5799,-1.6099,-1.6682,-1.6697,-1.7413,-1.8642,-1.8687,-1.9544,-2.0927,-2.0959,-2.0959,-2.0959,-2.0959,-2.0959,-2.1023,-2.143,-2.1786,-2.2124,-2.2521,-2.2855,-2.3141,-2.3141,-2.3141,-2.3165,-2.3165,-2.3707,-2.4476,-2.5269,-2.61,-2.6904,-2.7703,-2.8156,-2.8496,-2.8887,-2.92,-2.9392,-2.9392,-2.9533,-2.9678,-2.9696,-2.9696,-2.9763,-2.9954,-3.0113,-3.0251,-3.0456,-3.0564,-3.0583,-3.0602,-3.0653,-3.0683,-3.0703,-3.069,-3.0691,-3.0698,-3.0649,-3.0594,-3.0594,-3.0662,-3.0703,-3.0703,-3.082,-3.0898,-3.0898,-3.0898,-3.0898,-3.0898,-3.0898,-3.0898,-3.0898,-3.0898,-3.0898,-0.2044,0.0,0.0,0.0,0.0,0.0,0.0,0.0,0.0,0.0,0.0,0.0,0.0,0.0,0.0,0.0,0.0,0.0,0.0,0.0,0.0,0.0,0.0,0.0,0.0,0.0,0.0,0.0,-1.272,-1.3198,-1.3198,-1.4019,-1.4752,-1.5285,-1.561,-1.5799,-1.5799,-1.5799,-1.5799,-1.5799,-1.5799,-1.5903,-1.6054,-1.6502,-1.6906,-1.7309,-1.8283,-1.8929,-1.9363,-1.9852,-2.005,-2.0085,-2.0398,-2.0483,-2.0583,-2.1321,-2.1475,-2.1366,-2.1757,-2.177,-2.1665,-2.1943,-2.2029,-2.2141,-2.2678,-2.3789,-2.496,-2.5376,-2.6517,-2.7688,-2.8157,-2.8342,-2.8496,-2.8887,-2.9062,-2.9112,-2.9112,-2.916,-2.9293,-2.9643,-2.9696,-2.9731,-2.9763,-2.9935,-3.0065,-3.0122,-3.0324,-3.0467,-3.0525,-3.055,-3.0571,-3.0613,-3.0626,-3.0623,-3.0625,-3.0623,-3.0607,-3.0607,-3.0655,-3.0697,-3.0703,-3.082,-3.0898,-3.0898,-3.0898,-3.0898,-3.0898,-3.0898,-3.0898,-3.0898,-3.0898,-3.0898,-0.1997,-0.2372,-0.2766,0.0,0.0,0.0,0.0,-0.4591,0.0,0.0,0.0,0.0,0.0,0.0,0.0,0.0,0.0,0.0,0.0,0.0,0.0,0.0,0.0,0.0,0.0,-1.1029,-1.1468,-1.1468,-1.2354,-1.3082,-1.3459,-1.3967,-1.4438,-1.4845,-1.5134,-1.5255,-1.5255,-1.5255,-1.5255,-1.5255,-1.5255,-1.5359,-1.5522,-1.5875,-1.6291,-1.6771,-1.7817,-1.8448,-1.8747,-1.9405,-1.969,-1.9711,-1.9965,-2.007,-2.0124,-2.0797,-2.091,-2.0748,-2.1213,-2.1181,-2.1023,-2.1275,-2.146,-2.1672,-2.2102,-2.3454,-2.489,-2.5056,-2.6179,-2.753,-2.8029,-2.8183,-2.8316,-2.8863,-2.8994,-2.8994,-2.8994,-2.8994,-2.9089,-2.9357,-2.9416,-2.9436,-2.9551,-2.9678,-2.9796,-2.9984,-3.0136,-3.0286,-3.0436,-3.0487,-3.0516,-3.0546,-3.0563,-3.0568,-3.0556,-3.0525,-3.0525,-3.0525,-3.0583,-3.0626,-3.0622,-3.0716,-3.076,-3.076,-3.076,-3.076,-3.078,-3.0857,-3.0898,-3.0898,-3.0898,-3.0898,-0.1869,-0.2305,-0.2815,-0.3038,-0.3347,0.0,-0.4183,-0.4602,0.0,0.0,0.0,0.0,0.0,0.0,0.0,0.0,0.0,0.0,0.0,0.0,0.0,0.0,0.0,0.0,0.0,-1.0725,-1.1019,-1.1019,-1.1945,-1.2883,-1.3769,-1.3868,-1.4052,-1.4406,-1.447,-1.4501,-1.4501,-1.4501,-1.4501,-1.4501,-1.4564,-1.4752,-1.5104,-1.5165,-1.5696,-1.6637,-1.7294,-1.7951,-1.8642,-1.9301,-1.9615,-1.969,-1.969,-1.969,-1.9747,-2.0158,-2.028,-2.0314,-2.0764,-2.0894,-2.0862,-2.0894,-2.1213,-2.1521,-2.1582,-2.2909,-2.4421,-2.4591,-2.5625,-2.6873,-2.7678,-2.7897,-2.8093,-2.8815,-2.8994,-2.8994,-2.8994,-2.8994,-2.8994,-2.8994,-2.8994,-2.9067,-2.931,-2.9392,-2.9532,-2.9877,-2.9954,-3.0047,-3.0286,-3.0369,-3.0407,-3.0407,-3.0432,-3.0432,-3.0432,-3.0417,-3.0398,-3.0398,-3.0467,-3.0507,-3.0505,-3.0567,-3.0594,-3.0594,-3.0594,-3.0594,-3.0594,-3.0777,-3.0878,-3.0878,-3.0878,-3.0878,-0.2047,-0.2645,-0.3134,-0.2974,0.0,0.0,-0.3752,-0.3953,0.0,0.0,0.0,0.0,0.0,0.0,0.0,0.0,0.0,0.0,0.0,0.0,0.0,0.0,0.0,0.0,0.0,-1.0725,-1.1019,-1.1019,-1.1945,-1.2756,-1.3288,-1.3682,-1.3934,-1.4032,-1.4342,-1.4501,-1.4501,-1.4501,-1.4501,-1.4501,-1.4814,-1.5013,-1.5104,-1.5477,-1.5771,-1.5994,-1.6622,-1.7279,-1.7936,-1.8627,-1.9211,-1.969,-1.969,-1.969,-1.9747,-2.0158,-2.0089,-1.9874,-2.028,-2.0227,-2.0015,-2.0314,-2.0764,-2.1181,-2.1491,-2.2558,-2.3849,-2.505,-2.6015,-2.6873,-2.7678,-2.7897,-2.8093,-2.8815,-2.8994,-2.8994,-2.8994,-2.8994,-2.8994,-2.8994,-2.8994,-2.9017,-2.9067,-2.9246,-2.9414,-2.9513,-2.9643,-2.9782,-2.9832,-2.9851,-2.9851,-2.9851,-3.0007,-3.0095,-3.0095,-3.0286,-3.0398,-3.0398,-3.0467,-3.0498,-3.0505,-3.0565,-3.0595,-3.0595,-3.0595,-3.0595,-3.0595,-3.0646,-3.0667,-3.0667,-3.0667,-3.0667,-0.1858,-0.2445,-0.3022,-0.3081,0.0,0.0,0.0,0.0,-0.3991,0.0,0.0,0.0,0.0,0.0,0.0,0.0,0.0,0.0,0.0,0.0,0.0,0.0,0.0,0.0,-0.9961,-1.0376,-1.0764,-1.0981,-1.1945,-1.2615,-1.2838,-1.331,-1.3547,-1.3547,-1.3735,-1.3835,-1.3835,-1.3835,-1.3835,-1.3868,-1.4278,-1.4596,-1.4814,-1.5255,-1.558,-1.5829,-1.6428,-1.6891,-1.7279,-1.8298,-1.8897,-1.9226,-1.9555,-1.969,-1.9711,-1.9945,-1.9874,-1.9726,-1.9929,-1.9874,-1.9711,-1.9945,-2.0465,-2.1023,-2.1244,-2.2278,-2.3714,-2.5186,-2.5879,-2.6413,-2.759,-2.7897,-2.8093,-2.8815,-2.8994,-2.8994,-2.8994,-2.8994,-2.8994,-2.8994,-2.8994,-2.8994,-2.8994,-2.9112,-2.9246,-2.9392,-2.9493,-2.9589,-2.9696,-2.9696,-2.9696,-2.9696,-2.978,-2.9845,-2.9845,-2.9973,-3.0037,-3.0037,-3.009,-3.0109,-3.0109,-3.0128,-3.0147,-3.0147,-3.0251,-3.0305,-3.0305,-3.0442,-3.0537,-3.0595,-3.0595,-3.0595,0.0,0.0,0.0,0.0,0.0,-0.3622,0.0,0.0,0.0,-0.4177,0.0,0.0,0.0,0.0,0.0,0.0,0.0,0.0,0.0,0.0,0.0,0.0,0.0,0.0,0.0,-0.9608,-1.0121,-1.0835,-1.1539,-1.2072,-1.2342,-1.2803,-1.306,-1.306,-1.3163,-1.3198,-1.3198,-1.3198,-1.3267,-1.3323,-1.3802,-1.4214,-1.4627,-1.4937,-1.5329,-1.5698,-1.6097,-1.6362,-1.6568,-1.7747,-1.8362,-1.8659,-1.942,-1.969,-1.969,-1.969,-1.969,-1.969,-1.969,-1.969,-1.9711,-1.9782,-2.0398,-2.1118,-2.1229,-2.2247,-2.368,-2.5017,-2.549,-2.5953,-2.7397,-2.7765,-2.7936,-2.8626,-2.8791,-2.8791,-2.8791,-2.8791,-2.8791,-2.8791,-2.8839,-2.8905,-2.8994,-2.8994,-2.9067,-2.9289,-2.933,-2.9394,-2.9533,-2.957,-2.957,-2.957,-2.9607,-2.9643,-2.9643,-2.9678,-2.9696,-2.9696,-2.9696,-2.9696,-2.9696,-2.9696,-2.9696,-2.9696,-2.9861,-2.9939,-2.9939,-3.0155,-3.0369,-3.0564,-3.0564,-3.0564,0.0,0.0,0.0,0.0,-0.3614,0.0,0.0,0.0,-0.3924,-0.3664,0.0,0.0,0.0,0.0,0.0,0.0,0.0,0.0,0.0,0.0,0.0,0.0,0.0,0.0,0.0,-0.8065,-0.8752,-1.0358,-1.0204,-1.0572,-1.1802,-1.2318,-1.2579,-1.2579,-1.2978,-1.3198,-1.3198,-1.3198,-1.3425,-1.3835,-1.4246,-1.4627,-1.5043,-1.5074,-1.5134,-1.5165,-1.4853,-1.5095,-1.5688,-1.6306,-1.7192,-1.8279,-1.9313,-1.969,-1.969,-1.969,-1.969,-1.969,-1.969,-1.969,-1.9747,-2.0124,-2.0813,-2.1628,-2.202,-2.276,-2.3562,-2.4374,-2.5101,-2.5858,-2.7065,-2.7348,-2.747,-2.7926,-2.8037,-2.8037,-2.8037,-2.8037,-2.8037,-2.8037,-2.8264,-2.8565,-2.8929,-2.8994,-2.9017,-2.904,-2.9062,-2.9044,-2.9089,-2.9089,-2.9089,-2.9089,-2.9291,-2.9434,-2.9434,-2.9607,-2.9696,-2.9696,-2.9696,-2.9696,-2.9696,-2.9696,-2.9696,-2.9696,-2.9731,-2.9729,-2.9729,-2.9765,-2.9992,-3.0417,-3.0417,-3.0417,0.0,0.0,0.0,0.0,0.0,0.0,-0.3157,0.0,-0.3474,0.0,0.0,0.0,0.0,0.0,0.0,0.0,0.0,0.0,0.0,0.0,0.0,0.0,0.0,0.0,0.0,0.0,0.0,0.0,-0.9959,-1.041,-1.0959,-1.1689,-1.221,-1.2508,-1.2685,-1.2908,-1.3198,-1.3198,-1.3301,-1.348,-1.3934,-1.4246,-1.4406,-1.4658,-1.4752,-1.4752,-1.4564,-1.4639,-1.4976,-1.591,-1.6768,-1.7615,-1.8775,-1.9442,-1.969,-1.969,-1.969,-1.969,-1.969,-1.9839,-2.0158,-2.0846,-2.129,-2.1688,-2.2163,-2.253,-2.3004,-2.4154,-2.4712,-2.5329,-2.6899,-2.7303,-2.7378,-2.7794,-2.7897,-2.7897,-2.7897,-2.7897,-2.7897,-2.7897,-2.7992,-2.8156,-2.8334,-2.8718,-2.8994,-2.8994,-2.8994,-2.8994,-2.8994,-2.8994,-2.8994,-2.8994,-2.9089,-2.9178,-2.9178,-2.9249,-2.9293,-2.9293,-2.9293,-2.9293,-2.9293,-2.9739,-2.9981,-2.9981,-3.0592,-3.0917,-3.0917,-3.1054,-3.1042,-3.0915,-3.0398,-3.0254,-0.1755,0.0,0.0,0.0,0.0,0.0,0.0,0.0,0.0,0.0,0.0,0.0,0.0,0.0,0.0,0.0,0.0,0.0,0.0,0.0,0.0,0.0,0.0,0.0,0.0,0.0,0.0,0.0,0.0,-0.967,-1.0153,-1.0989,-1.1628,-1.2054,-1.2354,-1.265,-1.3012,-1.3129,-1.3267,-1.3391,-1.3735,-1.3967,-1.4052,-1.4246,-1.4342,-1.4342,-1.4214,-1.4214,-1.4438,-1.5626,-1.6508,-1.7204,-1.844,-1.9244,-1.969,-1.969,-1.969,-1.969,-1.969,-1.9965,-2.0416,-2.1039,-2.1321,-2.1491,-2.184,-2.2065,-2.2465,-2.3762,-2.4342,-2.4955,-2.6531,-2.7034,-2.721,-2.75,-2.756,-2.756,-2.756,-2.756,-2.756,-2.756,-2.7648,-2.7754,-2.7754,-2.8281,-2.87,-2.87,-2.87,-2.87,-2.87,-2.8791,-2.8839,-2.8839,-2.8929,-2.8994,-2.8994,-2.8994,-2.8994,-2.8994,-2.9195,-2.9347,-2.9347,-3.0099,-3.0522,-3.0522,-3.1288,-3.17,-3.1681,-3.1843,-3.1788,-3.1523,-3.0731,-3.0366,0.0,0.0,0.0,-0.2826,0.0,0.0,0.0,0.0,-0.3072,0.0,0.0,0.0,0.0,0.0,-0.3067,-0.2929,-0.3144,0.0,0.0,0.0,0.0,0.0,0.0,0.0,0.0,0.0,0.0,0.0,0.0,0.0,-0.9541,-1.0144,-1.064,-1.1046,-1.1982,-1.2508,-1.2508,-1.2978,-1.3425,-1.3868,-1.3901,-1.4084,-1.447,-1.4084,-1.3934,-1.3901,-1.3459,-1.348,-1.4013,-1.5216,-1.6261,-1.7204,-1.844,-1.9244,-1.969,-1.969,-1.969,-1.969,-1.969,-1.9965,-2.0299,-2.0333,-2.0649,-2.1023,-2.1039,-2.1503,-2.2175,-2.2946,-2.3937,-2.4989,-2.5834,-2.6367,-2.6725,-2.6725,-2.6758,-2.6758,-2.6758,-2.6758,-2.6758,-2.6758,-2.7051,-2.7334,-2.7334,-2.7648,-2.7926,-2.7926,-2.7926,-2.7926,-2.7926,-2.821,-2.842,-2.842,-2.8773,-2.8994,-2.8994,-2.8994,-2.8994,-2.8994,-2.9732,-3.0173,-3.0173,-3.0925,-3.1347,-3.1347,-3.1409,-3.1409,-3.1409,-3.1409,-3.1685,-3.2166,-3.1526,-3.0944,0.0,0.0,-0.3246,-0.3035,0.0,0.0,0.0,0.0,0.0,0.0,0.0,0.0,0.0,0.0,-0.2829,-0.2768,-0.2731,-0.2769,0.0,0.0,0.0,0.0,0.0,0.0,0.0,0.0,0.0,0.0,-0.6931,0.0,0.0,-0.9467,-1.0087,-1.0604,-1.1194,-1.1689,-1.2029,-1.2174,-1.2342,-1.2508,-1.2836,-1.3045,-1.317,-1.3378,-1.3459,-1.3425,-1.3267,-1.3459,-1.398,-1.5216,-1.6261,-1.7204,-1.844,-1.9244,-1.969,-1.969,-1.969,-1.9747,-2.0,-2.0193,-2.0348,-2.0649,-2.0862,-2.0991,-2.0991,-2.1454,-2.2157,-2.2876,-2.3686,-2.4523,-2.5271,-2.5598,-2.5709,-2.5709,-2.5709,-2.5783,-2.6139,-2.6227,-2.6332,-2.6657,-2.6808,-2.6906,-2.6906,-2.7036,-2.7303,-2.7811,-2.7897,-2.7897,-2.7897,-2.7992,-2.8075,-2.8075,-2.8201,-2.836,-2.8565,-2.8839,-2.8994,-2.8994,-2.9769,-3.021,-3.021,-3.1476,-3.2192,-3.2192,-3.2724,-3.2981,-3.2981,-3.2981,-3.2993,-3.2977,-3.2184,-3.1626,-0.1446,-0.2099,0.0,-0.2499,-0.2347,0.0,-0.2006,0.0,0.0,0.0,0.0,0.0,0.0,0.0,-0.2689,-0.2627,-0.2553,-0.2574,0.0,-0.2745,0.0,0.0,0.0,0.0,0.0,0.0,-0.5035,-0.6385,0.0,0.0,0.0,0.0,-0.9615,-1.0088,-1.0704,-1.1169,-1.1505,-1.17,-1.1884,-1.2066,-1.2354,-1.2579,-1.2756,-1.3047,-1.3198,-1.3198,-1.3198,-1.3561,-1.4238,-1.526,-1.6363,-1.7488,-1.8489,-1.9244,-1.969,-1.969,-1.969,-1.9747,-2.0,-2.0089,-2.0139,-2.0431,-2.0548,-2.0579,-2.0811,-2.1358,-2.2045,-2.2748,-2.3573,-2.4318,-2.4784,-2.5067,-2.5221,-2.5221,-2.5221,-2.5297,-2.5652,-2.5726,-2.5799,-2.6123,-2.6315,-2.6436,-2.6436,-2.659,-2.6873,-2.7396,-2.747,-2.747,-2.747,-2.7589,-2.7695,-2.7695,-2.8041,-2.8372,-2.8595,-2.9246,-2.9521,-2.9235,-3.0357,-3.1054,-3.1054,-3.232,-3.3036,-3.3036,-3.3532,-3.3807,-3.3807,-3.3807,-3.3778,-3.3682,-3.2918,-3.2346]}]]